<?xml version="1.0" encoding="UTF-8" standalone="no" ?>
<gpx xmlns="http://www.topografix.com/GPX/1/1" xmlns:xsi="http://www.w3.org/2001/XMLSchema-instance" xsi:schemaLocation="http://www.topografix.com/GPX/1/1 http://www.topografix.com/GPX/1/1/gpx.xsd" version="1.1" creator="VisuGPX - https://www.visugpx.com">
  <metadata>
    <name>2j montagne noire</name>
    <desc><![CDATA[Created with GOTOES STRAVA TOOLS Version 15.9]]></desc>
  </metadata>
  <trk>
    <name><![CDATA[2j montagne noire]]></name>
    <trkseg>
      <trkpt lat="43.33358" lon="2.53785">
        <ele>296.200012207</ele>
        <time>2022-03-23T09:16:08Z</time>
      </trkpt>
      <trkpt lat="43.3337" lon="2.53808">
        <ele>297.399993896</ele>
        <time>2022-03-23T09:16:27Z</time>
      </trkpt>
      <trkpt lat="43.33386" lon="2.53817">
        <ele>299.399993896</ele>
        <time>2022-03-23T09:16:43Z</time>
      </trkpt>
      <trkpt lat="43.33396" lon="2.53807">
        <ele>300.799987793</ele>
        <time>2022-03-23T09:18:09Z</time>
      </trkpt>
      <trkpt lat="43.33425" lon="2.53774">
        <ele>303.399993896</ele>
        <time>2022-03-23T09:18:39Z</time>
      </trkpt>
      <trkpt lat="43.33436" lon="2.53752">
        <ele>304.799987793</ele>
        <time>2022-03-23T09:18:54Z</time>
      </trkpt>
      <trkpt lat="43.33479" lon="2.53782">
        <ele>310</ele>
        <time>2022-03-23T09:19:29Z</time>
      </trkpt>
      <trkpt lat="43.335" lon="2.53798">
        <ele>312</ele>
        <time>2022-03-23T09:19:46Z</time>
      </trkpt>
      <trkpt lat="43.33516" lon="2.53804">
        <ele>314</ele>
        <time>2022-03-23T09:19:59Z</time>
      </trkpt>
      <trkpt lat="43.33542" lon="2.53817">
        <ele>317</ele>
        <time>2022-03-23T09:20:18Z</time>
      </trkpt>
      <trkpt lat="43.3354" lon="2.53884">
        <ele>317.799987793</ele>
        <time>2022-03-23T09:20:53Z</time>
      </trkpt>
      <trkpt lat="43.33559" lon="2.53933">
        <ele>322.200012207</ele>
        <time>2022-03-23T09:21:22Z</time>
      </trkpt>
      <trkpt lat="43.33575" lon="2.53971">
        <ele>323.600006104</ele>
        <time>2022-03-23T09:21:49Z</time>
      </trkpt>
      <trkpt lat="43.33603" lon="2.54017">
        <ele>326.600006104</ele>
        <time>2022-03-23T09:22:20Z</time>
      </trkpt>
      <trkpt lat="43.3365" lon="2.54075">
        <ele>324.200012207</ele>
        <time>2022-03-23T09:23:04Z</time>
      </trkpt>
      <trkpt lat="43.33671" lon="2.54085">
        <ele>320</ele>
        <time>2022-03-23T09:23:30Z</time>
      </trkpt>
      <trkpt lat="43.3371" lon="2.54062">
        <ele>322.600006104</ele>
        <time>2022-03-23T09:24:50Z</time>
      </trkpt>
      <trkpt lat="43.33729" lon="2.54031">
        <ele>326.799987793</ele>
        <time>2022-03-23T09:25:11Z</time>
      </trkpt>
      <trkpt lat="43.33737" lon="2.54002">
        <ele>332</ele>
        <time>2022-03-23T09:25:37Z</time>
      </trkpt>
      <trkpt lat="43.33766" lon="2.53992">
        <ele>333.200012207</ele>
        <time>2022-03-23T09:25:57Z</time>
      </trkpt>
      <trkpt lat="43.33786" lon="2.54011">
        <ele>324</ele>
        <time>2022-03-23T09:26:15Z</time>
      </trkpt>
      <trkpt lat="43.33804" lon="2.5401">
        <ele>320.600006104</ele>
        <time>2022-03-23T09:26:42Z</time>
      </trkpt>
      <trkpt lat="43.33823" lon="2.54004">
        <ele>317.600006104</ele>
        <time>2022-03-23T09:28:52Z</time>
      </trkpt>
      <trkpt lat="43.33839" lon="2.53991">
        <ele>317.600006104</ele>
        <time>2022-03-23T09:29:17Z</time>
      </trkpt>
      <trkpt lat="43.33857" lon="2.53991">
        <ele>310.600006104</ele>
        <time>2022-03-23T09:29:35Z</time>
      </trkpt>
      <trkpt lat="43.33889" lon="2.53978">
        <ele>300.200012207</ele>
        <time>2022-03-23T09:30:01Z</time>
      </trkpt>
      <trkpt lat="43.33906" lon="2.53984">
        <ele>292.399993896</ele>
        <time>2022-03-23T09:30:25Z</time>
      </trkpt>
      <trkpt lat="43.33889" lon="2.54029">
        <ele>288.200012207</ele>
        <time>2022-03-23T09:30:53Z</time>
      </trkpt>
      <trkpt lat="43.33888" lon="2.54048">
        <ele>282</ele>
        <time>2022-03-23T09:31:13Z</time>
      </trkpt>
      <trkpt lat="43.33907" lon="2.54031">
        <ele>279.799987793</ele>
        <time>2022-03-23T09:31:34Z</time>
      </trkpt>
      <trkpt lat="43.33898" lon="2.54073">
        <ele>271</ele>
        <time>2022-03-23T09:32:07Z</time>
      </trkpt>
      <trkpt lat="43.33893" lon="2.54108">
        <ele>264.799987793</ele>
        <time>2022-03-23T09:32:30Z</time>
      </trkpt>
      <trkpt lat="43.33879" lon="2.54141">
        <ele>262</ele>
        <time>2022-03-23T09:32:46Z</time>
      </trkpt>
      <trkpt lat="43.33865" lon="2.54158">
        <ele>262.200012207</ele>
        <time>2022-03-23T09:33:02Z</time>
      </trkpt>
      <trkpt lat="43.33869" lon="2.54148">
        <ele>263.399993896</ele>
        <time>2022-03-23T09:33:16Z</time>
      </trkpt>
      <trkpt lat="43.33871" lon="2.5416">
        <ele>260.799987793</ele>
        <time>2022-03-23T09:33:33Z</time>
      </trkpt>
      <trkpt lat="43.33875" lon="2.5418">
        <ele>260</ele>
        <time>2022-03-23T09:33:46Z</time>
      </trkpt>
      <trkpt lat="43.33875" lon="2.54202">
        <ele>260.799987793</ele>
        <time>2022-03-23T09:34:00Z</time>
      </trkpt>
      <trkpt lat="43.33872" lon="2.54207">
        <ele>261.600006104</ele>
        <time>2022-03-23T09:34:13Z</time>
      </trkpt>
      <trkpt lat="43.33863" lon="2.54201">
        <ele>259.600006104</ele>
        <time>2022-03-23T09:35:31Z</time>
      </trkpt>
      <trkpt lat="43.33866" lon="2.54182">
        <ele>260.600006104</ele>
        <time>2022-03-23T09:35:43Z</time>
      </trkpt>
      <trkpt lat="43.33862" lon="2.54219">
        <ele>262.200012207</ele>
        <time>2022-03-23T09:39:51Z</time>
      </trkpt>
      <trkpt lat="43.33859" lon="2.54232">
        <ele>265.600006104</ele>
        <time>2022-03-23T09:40:30Z</time>
      </trkpt>
      <trkpt lat="43.33831" lon="2.54242">
        <ele>261.600006104</ele>
        <time>2022-03-23T09:40:56Z</time>
      </trkpt>
      <trkpt lat="43.33815" lon="2.54246">
        <ele>258.200012207</ele>
        <time>2022-03-23T09:41:13Z</time>
      </trkpt>
      <trkpt lat="43.338" lon="2.54254">
        <ele>257</ele>
        <time>2022-03-23T09:41:36Z</time>
      </trkpt>
      <trkpt lat="43.33785" lon="2.54269">
        <ele>260.600006104</ele>
        <time>2022-03-23T09:41:55Z</time>
      </trkpt>
      <trkpt lat="43.33782" lon="2.5428">
        <ele>264.600006104</ele>
        <time>2022-03-23T09:42:04Z</time>
      </trkpt>
      <trkpt lat="43.33772" lon="2.5428">
        <ele>262.799987793</ele>
        <time>2022-03-23T09:42:23Z</time>
      </trkpt>
      <trkpt lat="43.33765" lon="2.54292">
        <ele>268.799987793</ele>
        <time>2022-03-23T09:42:36Z</time>
      </trkpt>
      <trkpt lat="43.33757" lon="2.54307">
        <ele>276.600006104</ele>
        <time>2022-03-23T09:43:11Z</time>
      </trkpt>
      <trkpt lat="43.3375" lon="2.54328">
        <ele>284.600006104</ele>
        <time>2022-03-23T09:45:24Z</time>
      </trkpt>
      <trkpt lat="43.33744" lon="2.54351">
        <ele>291.799987793</ele>
        <time>2022-03-23T09:45:42Z</time>
      </trkpt>
      <trkpt lat="43.33731" lon="2.54369">
        <ele>296.200012207</ele>
        <time>2022-03-23T09:46:00Z</time>
      </trkpt>
      <trkpt lat="43.33723" lon="2.54381">
        <ele>299.399993896</ele>
        <time>2022-03-23T09:46:12Z</time>
      </trkpt>
      <trkpt lat="43.33711" lon="2.54391">
        <ele>299.799987793</ele>
        <time>2022-03-23T09:46:28Z</time>
      </trkpt>
      <trkpt lat="43.33688" lon="2.54408">
        <ele>298.399993896</ele>
        <time>2022-03-23T09:47:09Z</time>
      </trkpt>
      <trkpt lat="43.33665" lon="2.54418">
        <ele>293.200012207</ele>
        <time>2022-03-23T09:47:35Z</time>
      </trkpt>
      <trkpt lat="43.33647" lon="2.54437">
        <ele>291.799987793</ele>
        <time>2022-03-23T09:48:03Z</time>
      </trkpt>
      <trkpt lat="43.33642" lon="2.54452">
        <ele>295.799987793</ele>
        <time>2022-03-23T09:48:23Z</time>
      </trkpt>
      <trkpt lat="43.33637" lon="2.54457">
        <ele>295.600006104</ele>
        <time>2022-03-23T09:51:07Z</time>
      </trkpt>
      <trkpt lat="43.33622" lon="2.54457">
        <ele>289</ele>
        <time>2022-03-23T09:51:24Z</time>
      </trkpt>
      <trkpt lat="43.33611" lon="2.54464">
        <ele>285.399993896</ele>
        <time>2022-03-23T09:51:48Z</time>
      </trkpt>
      <trkpt lat="43.33661" lon="2.54488">
        <ele>314</ele>
        <time>2022-03-23T09:54:30Z</time>
      </trkpt>
      <trkpt lat="43.33692" lon="2.54519">
        <ele>324.799987793</ele>
        <time>2022-03-23T09:55:27Z</time>
      </trkpt>
      <trkpt lat="43.33711" lon="2.54533">
        <ele>329.200012207</ele>
        <time>2022-03-23T09:55:51Z</time>
      </trkpt>
      <trkpt lat="43.33724" lon="2.54543">
        <ele>332.200012207</ele>
        <time>2022-03-23T09:56:10Z</time>
      </trkpt>
      <trkpt lat="43.3375" lon="2.54556">
        <ele>337.799987793</ele>
        <time>2022-03-23T09:56:37Z</time>
      </trkpt>
      <trkpt lat="43.33779" lon="2.54578">
        <ele>343.600006104</ele>
        <time>2022-03-23T09:57:08Z</time>
      </trkpt>
      <trkpt lat="43.338" lon="2.54606">
        <ele>346.799987793</ele>
        <time>2022-03-23T09:57:33Z</time>
      </trkpt>
      <trkpt lat="43.33819" lon="2.54625">
        <ele>347.399993896</ele>
        <time>2022-03-23T09:57:52Z</time>
      </trkpt>
      <trkpt lat="43.3384" lon="2.54616">
        <ele>350.200012207</ele>
        <time>2022-03-23T09:58:17Z</time>
      </trkpt>
      <trkpt lat="43.33844" lon="2.54638">
        <ele>350</ele>
        <time>2022-03-23T09:58:36Z</time>
      </trkpt>
      <trkpt lat="43.33805" lon="2.54667">
        <ele>344.399993896</ele>
        <time>2022-03-23T09:59:50Z</time>
      </trkpt>
      <trkpt lat="43.33759" lon="2.5468">
        <ele>332</ele>
        <time>2022-03-23T10:00:23Z</time>
      </trkpt>
      <trkpt lat="43.33701" lon="2.54685">
        <ele>318.200012207</ele>
        <time>2022-03-23T10:01:08Z</time>
      </trkpt>
      <trkpt lat="43.33689" lon="2.54656">
        <ele>318</ele>
        <time>2022-03-23T10:01:26Z</time>
      </trkpt>
      <trkpt lat="43.33682" lon="2.54627">
        <ele>319.200012207</ele>
        <time>2022-03-23T10:01:50Z</time>
      </trkpt>
      <trkpt lat="43.33676" lon="2.54623">
        <ele>317.799987793</ele>
        <time>2022-03-23T10:02:22Z</time>
      </trkpt>
      <trkpt lat="43.33659" lon="2.54622">
        <ele>313.200012207</ele>
        <time>2022-03-23T10:02:39Z</time>
      </trkpt>
      <trkpt lat="43.3366" lon="2.54666">
        <ele>310.399993896</ele>
        <time>2022-03-23T10:02:59Z</time>
      </trkpt>
      <trkpt lat="43.3367" lon="2.54698">
        <ele>310.600006104</ele>
        <time>2022-03-23T10:03:14Z</time>
      </trkpt>
      <trkpt lat="43.33677" lon="2.54716">
        <ele>311.200012207</ele>
        <time>2022-03-23T10:03:24Z</time>
      </trkpt>
      <trkpt lat="43.33679" lon="2.54744">
        <ele>308.600006104</ele>
        <time>2022-03-23T10:03:37Z</time>
      </trkpt>
      <trkpt lat="43.33672" lon="2.5479">
        <ele>299.799987793</ele>
        <time>2022-03-23T10:04:00Z</time>
      </trkpt>
      <trkpt lat="43.33663" lon="2.54842">
        <ele>290.600006104</ele>
        <time>2022-03-23T10:04:31Z</time>
      </trkpt>
      <trkpt lat="43.33665" lon="2.54877">
        <ele>282</ele>
        <time>2022-03-23T10:04:51Z</time>
      </trkpt>
      <trkpt lat="43.33614" lon="2.54908">
        <ele>266</ele>
        <time>2022-03-23T10:05:30Z</time>
      </trkpt>
      <trkpt lat="43.33574" lon="2.54879">
        <ele>262.600006104</ele>
        <time>2022-03-23T10:06:00Z</time>
      </trkpt>
      <trkpt lat="43.33592" lon="2.54894">
        <ele>263.799987793</ele>
        <time>2022-03-23T10:06:13Z</time>
      </trkpt>
      <trkpt lat="43.33618" lon="2.54923">
        <ele>265.200012207</ele>
        <time>2022-03-23T10:06:34Z</time>
      </trkpt>
      <trkpt lat="43.33674" lon="2.54947">
        <ele>269.399993896</ele>
        <time>2022-03-23T10:07:15Z</time>
      </trkpt>
      <trkpt lat="43.33706" lon="2.54985">
        <ele>271.600006104</ele>
        <time>2022-03-23T10:07:44Z</time>
      </trkpt>
      <trkpt lat="43.33713" lon="2.55075">
        <ele>260</ele>
        <time>2022-03-23T10:08:25Z</time>
      </trkpt>
      <trkpt lat="43.33722" lon="2.55101">
        <ele>259.799987793</ele>
        <time>2022-03-23T10:08:39Z</time>
      </trkpt>
      <trkpt lat="43.33763" lon="2.55133">
        <ele>263.799987793</ele>
        <time>2022-03-23T10:09:08Z</time>
      </trkpt>
      <trkpt lat="43.33814" lon="2.55171">
        <ele>269.399993896</ele>
        <time>2022-03-23T10:09:45Z</time>
      </trkpt>
      <trkpt lat="43.33815" lon="2.55213">
        <ele>263</ele>
        <time>2022-03-23T10:10:05Z</time>
      </trkpt>
      <trkpt lat="43.33825" lon="2.55243">
        <ele>263.399993896</ele>
        <time>2022-03-23T10:10:20Z</time>
      </trkpt>
      <trkpt lat="43.33823" lon="2.553">
        <ele>261.399993896</ele>
        <time>2022-03-23T10:10:47Z</time>
      </trkpt>
      <trkpt lat="43.33856" lon="2.5534">
        <ele>269.200012207</ele>
        <time>2022-03-23T10:11:24Z</time>
      </trkpt>
      <trkpt lat="43.33914" lon="2.55368">
        <ele>273.799987793</ele>
        <time>2022-03-23T10:12:10Z</time>
      </trkpt>
      <trkpt lat="43.33932" lon="2.55413">
        <ele>270.799987793</ele>
        <time>2022-03-23T10:12:38Z</time>
      </trkpt>
      <trkpt lat="43.33909" lon="2.55447">
        <ele>269.600006104</ele>
        <time>2022-03-23T10:13:00Z</time>
      </trkpt>
      <trkpt lat="43.33894" lon="2.55474">
        <ele>269</ele>
        <time>2022-03-23T10:13:17Z</time>
      </trkpt>
      <trkpt lat="43.33902" lon="2.55495">
        <ele>271.600006104</ele>
        <time>2022-03-23T10:13:30Z</time>
      </trkpt>
      <trkpt lat="43.3394" lon="2.55579">
        <ele>280.799987793</ele>
        <time>2022-03-23T10:14:16Z</time>
      </trkpt>
      <trkpt lat="43.33941" lon="2.55619">
        <ele>280.799987793</ele>
        <time>2022-03-23T10:14:37Z</time>
      </trkpt>
      <trkpt lat="43.33941" lon="2.55632">
        <ele>281.799987793</ele>
        <time>2022-03-23T10:14:44Z</time>
      </trkpt>
      <trkpt lat="43.33944" lon="2.5567">
        <ele>282.600006104</ele>
        <time>2022-03-23T10:15:02Z</time>
      </trkpt>
      <trkpt lat="43.33952" lon="2.55722">
        <ele>284.799987793</ele>
        <time>2022-03-23T10:15:24Z</time>
      </trkpt>
      <trkpt lat="43.33945" lon="2.55766">
        <ele>282.799987793</ele>
        <time>2022-03-23T10:15:46Z</time>
      </trkpt>
      <trkpt lat="43.3397" lon="2.55807">
        <ele>286.399993896</ele>
        <time>2022-03-23T10:16:11Z</time>
      </trkpt>
      <trkpt lat="43.33961" lon="2.55824">
        <ele>284.799987793</ele>
        <time>2022-03-23T10:16:22Z</time>
      </trkpt>
      <trkpt lat="43.33942" lon="2.55844">
        <ele>282.600006104</ele>
        <time>2022-03-23T10:16:38Z</time>
      </trkpt>
      <trkpt lat="43.33931" lon="2.55878">
        <ele>282.600006104</ele>
        <time>2022-03-23T10:16:57Z</time>
      </trkpt>
      <trkpt lat="43.33932" lon="2.55907">
        <ele>284.399993896</ele>
        <time>2022-03-23T10:17:12Z</time>
      </trkpt>
      <trkpt lat="43.33948" lon="2.55954">
        <ele>287.200012207</ele>
        <time>2022-03-23T10:17:37Z</time>
      </trkpt>
      <trkpt lat="43.33951" lon="2.55972">
        <ele>287.600006104</ele>
        <time>2022-03-23T10:17:52Z</time>
      </trkpt>
      <trkpt lat="43.33982" lon="2.55981">
        <ele>291.600006104</ele>
        <time>2022-03-23T10:18:52Z</time>
      </trkpt>
      <trkpt lat="43.34012" lon="2.55969">
        <ele>296.200012207</ele>
        <time>2022-03-23T10:19:15Z</time>
      </trkpt>
      <trkpt lat="43.34029" lon="2.55961">
        <ele>298.600006104</ele>
        <time>2022-03-23T10:19:29Z</time>
      </trkpt>
      <trkpt lat="43.34089" lon="2.5597">
        <ele>303.600006104</ele>
        <time>2022-03-23T10:20:09Z</time>
      </trkpt>
      <trkpt lat="43.34125" lon="2.5595">
        <ele>307.799987793</ele>
        <time>2022-03-23T10:20:37Z</time>
      </trkpt>
      <trkpt lat="43.34146" lon="2.55958">
        <ele>312.399993896</ele>
        <time>2022-03-23T10:20:59Z</time>
      </trkpt>
      <trkpt lat="43.34152" lon="2.55994">
        <ele>313</ele>
        <time>2022-03-23T10:21:17Z</time>
      </trkpt>
      <trkpt lat="43.3414" lon="2.56029">
        <ele>311.399993896</ele>
        <time>2022-03-23T10:21:37Z</time>
      </trkpt>
      <trkpt lat="43.34118" lon="2.56082">
        <ele>308.200012207</ele>
        <time>2022-03-23T10:22:09Z</time>
      </trkpt>
      <trkpt lat="43.34145" lon="2.56085">
        <ele>311.799987793</ele>
        <time>2022-03-23T10:22:30Z</time>
      </trkpt>
      <trkpt lat="43.34179" lon="2.56088">
        <ele>319.399993896</ele>
        <time>2022-03-23T10:22:53Z</time>
      </trkpt>
      <trkpt lat="43.34207" lon="2.5608">
        <ele>328.600006104</ele>
        <time>2022-03-23T10:24:55Z</time>
      </trkpt>
      <trkpt lat="43.34224" lon="2.56029">
        <ele>339</ele>
        <time>2022-03-23T10:25:51Z</time>
      </trkpt>
      <trkpt lat="43.34224" lon="2.56005">
        <ele>340.600006104</ele>
        <time>2022-03-23T10:26:06Z</time>
      </trkpt>
      <trkpt lat="43.34232" lon="2.55943">
        <ele>346.799987793</ele>
        <time>2022-03-23T10:26:45Z</time>
      </trkpt>
      <trkpt lat="43.34251" lon="2.55908">
        <ele>354.399993896</ele>
        <time>2022-03-23T10:27:12Z</time>
      </trkpt>
      <trkpt lat="43.34273" lon="2.55864">
        <ele>359.600006104</ele>
        <time>2022-03-23T10:27:56Z</time>
      </trkpt>
      <trkpt lat="43.34289" lon="2.55836">
        <ele>364.799987793</ele>
        <time>2022-03-23T10:28:25Z</time>
      </trkpt>
      <trkpt lat="43.34303" lon="2.55811">
        <ele>369.799987793</ele>
        <time>2022-03-23T10:28:52Z</time>
      </trkpt>
      <trkpt lat="43.34318" lon="2.5581">
        <ele>374.399993896</ele>
        <time>2022-03-23T10:29:44Z</time>
      </trkpt>
      <trkpt lat="43.34348" lon="2.55816">
        <ele>383.799987793</ele>
        <time>2022-03-23T10:30:10Z</time>
      </trkpt>
      <trkpt lat="43.3438" lon="2.55829">
        <ele>391</ele>
        <time>2022-03-23T10:30:42Z</time>
      </trkpt>
      <trkpt lat="43.34408" lon="2.55841">
        <ele>395</ele>
        <time>2022-03-23T10:31:12Z</time>
      </trkpt>
      <trkpt lat="43.3443" lon="2.5586">
        <ele>398</ele>
        <time>2022-03-23T10:31:45Z</time>
      </trkpt>
      <trkpt lat="43.34452" lon="2.55891">
        <ele>402.399993896</ele>
        <time>2022-03-23T10:32:16Z</time>
      </trkpt>
      <trkpt lat="43.34483" lon="2.55944">
        <ele>408.399993896</ele>
        <time>2022-03-23T10:32:56Z</time>
      </trkpt>
      <trkpt lat="43.34499" lon="2.55983">
        <ele>409.399993896</ele>
        <time>2022-03-23T10:33:35Z</time>
      </trkpt>
      <trkpt lat="43.34514" lon="2.56012">
        <ele>411</ele>
        <time>2022-03-23T10:33:56Z</time>
      </trkpt>
      <trkpt lat="43.34493" lon="2.56067">
        <ele>412</ele>
        <time>2022-03-23T10:34:29Z</time>
      </trkpt>
      <trkpt lat="43.34471" lon="2.56103">
        <ele>409.799987793</ele>
        <time>2022-03-23T10:34:53Z</time>
      </trkpt>
      <trkpt lat="43.34459" lon="2.56131">
        <ele>408.399993896</ele>
        <time>2022-03-23T10:35:09Z</time>
      </trkpt>
      <trkpt lat="43.34484" lon="2.562">
        <ele>411.799987793</ele>
        <time>2022-03-23T10:35:48Z</time>
      </trkpt>
      <trkpt lat="43.34511" lon="2.56245">
        <ele>414.799987793</ele>
        <time>2022-03-23T10:36:18Z</time>
      </trkpt>
      <trkpt lat="43.34531" lon="2.56304">
        <ele>411.799987793</ele>
        <time>2022-03-23T10:36:52Z</time>
      </trkpt>
      <trkpt lat="43.34552" lon="2.56326">
        <ele>413.200012207</ele>
        <time>2022-03-23T10:37:21Z</time>
      </trkpt>
      <trkpt lat="43.34581" lon="2.56367">
        <ele>411.799987793</ele>
        <time>2022-03-23T10:37:51Z</time>
      </trkpt>
      <trkpt lat="43.34608" lon="2.56437">
        <ele>406.600006104</ele>
        <time>2022-03-23T10:38:29Z</time>
      </trkpt>
      <trkpt lat="43.34632" lon="2.56475">
        <ele>402.799987793</ele>
        <time>2022-03-23T10:38:55Z</time>
      </trkpt>
      <trkpt lat="43.34664" lon="2.56486">
        <ele>399.600006104</ele>
        <time>2022-03-23T10:39:20Z</time>
      </trkpt>
      <trkpt lat="43.34702" lon="2.56478">
        <ele>396.200012207</ele>
        <time>2022-03-23T10:39:56Z</time>
      </trkpt>
      <trkpt lat="43.34753" lon="2.56469">
        <ele>394.200012207</ele>
        <time>2022-03-23T10:40:30Z</time>
      </trkpt>
      <trkpt lat="43.3478" lon="2.56476">
        <ele>393.600006104</ele>
        <time>2022-03-23T10:40:48Z</time>
      </trkpt>
      <trkpt lat="43.34762" lon="2.56499">
        <ele>385.200012207</ele>
        <time>2022-03-23T10:41:38Z</time>
      </trkpt>
      <trkpt lat="43.34724" lon="2.56544">
        <ele>374</ele>
        <time>2022-03-23T10:42:15Z</time>
      </trkpt>
      <trkpt lat="43.34747" lon="2.56529">
        <ele>377.200012207</ele>
        <time>2022-03-23T10:42:34Z</time>
      </trkpt>
      <trkpt lat="43.34769" lon="2.56514">
        <ele>382</ele>
        <time>2022-03-23T10:42:51Z</time>
      </trkpt>
      <trkpt lat="43.3479" lon="2.56508">
        <ele>386.399993896</ele>
        <time>2022-03-23T10:43:07Z</time>
      </trkpt>
      <trkpt lat="43.34822" lon="2.56493">
        <ele>392.399993896</ele>
        <time>2022-03-23T10:43:32Z</time>
      </trkpt>
      <trkpt lat="43.34827" lon="2.56514">
        <ele>391.200012207</ele>
        <time>2022-03-23T10:43:47Z</time>
      </trkpt>
      <trkpt lat="43.34803" lon="2.56555">
        <ele>387.399993896</ele>
        <time>2022-03-23T10:44:14Z</time>
      </trkpt>
      <trkpt lat="43.34799" lon="2.56609">
        <ele>393.399993896</ele>
        <time>2022-03-23T10:44:43Z</time>
      </trkpt>
      <trkpt lat="43.34799" lon="2.56637">
        <ele>397</ele>
        <time>2022-03-23T10:45:00Z</time>
      </trkpt>
      <trkpt lat="43.34805" lon="2.56667">
        <ele>401.799987793</ele>
        <time>2022-03-23T10:45:23Z</time>
      </trkpt>
      <trkpt lat="43.34802" lon="2.56675">
        <ele>400</ele>
        <time>2022-03-23T10:45:37Z</time>
      </trkpt>
      <trkpt lat="43.34804" lon="2.5669">
        <ele>399.799987793</ele>
        <time>2022-03-23T10:46:01Z</time>
      </trkpt>
      <trkpt lat="43.34823" lon="2.56715">
        <ele>407.600006104</ele>
        <time>2022-03-23T10:46:36Z</time>
      </trkpt>
      <trkpt lat="43.3483" lon="2.56728">
        <ele>410.600006104</ele>
        <time>2022-03-23T10:47:06Z</time>
      </trkpt>
      <trkpt lat="43.34825" lon="2.5674">
        <ele>408.600006104</ele>
        <time>2022-03-23T10:47:43Z</time>
      </trkpt>
      <trkpt lat="43.34831" lon="2.56751">
        <ele>411.600006104</ele>
        <time>2022-03-23T10:48:05Z</time>
      </trkpt>
      <trkpt lat="43.34837" lon="2.56751">
        <ele>414.200012207</ele>
        <time>2022-03-23T10:48:31Z</time>
      </trkpt>
      <trkpt lat="43.34944" lon="2.56812">
        <ele>459.799987793</ele>
        <time>2022-03-23T10:51:58Z</time>
      </trkpt>
      <trkpt lat="43.34979" lon="2.56829">
        <ele>466.200012207</ele>
        <time>2022-03-23T10:52:37Z</time>
      </trkpt>
      <trkpt lat="43.34999" lon="2.56818">
        <ele>470.200012207</ele>
        <time>2022-03-23T10:52:59Z</time>
      </trkpt>
      <trkpt lat="43.35034" lon="2.56808">
        <ele>475.399993896</ele>
        <time>2022-03-23T10:53:31Z</time>
      </trkpt>
      <trkpt lat="43.35062" lon="2.56817">
        <ele>479.600006104</ele>
        <time>2022-03-23T10:53:58Z</time>
      </trkpt>
      <trkpt lat="43.35093" lon="2.56843">
        <ele>484.399993896</ele>
        <time>2022-03-23T10:54:32Z</time>
      </trkpt>
      <trkpt lat="43.35106" lon="2.56881">
        <ele>486.799987793</ele>
        <time>2022-03-23T10:54:58Z</time>
      </trkpt>
      <trkpt lat="43.35116" lon="2.56923">
        <ele>486.799987793</ele>
        <time>2022-03-23T10:55:24Z</time>
      </trkpt>
      <trkpt lat="43.35125" lon="2.56965">
        <ele>486</ele>
        <time>2022-03-23T10:55:50Z</time>
      </trkpt>
      <trkpt lat="43.35132" lon="2.57034">
        <ele>483</ele>
        <time>2022-03-23T10:56:32Z</time>
      </trkpt>
      <trkpt lat="43.35142" lon="2.57075">
        <ele>478.799987793</ele>
        <time>2022-03-23T10:56:57Z</time>
      </trkpt>
      <trkpt lat="43.35144" lon="2.57104">
        <ele>473.799987793</ele>
        <time>2022-03-23T10:57:16Z</time>
      </trkpt>
      <trkpt lat="43.35157" lon="2.57146">
        <ele>469.399993896</ele>
        <time>2022-03-23T10:57:46Z</time>
      </trkpt>
      <trkpt lat="43.35169" lon="2.57193">
        <ele>462.399993896</ele>
        <time>2022-03-23T10:58:19Z</time>
      </trkpt>
      <trkpt lat="43.35184" lon="2.57221">
        <ele>460.799987793</ele>
        <time>2022-03-23T10:58:46Z</time>
      </trkpt>
      <trkpt lat="43.35194" lon="2.57233">
        <ele>461.399993896</ele>
        <time>2022-03-23T10:58:59Z</time>
      </trkpt>
      <trkpt lat="43.35202" lon="2.57253">
        <ele>459.399993896</ele>
        <time>2022-03-23T10:59:18Z</time>
      </trkpt>
      <trkpt lat="43.3522" lon="2.57303">
        <ele>453.799987793</ele>
        <time>2022-03-23T10:59:51Z</time>
      </trkpt>
      <trkpt lat="43.35242" lon="2.57328">
        <ele>454.200012207</ele>
        <time>2022-03-23T11:00:18Z</time>
      </trkpt>
      <trkpt lat="43.35251" lon="2.57346">
        <ele>449.799987793</ele>
        <time>2022-03-23T11:00:39Z</time>
      </trkpt>
      <trkpt lat="43.35255" lon="2.57369">
        <ele>438</ele>
        <time>2022-03-23T11:01:04Z</time>
      </trkpt>
      <trkpt lat="43.35268" lon="2.57389">
        <ele>434.799987793</ele>
        <time>2022-03-23T11:01:23Z</time>
      </trkpt>
      <trkpt lat="43.35285" lon="2.57404">
        <ele>434.200012207</ele>
        <time>2022-03-23T11:01:41Z</time>
      </trkpt>
      <trkpt lat="43.35309" lon="2.57436">
        <ele>434.600006104</ele>
        <time>2022-03-23T11:02:10Z</time>
      </trkpt>
      <trkpt lat="43.35313" lon="2.57444">
        <ele>435.399993896</ele>
        <time>2022-03-23T11:02:34Z</time>
      </trkpt>
      <trkpt lat="43.3532" lon="2.57514">
        <ele>445.799987793</ele>
        <time>2022-03-23T11:11:07Z</time>
      </trkpt>
      <trkpt lat="43.35332" lon="2.57544">
        <ele>449.200012207</ele>
        <time>2022-03-23T11:11:50Z</time>
      </trkpt>
      <trkpt lat="43.35346" lon="2.57554">
        <ele>455.799987793</ele>
        <time>2022-03-23T11:12:09Z</time>
      </trkpt>
      <trkpt lat="43.35395" lon="2.57599">
        <ele>472.200012207</ele>
        <time>2022-03-23T11:13:06Z</time>
      </trkpt>
      <trkpt lat="43.35415" lon="2.57618">
        <ele>475.600006104</ele>
        <time>2022-03-23T11:13:41Z</time>
      </trkpt>
      <trkpt lat="43.3543" lon="2.57625">
        <ele>478.200012207</ele>
        <time>2022-03-23T11:14:06Z</time>
      </trkpt>
      <trkpt lat="43.35474" lon="2.57677">
        <ele>467.799987793</ele>
        <time>2022-03-23T11:15:16Z</time>
      </trkpt>
      <trkpt lat="43.3549" lon="2.57687">
        <ele>469.600006104</ele>
        <time>2022-03-23T11:15:32Z</time>
      </trkpt>
      <trkpt lat="43.35501" lon="2.57698">
        <ele>469.200012207</ele>
        <time>2022-03-23T11:15:46Z</time>
      </trkpt>
      <trkpt lat="43.35494" lon="2.57712">
        <ele>464.399993896</ele>
        <time>2022-03-23T11:16:12Z</time>
      </trkpt>
      <trkpt lat="43.3548" lon="2.57723">
        <ele>455.200012207</ele>
        <time>2022-03-23T11:16:33Z</time>
      </trkpt>
      <trkpt lat="43.35476" lon="2.57736">
        <ele>452.799987793</ele>
        <time>2022-03-23T11:16:45Z</time>
      </trkpt>
      <trkpt lat="43.35466" lon="2.57758">
        <ele>447.799987793</ele>
        <time>2022-03-23T11:17:14Z</time>
      </trkpt>
      <trkpt lat="43.35473" lon="2.57806">
        <ele>454.200012207</ele>
        <time>2022-03-23T11:17:48Z</time>
      </trkpt>
      <trkpt lat="43.35473" lon="2.57851">
        <ele>456.200012207</ele>
        <time>2022-03-23T11:18:15Z</time>
      </trkpt>
      <trkpt lat="43.35441" lon="2.57892">
        <ele>451.399993896</ele>
        <time>2022-03-23T11:18:52Z</time>
      </trkpt>
      <trkpt lat="43.35407" lon="2.57933">
        <ele>444</ele>
        <time>2022-03-23T11:19:30Z</time>
      </trkpt>
      <trkpt lat="43.35374" lon="2.5799">
        <ele>444.600006104</ele>
        <time>2022-03-23T11:20:14Z</time>
      </trkpt>
      <trkpt lat="43.35344" lon="2.58048">
        <ele>437.399993896</ele>
        <time>2022-03-23T11:20:56Z</time>
      </trkpt>
      <trkpt lat="43.35339" lon="2.5809">
        <ele>438</ele>
        <time>2022-03-23T11:21:18Z</time>
      </trkpt>
      <trkpt lat="43.35318" lon="2.58117">
        <ele>429.600006104</ele>
        <time>2022-03-23T11:21:43Z</time>
      </trkpt>
      <trkpt lat="43.35315" lon="2.58147">
        <ele>427</ele>
        <time>2022-03-23T11:22:07Z</time>
      </trkpt>
      <trkpt lat="43.35311" lon="2.58143">
        <ele>426.399993896</ele>
        <time>2022-03-23T11:23:32Z</time>
      </trkpt>
      <trkpt lat="43.35353" lon="2.58184">
        <ele>433.200012207</ele>
        <time>2022-03-23T11:24:10Z</time>
      </trkpt>
      <trkpt lat="43.35354" lon="2.58205">
        <ele>429.600006104</ele>
        <time>2022-03-23T11:24:34Z</time>
      </trkpt>
      <trkpt lat="43.35387" lon="2.58227">
        <ele>425.200012207</ele>
        <time>2022-03-23T11:25:03Z</time>
      </trkpt>
      <trkpt lat="43.35418" lon="2.5822">
        <ele>425.200012207</ele>
        <time>2022-03-23T11:25:26Z</time>
      </trkpt>
      <trkpt lat="43.35462" lon="2.58223">
        <ele>422</ele>
        <time>2022-03-23T11:25:59Z</time>
      </trkpt>
      <trkpt lat="43.355" lon="2.58216">
        <ele>421.600006104</ele>
        <time>2022-03-23T11:26:27Z</time>
      </trkpt>
      <trkpt lat="43.35537" lon="2.58197">
        <ele>425.399993896</ele>
        <time>2022-03-23T11:27:01Z</time>
      </trkpt>
      <trkpt lat="43.35542" lon="2.58224">
        <ele>422</ele>
        <time>2022-03-23T11:27:17Z</time>
      </trkpt>
      <trkpt lat="43.35542" lon="2.5826">
        <ele>420.399993896</ele>
        <time>2022-03-23T11:27:36Z</time>
      </trkpt>
      <trkpt lat="43.35542" lon="2.58285">
        <ele>420</ele>
        <time>2022-03-23T11:27:51Z</time>
      </trkpt>
      <trkpt lat="43.35542" lon="2.58303">
        <ele>419.799987793</ele>
        <time>2022-03-23T11:28:03Z</time>
      </trkpt>
      <trkpt lat="43.35551" lon="2.58337">
        <ele>423.799987793</ele>
        <time>2022-03-23T11:28:26Z</time>
      </trkpt>
      <trkpt lat="43.35558" lon="2.5835">
        <ele>425.399993896</ele>
        <time>2022-03-23T11:28:37Z</time>
      </trkpt>
      <trkpt lat="43.35574" lon="2.58374">
        <ele>429.600006104</ele>
        <time>2022-03-23T11:28:57Z</time>
      </trkpt>
      <trkpt lat="43.35595" lon="2.58408">
        <ele>433.200012207</ele>
        <time>2022-03-23T11:29:55Z</time>
      </trkpt>
      <trkpt lat="43.35622" lon="2.58452">
        <ele>435.799987793</ele>
        <time>2022-03-23T11:30:24Z</time>
      </trkpt>
      <trkpt lat="43.35631" lon="2.5848">
        <ele>434.200012207</ele>
        <time>2022-03-23T11:30:41Z</time>
      </trkpt>
      <trkpt lat="43.35663" lon="2.58528">
        <ele>435.399993896</ele>
        <time>2022-03-23T11:31:20Z</time>
      </trkpt>
      <trkpt lat="43.35701" lon="2.58546">
        <ele>434.600006104</ele>
        <time>2022-03-23T11:31:50Z</time>
      </trkpt>
      <trkpt lat="43.35734" lon="2.5855">
        <ele>432.600006104</ele>
        <time>2022-03-23T11:32:15Z</time>
      </trkpt>
      <trkpt lat="43.35751" lon="2.58548">
        <ele>432.399993896</ele>
        <time>2022-03-23T11:32:29Z</time>
      </trkpt>
      <trkpt lat="43.35813" lon="2.58536">
        <ele>432.200012207</ele>
        <time>2022-03-23T11:33:13Z</time>
      </trkpt>
      <trkpt lat="43.35862" lon="2.58548">
        <ele>430</ele>
        <time>2022-03-23T11:33:55Z</time>
      </trkpt>
      <trkpt lat="43.35836" lon="2.58546">
        <ele>429.600006104</ele>
        <time>2022-03-23T11:35:04Z</time>
      </trkpt>
      <trkpt lat="43.35792" lon="2.58543">
        <ele>430.600006104</ele>
        <time>2022-03-23T11:35:35Z</time>
      </trkpt>
      <trkpt lat="43.35764" lon="2.58548">
        <ele>430.799987793</ele>
        <time>2022-03-23T11:35:56Z</time>
      </trkpt>
      <trkpt lat="43.3573" lon="2.58552">
        <ele>432.399993896</ele>
        <time>2022-03-23T11:36:22Z</time>
      </trkpt>
      <trkpt lat="43.35738" lon="2.58531">
        <ele>437.799987793</ele>
        <time>2022-03-23T11:36:50Z</time>
      </trkpt>
      <trkpt lat="43.35754" lon="2.58509">
        <ele>444.200012207</ele>
        <time>2022-03-23T11:37:17Z</time>
      </trkpt>
      <trkpt lat="43.35772" lon="2.5848">
        <ele>454.200012207</ele>
        <time>2022-03-23T11:37:52Z</time>
      </trkpt>
      <trkpt lat="43.35794" lon="2.5846">
        <ele>456.799987793</ele>
        <time>2022-03-23T11:38:31Z</time>
      </trkpt>
      <trkpt lat="43.3582" lon="2.58437">
        <ele>465.799987793</ele>
        <time>2022-03-23T11:39:15Z</time>
      </trkpt>
      <trkpt lat="43.35845" lon="2.58434">
        <ele>470.399993896</ele>
        <time>2022-03-23T11:39:41Z</time>
      </trkpt>
      <trkpt lat="43.35862" lon="2.58425">
        <ele>475.799987793</ele>
        <time>2022-03-23T11:40:02Z</time>
      </trkpt>
      <trkpt lat="43.35876" lon="2.5842">
        <ele>478.200012207</ele>
        <time>2022-03-23T11:40:23Z</time>
      </trkpt>
      <trkpt lat="43.35876" lon="2.58402">
        <ele>486.399993896</ele>
        <time>2022-03-23T11:41:19Z</time>
      </trkpt>
      <trkpt lat="43.35856" lon="2.5839">
        <ele>490.399993896</ele>
        <time>2022-03-23T11:41:42Z</time>
      </trkpt>
      <trkpt lat="43.35822" lon="2.58369">
        <ele>499.200012207</ele>
        <time>2022-03-23T11:42:19Z</time>
      </trkpt>
      <trkpt lat="43.35789" lon="2.58353">
        <ele>503.799987793</ele>
        <time>2022-03-23T11:42:52Z</time>
      </trkpt>
      <trkpt lat="43.35764" lon="2.58327">
        <ele>509.799987793</ele>
        <time>2022-03-23T11:43:37Z</time>
      </trkpt>
      <trkpt lat="43.35751" lon="2.583">
        <ele>515.200012207</ele>
        <time>2022-03-23T11:44:04Z</time>
      </trkpt>
      <trkpt lat="43.35744" lon="2.58281">
        <ele>517</ele>
        <time>2022-03-23T11:44:22Z</time>
      </trkpt>
      <trkpt lat="43.35747" lon="2.58239">
        <ele>524.599975586</ele>
        <time>2022-03-23T11:44:52Z</time>
      </trkpt>
      <trkpt lat="43.35748" lon="2.58195">
        <ele>528</ele>
        <time>2022-03-23T11:45:24Z</time>
      </trkpt>
      <trkpt lat="43.3575" lon="2.58167">
        <ele>530.400024414</ele>
        <time>2022-03-23T11:46:03Z</time>
      </trkpt>
      <trkpt lat="43.35752" lon="2.58142">
        <ele>532.400024414</ele>
        <time>2022-03-23T11:46:22Z</time>
      </trkpt>
      <trkpt lat="43.35749" lon="2.58086">
        <ele>537.400024414</ele>
        <time>2022-03-23T11:47:05Z</time>
      </trkpt>
      <trkpt lat="43.35743" lon="2.58053">
        <ele>541.400024414</ele>
        <time>2022-03-23T11:47:34Z</time>
      </trkpt>
      <trkpt lat="43.35744" lon="2.58011">
        <ele>547.799987793</ele>
        <time>2022-03-23T11:48:03Z</time>
      </trkpt>
      <trkpt lat="43.35744" lon="2.57975">
        <ele>551.400024414</ele>
        <time>2022-03-23T11:48:31Z</time>
      </trkpt>
      <trkpt lat="43.35744" lon="2.57956">
        <ele>552.799987793</ele>
        <time>2022-03-23T11:49:06Z</time>
      </trkpt>
      <trkpt lat="43.35739" lon="2.57909">
        <ele>556.200012207</ele>
        <time>2022-03-23T11:50:01Z</time>
      </trkpt>
      <trkpt lat="43.35736" lon="2.57845">
        <ele>559.799987793</ele>
        <time>2022-03-23T11:50:41Z</time>
      </trkpt>
      <trkpt lat="43.35735" lon="2.57809">
        <ele>561</ele>
        <time>2022-03-23T11:51:04Z</time>
      </trkpt>
      <trkpt lat="43.35744" lon="2.5776">
        <ele>566.599975586</ele>
        <time>2022-03-23T11:51:39Z</time>
      </trkpt>
      <trkpt lat="43.35739" lon="2.57718">
        <ele>564.799987793</ele>
        <time>2022-03-23T11:52:07Z</time>
      </trkpt>
      <trkpt lat="43.35747" lon="2.57683">
        <ele>566.200012207</ele>
        <time>2022-03-23T11:52:31Z</time>
      </trkpt>
      <trkpt lat="43.35763" lon="2.57716">
        <ele>572</ele>
        <time>2022-03-23T11:53:00Z</time>
      </trkpt>
      <trkpt lat="43.35788" lon="2.57758">
        <ele>575.200012207</ele>
        <time>2022-03-23T11:53:40Z</time>
      </trkpt>
      <trkpt lat="43.35817" lon="2.57754">
        <ele>580.200012207</ele>
        <time>2022-03-23T11:54:10Z</time>
      </trkpt>
      <trkpt lat="43.3585" lon="2.57779">
        <ele>583.200012207</ele>
        <time>2022-03-23T11:54:47Z</time>
      </trkpt>
      <trkpt lat="43.35888" lon="2.57765">
        <ele>587.799987793</ele>
        <time>2022-03-23T11:55:24Z</time>
      </trkpt>
      <trkpt lat="43.35924" lon="2.57723">
        <ele>590.200012207</ele>
        <time>2022-03-23T11:56:08Z</time>
      </trkpt>
      <trkpt lat="43.35929" lon="2.57715">
        <ele>589.799987793</ele>
        <time>2022-03-23T11:56:32Z</time>
      </trkpt>
      <trkpt lat="43.35945" lon="2.57699">
        <ele>589.400024414</ele>
        <time>2022-03-23T11:57:02Z</time>
      </trkpt>
      <trkpt lat="43.35959" lon="2.57684">
        <ele>590.400024414</ele>
        <time>2022-03-23T11:57:19Z</time>
      </trkpt>
      <trkpt lat="43.3596" lon="2.57688">
        <ele>590.400024414</ele>
        <time>2022-03-23T12:43:27Z</time>
      </trkpt>
      <trkpt lat="43.35964" lon="2.57644">
        <ele>590.799987793</ele>
        <time>2022-03-23T12:43:57Z</time>
      </trkpt>
      <trkpt lat="43.35967" lon="2.57594">
        <ele>590</ele>
        <time>2022-03-23T12:44:27Z</time>
      </trkpt>
      <trkpt lat="43.35978" lon="2.57536">
        <ele>590</ele>
        <time>2022-03-23T12:45:00Z</time>
      </trkpt>
      <trkpt lat="43.36001" lon="2.57524">
        <ele>590.200012207</ele>
        <time>2022-03-23T12:45:20Z</time>
      </trkpt>
      <trkpt lat="43.36023" lon="2.57477">
        <ele>592</ele>
        <time>2022-03-23T12:46:00Z</time>
      </trkpt>
      <trkpt lat="43.36041" lon="2.57457">
        <ele>592</ele>
        <time>2022-03-23T12:46:21Z</time>
      </trkpt>
      <trkpt lat="43.36045" lon="2.57439">
        <ele>593.200012207</ele>
        <time>2022-03-23T12:46:34Z</time>
      </trkpt>
      <trkpt lat="43.36045" lon="2.5741">
        <ele>597.200012207</ele>
        <time>2022-03-23T12:46:53Z</time>
      </trkpt>
      <trkpt lat="43.3606" lon="2.57395">
        <ele>598.200012207</ele>
        <time>2022-03-23T12:47:11Z</time>
      </trkpt>
      <trkpt lat="43.36079" lon="2.57391">
        <ele>598</ele>
        <time>2022-03-23T12:47:28Z</time>
      </trkpt>
      <trkpt lat="43.36114" lon="2.57371">
        <ele>595.400024414</ele>
        <time>2022-03-23T12:48:00Z</time>
      </trkpt>
      <trkpt lat="43.36133" lon="2.57349">
        <ele>593.200012207</ele>
        <time>2022-03-23T12:48:21Z</time>
      </trkpt>
      <trkpt lat="43.3614" lon="2.57313">
        <ele>594.599975586</ele>
        <time>2022-03-23T12:48:44Z</time>
      </trkpt>
      <trkpt lat="43.36151" lon="2.57266">
        <ele>596</ele>
        <time>2022-03-23T12:49:13Z</time>
      </trkpt>
      <trkpt lat="43.36166" lon="2.57235">
        <ele>596</ele>
        <time>2022-03-23T12:49:35Z</time>
      </trkpt>
      <trkpt lat="43.36168" lon="2.57224">
        <ele>596.599975586</ele>
        <time>2022-03-23T12:49:55Z</time>
      </trkpt>
      <trkpt lat="43.36152" lon="2.57261">
        <ele>596.400024414</ele>
        <time>2022-03-23T12:52:16Z</time>
      </trkpt>
      <trkpt lat="43.36145" lon="2.5729">
        <ele>596</ele>
        <time>2022-03-23T12:52:32Z</time>
      </trkpt>
      <trkpt lat="43.3614" lon="2.57318">
        <ele>594.200012207</ele>
        <time>2022-03-23T12:52:51Z</time>
      </trkpt>
      <trkpt lat="43.36133" lon="2.57351">
        <ele>593.200012207</ele>
        <time>2022-03-23T12:53:08Z</time>
      </trkpt>
      <trkpt lat="43.36118" lon="2.5737">
        <ele>594.799987793</ele>
        <time>2022-03-23T12:53:23Z</time>
      </trkpt>
      <trkpt lat="43.36085" lon="2.57386">
        <ele>597.400024414</ele>
        <time>2022-03-23T12:53:48Z</time>
      </trkpt>
      <trkpt lat="43.36066" lon="2.5739">
        <ele>598.599975586</ele>
        <time>2022-03-23T12:54:05Z</time>
      </trkpt>
      <trkpt lat="43.36044" lon="2.57409">
        <ele>597.400024414</ele>
        <time>2022-03-23T12:54:25Z</time>
      </trkpt>
      <trkpt lat="43.36034" lon="2.57464">
        <ele>592</ele>
        <time>2022-03-23T12:54:59Z</time>
      </trkpt>
      <trkpt lat="43.36024" lon="2.57492">
        <ele>591.400024414</ele>
        <time>2022-03-23T12:55:18Z</time>
      </trkpt>
      <trkpt lat="43.36004" lon="2.57525">
        <ele>590</ele>
        <time>2022-03-23T12:55:44Z</time>
      </trkpt>
      <trkpt lat="43.3598" lon="2.57536">
        <ele>590</ele>
        <time>2022-03-23T12:56:03Z</time>
      </trkpt>
      <trkpt lat="43.35988" lon="2.57577">
        <ele>590</ele>
        <time>2022-03-23T12:56:35Z</time>
      </trkpt>
      <trkpt lat="43.36009" lon="2.57591">
        <ele>590.200012207</ele>
        <time>2022-03-23T12:56:56Z</time>
      </trkpt>
      <trkpt lat="43.36023" lon="2.57603">
        <ele>590.599975586</ele>
        <time>2022-03-23T12:57:11Z</time>
      </trkpt>
      <trkpt lat="43.36042" lon="2.57611">
        <ele>590.200012207</ele>
        <time>2022-03-23T12:57:28Z</time>
      </trkpt>
      <trkpt lat="43.36091" lon="2.57635">
        <ele>592</ele>
        <time>2022-03-23T12:58:11Z</time>
      </trkpt>
      <trkpt lat="43.36134" lon="2.57623">
        <ele>593.200012207</ele>
        <time>2022-03-23T12:58:51Z</time>
      </trkpt>
      <trkpt lat="43.36153" lon="2.57629">
        <ele>594.200012207</ele>
        <time>2022-03-23T12:59:10Z</time>
      </trkpt>
      <trkpt lat="43.36177" lon="2.57636">
        <ele>595.400024414</ele>
        <time>2022-03-23T12:59:33Z</time>
      </trkpt>
      <trkpt lat="43.3742" lon="2.57612">
        <ele>585</ele>
        <time>2022-03-23T13:36:22Z</time>
      </trkpt>
      <trkpt lat="43.37442" lon="2.57618">
        <ele>585.599975586</ele>
        <time>2022-03-23T13:36:47Z</time>
      </trkpt>
      <trkpt lat="43.37473" lon="2.57625">
        <ele>587.200012207</ele>
        <time>2022-03-23T13:37:10Z</time>
      </trkpt>
      <trkpt lat="43.37497" lon="2.57634">
        <ele>587.599975586</ele>
        <time>2022-03-23T13:37:29Z</time>
      </trkpt>
      <trkpt lat="43.37515" lon="2.57641">
        <ele>589</ele>
        <time>2022-03-23T13:37:44Z</time>
      </trkpt>
      <trkpt lat="43.37538" lon="2.57652">
        <ele>592</ele>
        <time>2022-03-23T13:38:03Z</time>
      </trkpt>
      <trkpt lat="43.37577" lon="2.57632">
        <ele>604</ele>
        <time>2022-03-23T13:38:41Z</time>
      </trkpt>
      <trkpt lat="43.37616" lon="2.57629">
        <ele>609.799987793</ele>
        <time>2022-03-23T13:39:14Z</time>
      </trkpt>
      <trkpt lat="43.3765" lon="2.57659">
        <ele>611</ele>
        <time>2022-03-23T13:39:43Z</time>
      </trkpt>
      <trkpt lat="43.37657" lon="2.57674">
        <ele>611</ele>
        <time>2022-03-23T13:39:56Z</time>
      </trkpt>
      <trkpt lat="43.37794" lon="2.5814">
        <ele>643.200012207</ele>
        <time>2022-03-23T13:50:20Z</time>
      </trkpt>
      <trkpt lat="43.37817" lon="2.58155">
        <ele>644.200012207</ele>
        <time>2022-03-23T13:50:39Z</time>
      </trkpt>
      <trkpt lat="43.37857" lon="2.58155">
        <ele>649.400024414</ele>
        <time>2022-03-23T13:51:13Z</time>
      </trkpt>
      <trkpt lat="43.37873" lon="2.58126">
        <ele>656.400024414</ele>
        <time>2022-03-23T13:51:34Z</time>
      </trkpt>
      <trkpt lat="43.37896" lon="2.58116">
        <ele>660.599975586</ele>
        <time>2022-03-23T13:51:55Z</time>
      </trkpt>
      <trkpt lat="43.37927" lon="2.58114">
        <ele>664.400024414</ele>
        <time>2022-03-23T13:52:19Z</time>
      </trkpt>
      <trkpt lat="43.37977" lon="2.58135">
        <ele>670.400024414</ele>
        <time>2022-03-23T13:53:01Z</time>
      </trkpt>
      <trkpt lat="43.38002" lon="2.58185">
        <ele>671.799987793</ele>
        <time>2022-03-23T13:53:39Z</time>
      </trkpt>
      <trkpt lat="43.38021" lon="2.58215">
        <ele>675.400024414</ele>
        <time>2022-03-23T13:54:05Z</time>
      </trkpt>
      <trkpt lat="43.38041" lon="2.58256">
        <ele>679.200012207</ele>
        <time>2022-03-23T13:54:35Z</time>
      </trkpt>
      <trkpt lat="43.3805" lon="2.58286">
        <ele>682.599975586</ele>
        <time>2022-03-23T13:54:58Z</time>
      </trkpt>
      <trkpt lat="43.38063" lon="2.58276">
        <ele>685.200012207</ele>
        <time>2022-03-23T13:55:19Z</time>
      </trkpt>
      <trkpt lat="43.38067" lon="2.58226">
        <ele>686.200012207</ele>
        <time>2022-03-23T13:55:49Z</time>
      </trkpt>
      <trkpt lat="43.38083" lon="2.58223">
        <ele>691</ele>
        <time>2022-03-23T13:56:07Z</time>
      </trkpt>
      <trkpt lat="43.38093" lon="2.58246">
        <ele>692.400024414</ele>
        <time>2022-03-23T13:56:25Z</time>
      </trkpt>
      <trkpt lat="43.38101" lon="2.58282">
        <ele>693.400024414</ele>
        <time>2022-03-23T13:56:49Z</time>
      </trkpt>
      <trkpt lat="43.38106" lon="2.5832">
        <ele>695</ele>
        <time>2022-03-23T13:57:12Z</time>
      </trkpt>
      <trkpt lat="43.38122" lon="2.58351">
        <ele>700.200012207</ele>
        <time>2022-03-23T13:57:33Z</time>
      </trkpt>
      <trkpt lat="43.38139" lon="2.58388">
        <ele>704.799987793</ele>
        <time>2022-03-23T13:58:00Z</time>
      </trkpt>
      <trkpt lat="43.3815" lon="2.58408">
        <ele>706.799987793</ele>
        <time>2022-03-23T13:58:17Z</time>
      </trkpt>
      <trkpt lat="43.38162" lon="2.58421">
        <ele>709</ele>
        <time>2022-03-23T13:58:31Z</time>
      </trkpt>
      <trkpt lat="43.38177" lon="2.58455">
        <ele>712.599975586</ele>
        <time>2022-03-23T13:58:55Z</time>
      </trkpt>
      <trkpt lat="43.38172" lon="2.58476">
        <ele>713.400024414</ele>
        <time>2022-03-23T13:59:08Z</time>
      </trkpt>
      <trkpt lat="43.38157" lon="2.58491">
        <ele>713</ele>
        <time>2022-03-23T13:59:21Z</time>
      </trkpt>
      <trkpt lat="43.38132" lon="2.58485">
        <ele>709.799987793</ele>
        <time>2022-03-23T13:59:40Z</time>
      </trkpt>
      <trkpt lat="43.38121" lon="2.58493">
        <ele>709.599975586</ele>
        <time>2022-03-23T13:59:58Z</time>
      </trkpt>
      <trkpt lat="43.38149" lon="2.58515">
        <ele>714.799987793</ele>
        <time>2022-03-23T14:00:24Z</time>
      </trkpt>
      <trkpt lat="43.38176" lon="2.58537">
        <ele>719.599975586</ele>
        <time>2022-03-23T14:00:47Z</time>
      </trkpt>
      <trkpt lat="43.38194" lon="2.58542">
        <ele>721.599975586</ele>
        <time>2022-03-23T14:01:04Z</time>
      </trkpt>
      <trkpt lat="43.38214" lon="2.58552">
        <ele>724.400024414</ele>
        <time>2022-03-23T14:01:22Z</time>
      </trkpt>
      <trkpt lat="43.3824" lon="2.58567">
        <ele>728.400024414</ele>
        <time>2022-03-23T14:01:41Z</time>
      </trkpt>
      <trkpt lat="43.38261" lon="2.58577">
        <ele>730.799987793</ele>
        <time>2022-03-23T14:02:01Z</time>
      </trkpt>
      <trkpt lat="43.38277" lon="2.58584">
        <ele>732</ele>
        <time>2022-03-23T14:02:17Z</time>
      </trkpt>
      <trkpt lat="43.38299" lon="2.58605">
        <ele>732.599975586</ele>
        <time>2022-03-23T14:02:39Z</time>
      </trkpt>
      <trkpt lat="43.38323" lon="2.58613">
        <ele>733.799987793</ele>
        <time>2022-03-23T14:02:59Z</time>
      </trkpt>
      <trkpt lat="43.38352" lon="2.58635">
        <ele>734.799987793</ele>
        <time>2022-03-23T14:03:22Z</time>
      </trkpt>
      <trkpt lat="43.38375" lon="2.5866">
        <ele>735.599975586</ele>
        <time>2022-03-23T14:03:59Z</time>
      </trkpt>
      <trkpt lat="43.38406" lon="2.58707">
        <ele>735.599975586</ele>
        <time>2022-03-23T14:04:34Z</time>
      </trkpt>
      <trkpt lat="43.38427" lon="2.58743">
        <ele>735.400024414</ele>
        <time>2022-03-23T14:05:03Z</time>
      </trkpt>
      <trkpt lat="43.38448" lon="2.58772">
        <ele>733.599975586</ele>
        <time>2022-03-23T14:05:26Z</time>
      </trkpt>
      <trkpt lat="43.38494" lon="2.58816">
        <ele>731.599975586</ele>
        <time>2022-03-23T14:06:08Z</time>
      </trkpt>
      <trkpt lat="43.3855" lon="2.58859">
        <ele>732.799987793</ele>
        <time>2022-03-23T14:06:53Z</time>
      </trkpt>
      <trkpt lat="43.38575" lon="2.58888">
        <ele>732.200012207</ele>
        <time>2022-03-23T14:07:17Z</time>
      </trkpt>
      <trkpt lat="43.38617" lon="2.58925">
        <ele>731.799987793</ele>
        <time>2022-03-23T14:07:54Z</time>
      </trkpt>
      <trkpt lat="43.3866" lon="2.58903">
        <ele>729.799987793</ele>
        <time>2022-03-23T14:08:28Z</time>
      </trkpt>
      <trkpt lat="43.38683" lon="2.58879">
        <ele>729</ele>
        <time>2022-03-23T14:08:49Z</time>
      </trkpt>
      <trkpt lat="43.38707" lon="2.58848">
        <ele>728.599975586</ele>
        <time>2022-03-23T14:09:11Z</time>
      </trkpt>
      <trkpt lat="43.38717" lon="2.58833">
        <ele>728.799987793</ele>
        <time>2022-03-23T14:09:27Z</time>
      </trkpt>
      <trkpt lat="43.38745" lon="2.58825">
        <ele>729</ele>
        <time>2022-03-23T14:09:58Z</time>
      </trkpt>
      <trkpt lat="43.38792" lon="2.58806">
        <ele>729.599975586</ele>
        <time>2022-03-23T14:10:38Z</time>
      </trkpt>
      <trkpt lat="43.38827" lon="2.58787">
        <ele>731.599975586</ele>
        <time>2022-03-23T14:11:05Z</time>
      </trkpt>
      <trkpt lat="43.38834" lon="2.58782">
        <ele>731.799987793</ele>
        <time>2022-03-23T14:11:24Z</time>
      </trkpt>
      <trkpt lat="43.38869" lon="2.58763">
        <ele>731.200012207</ele>
        <time>2022-03-23T14:11:56Z</time>
      </trkpt>
      <trkpt lat="43.38896" lon="2.58737">
        <ele>732.200012207</ele>
        <time>2022-03-23T14:12:19Z</time>
      </trkpt>
      <trkpt lat="43.3893" lon="2.58705">
        <ele>733.200012207</ele>
        <time>2022-03-23T14:12:50Z</time>
      </trkpt>
      <trkpt lat="43.38958" lon="2.58682">
        <ele>731.200012207</ele>
        <time>2022-03-23T14:13:14Z</time>
      </trkpt>
      <trkpt lat="43.38972" lon="2.58651">
        <ele>729.400024414</ele>
        <time>2022-03-23T14:13:35Z</time>
      </trkpt>
      <trkpt lat="43.38989" lon="2.58601">
        <ele>728.200012207</ele>
        <time>2022-03-23T14:14:08Z</time>
      </trkpt>
      <trkpt lat="43.39" lon="2.58589">
        <ele>726.400024414</ele>
        <time>2022-03-23T14:14:38Z</time>
      </trkpt>
      <trkpt lat="43.39017" lon="2.58541">
        <ele>723.400024414</ele>
        <time>2022-03-23T14:15:07Z</time>
      </trkpt>
      <trkpt lat="43.39027" lon="2.58504">
        <ele>723.200012207</ele>
        <time>2022-03-23T14:15:29Z</time>
      </trkpt>
      <trkpt lat="43.39037" lon="2.58514">
        <ele>719.799987793</ele>
        <time>2022-03-23T14:15:56Z</time>
      </trkpt>
      <trkpt lat="43.39033" lon="2.58565">
        <ele>719.200012207</ele>
        <time>2022-03-23T14:16:24Z</time>
      </trkpt>
      <trkpt lat="43.39028" lon="2.58606">
        <ele>720.599975586</ele>
        <time>2022-03-23T14:16:46Z</time>
      </trkpt>
      <trkpt lat="43.39038" lon="2.58648">
        <ele>719.799987793</ele>
        <time>2022-03-23T14:17:09Z</time>
      </trkpt>
      <trkpt lat="43.39052" lon="2.58687">
        <ele>718.400024414</ele>
        <time>2022-03-23T14:17:32Z</time>
      </trkpt>
      <trkpt lat="43.39079" lon="2.58708">
        <ele>717.599975586</ele>
        <time>2022-03-23T14:18:03Z</time>
      </trkpt>
      <trkpt lat="43.39116" lon="2.58719">
        <ele>717.799987793</ele>
        <time>2022-03-23T14:18:36Z</time>
      </trkpt>
      <trkpt lat="43.39161" lon="2.58713">
        <ele>720.400024414</ele>
        <time>2022-03-23T14:19:13Z</time>
      </trkpt>
      <trkpt lat="43.39187" lon="2.58718">
        <ele>720.799987793</ele>
        <time>2022-03-23T14:19:33Z</time>
      </trkpt>
      <trkpt lat="43.39213" lon="2.58748">
        <ele>727</ele>
        <time>2022-03-23T14:20:04Z</time>
      </trkpt>
      <trkpt lat="43.39222" lon="2.58747">
        <ele>726.599975586</ele>
        <time>2022-03-23T14:20:17Z</time>
      </trkpt>
      <trkpt lat="43.3925" lon="2.58749">
        <ele>728.200012207</ele>
        <time>2022-03-23T14:20:56Z</time>
      </trkpt>
      <trkpt lat="43.39288" lon="2.5875">
        <ele>729.799987793</ele>
        <time>2022-03-23T14:21:24Z</time>
      </trkpt>
      <trkpt lat="43.39308" lon="2.58767">
        <ele>733.400024414</ele>
        <time>2022-03-23T14:21:46Z</time>
      </trkpt>
      <trkpt lat="43.39318" lon="2.58787">
        <ele>736.799987793</ele>
        <time>2022-03-23T14:22:00Z</time>
      </trkpt>
      <trkpt lat="43.39334" lon="2.58798">
        <ele>739</ele>
        <time>2022-03-23T14:22:16Z</time>
      </trkpt>
      <trkpt lat="43.39356" lon="2.58794">
        <ele>739.799987793</ele>
        <time>2022-03-23T14:22:36Z</time>
      </trkpt>
      <trkpt lat="43.39368" lon="2.58789">
        <ele>741.599975586</ele>
        <time>2022-03-23T14:22:48Z</time>
      </trkpt>
      <trkpt lat="43.39386" lon="2.58787">
        <ele>746</ele>
        <time>2022-03-23T14:23:13Z</time>
      </trkpt>
      <trkpt lat="43.39407" lon="2.5877">
        <ele>751.599975586</ele>
        <time>2022-03-23T14:24:19Z</time>
      </trkpt>
      <trkpt lat="43.39426" lon="2.58752">
        <ele>756.599975586</ele>
        <time>2022-03-23T14:24:45Z</time>
      </trkpt>
      <trkpt lat="43.39444" lon="2.58739">
        <ele>760.799987793</ele>
        <time>2022-03-23T14:25:07Z</time>
      </trkpt>
      <trkpt lat="43.39474" lon="2.58717">
        <ele>765.799987793</ele>
        <time>2022-03-23T14:25:39Z</time>
      </trkpt>
      <trkpt lat="43.39487" lon="2.58707">
        <ele>767.400024414</ele>
        <time>2022-03-23T14:25:54Z</time>
      </trkpt>
      <trkpt lat="43.39509" lon="2.58688">
        <ele>772.200012207</ele>
        <time>2022-03-23T14:26:23Z</time>
      </trkpt>
      <trkpt lat="43.39534" lon="2.58667">
        <ele>779.799987793</ele>
        <time>2022-03-23T14:26:56Z</time>
      </trkpt>
      <trkpt lat="43.39552" lon="2.58649">
        <ele>785.599975586</ele>
        <time>2022-03-23T14:27:35Z</time>
      </trkpt>
      <trkpt lat="43.39569" lon="2.58632">
        <ele>791.599975586</ele>
        <time>2022-03-23T14:27:58Z</time>
      </trkpt>
      <trkpt lat="43.39602" lon="2.58568">
        <ele>804.599975586</ele>
        <time>2022-03-23T14:29:02Z</time>
      </trkpt>
      <trkpt lat="43.39616" lon="2.58538">
        <ele>811</ele>
        <time>2022-03-23T14:29:53Z</time>
      </trkpt>
      <trkpt lat="43.39631" lon="2.58493">
        <ele>817.200012207</ele>
        <time>2022-03-23T14:30:34Z</time>
      </trkpt>
      <trkpt lat="43.39649" lon="2.58447">
        <ele>822.200012207</ele>
        <time>2022-03-23T14:31:15Z</time>
      </trkpt>
      <trkpt lat="43.39671" lon="2.58411">
        <ele>829.400024414</ele>
        <time>2022-03-23T14:31:54Z</time>
      </trkpt>
      <trkpt lat="43.39694" lon="2.58376">
        <ele>837</ele>
        <time>2022-03-23T14:32:38Z</time>
      </trkpt>
      <trkpt lat="43.39716" lon="2.58326">
        <ele>841.799987793</ele>
        <time>2022-03-23T14:33:20Z</time>
      </trkpt>
      <trkpt lat="43.39738" lon="2.58281">
        <ele>846.400024414</ele>
        <time>2022-03-23T14:33:56Z</time>
      </trkpt>
      <trkpt lat="43.39763" lon="2.58223">
        <ele>851.400024414</ele>
        <time>2022-03-23T14:34:43Z</time>
      </trkpt>
      <trkpt lat="43.39774" lon="2.58194">
        <ele>853.400024414</ele>
        <time>2022-03-23T14:35:13Z</time>
      </trkpt>
      <trkpt lat="43.39785" lon="2.5816">
        <ele>857.599975586</ele>
        <time>2022-03-23T14:35:38Z</time>
      </trkpt>
      <trkpt lat="43.39798" lon="2.58105">
        <ele>862.400024414</ele>
        <time>2022-03-23T14:38:16Z</time>
      </trkpt>
      <trkpt lat="43.39801" lon="2.58091">
        <ele>862.799987793</ele>
        <time>2022-03-23T14:38:25Z</time>
      </trkpt>
      <trkpt lat="43.39808" lon="2.58062">
        <ele>864.799987793</ele>
        <time>2022-03-23T14:38:43Z</time>
      </trkpt>
      <trkpt lat="43.39823" lon="2.58011">
        <ele>868</ele>
        <time>2022-03-23T14:39:14Z</time>
      </trkpt>
      <trkpt lat="43.3984" lon="2.57989">
        <ele>869.599975586</ele>
        <time>2022-03-23T14:39:38Z</time>
      </trkpt>
      <trkpt lat="43.39868" lon="2.57996">
        <ele>868.200012207</ele>
        <time>2022-03-23T14:40:03Z</time>
      </trkpt>
      <trkpt lat="43.39885" lon="2.58031">
        <ele>865.200012207</ele>
        <time>2022-03-23T14:40:28Z</time>
      </trkpt>
      <trkpt lat="43.39914" lon="2.58088">
        <ele>858.200012207</ele>
        <time>2022-03-23T14:41:03Z</time>
      </trkpt>
      <trkpt lat="43.39924" lon="2.58113">
        <ele>856.400024414</ele>
        <time>2022-03-23T14:41:20Z</time>
      </trkpt>
      <trkpt lat="43.39936" lon="2.58154">
        <ele>854.200012207</ele>
        <time>2022-03-23T14:41:44Z</time>
      </trkpt>
      <trkpt lat="43.3995" lon="2.58179">
        <ele>849.599975586</ele>
        <time>2022-03-23T14:42:01Z</time>
      </trkpt>
      <trkpt lat="43.3997" lon="2.58223">
        <ele>844.799987793</ele>
        <time>2022-03-23T14:42:30Z</time>
      </trkpt>
      <trkpt lat="43.39984" lon="2.58273">
        <ele>841.799987793</ele>
        <time>2022-03-23T14:42:59Z</time>
      </trkpt>
      <trkpt lat="43.39992" lon="2.58301">
        <ele>838.799987793</ele>
        <time>2022-03-23T14:43:16Z</time>
      </trkpt>
      <trkpt lat="43.4" lon="2.58327">
        <ele>836.400024414</ele>
        <time>2022-03-23T14:43:33Z</time>
      </trkpt>
      <trkpt lat="43.4001" lon="2.58361">
        <ele>835.599975586</ele>
        <time>2022-03-23T14:43:53Z</time>
      </trkpt>
      <trkpt lat="43.40015" lon="2.58375">
        <ele>836.200012207</ele>
        <time>2022-03-23T14:44:02Z</time>
      </trkpt>
      <trkpt lat="43.40016" lon="2.58377">
        <ele>836.400024414</ele>
        <time>2022-03-23T14:44:26Z</time>
      </trkpt>
      <trkpt lat="43.40048" lon="2.58422">
        <ele>829</ele>
        <time>2022-03-23T14:45:09Z</time>
      </trkpt>
      <trkpt lat="43.4007" lon="2.58474">
        <ele>836.400024414</ele>
        <time>2022-03-23T14:45:39Z</time>
      </trkpt>
      <trkpt lat="43.40098" lon="2.58528">
        <ele>835.400024414</ele>
        <time>2022-03-23T14:46:13Z</time>
      </trkpt>
      <trkpt lat="43.40142" lon="2.58578">
        <ele>833.200012207</ele>
        <time>2022-03-23T14:46:55Z</time>
      </trkpt>
      <trkpt lat="43.40178" lon="2.58608">
        <ele>832</ele>
        <time>2022-03-23T14:47:25Z</time>
      </trkpt>
      <trkpt lat="43.40223" lon="2.58659">
        <ele>829.799987793</ele>
        <time>2022-03-23T14:48:06Z</time>
      </trkpt>
      <trkpt lat="43.40249" lon="2.58702">
        <ele>829.799987793</ele>
        <time>2022-03-23T14:48:34Z</time>
      </trkpt>
      <trkpt lat="43.40268" lon="2.58737">
        <ele>829</ele>
        <time>2022-03-23T14:48:56Z</time>
      </trkpt>
      <trkpt lat="43.40294" lon="2.588">
        <ele>827.599975586</ele>
        <time>2022-03-23T14:49:32Z</time>
      </trkpt>
      <trkpt lat="43.40304" lon="2.5883">
        <ele>829.400024414</ele>
        <time>2022-03-23T14:49:49Z</time>
      </trkpt>
      <trkpt lat="43.40326" lon="2.58908">
        <ele>843.400024414</ele>
        <time>2022-03-23T14:50:31Z</time>
      </trkpt>
      <trkpt lat="43.40357" lon="2.58936">
        <ele>841.400024414</ele>
        <time>2022-03-23T14:51:09Z</time>
      </trkpt>
      <trkpt lat="43.40401" lon="2.58952">
        <ele>839.200012207</ele>
        <time>2022-03-23T14:51:43Z</time>
      </trkpt>
      <trkpt lat="43.40448" lon="2.58962">
        <ele>843.799987793</ele>
        <time>2022-03-23T14:52:17Z</time>
      </trkpt>
      <trkpt lat="43.40463" lon="2.58965">
        <ele>846.799987793</ele>
        <time>2022-03-23T14:52:30Z</time>
      </trkpt>
      <trkpt lat="43.40464" lon="2.5896">
        <ele>844.799987793</ele>
        <time>2022-03-23T15:01:21Z</time>
      </trkpt>
      <trkpt lat="43.40483" lon="2.58939">
        <ele>842.400024414</ele>
        <time>2022-03-23T15:01:38Z</time>
      </trkpt>
      <trkpt lat="43.40512" lon="2.5892">
        <ele>840.799987793</ele>
        <time>2022-03-23T15:02:01Z</time>
      </trkpt>
      <trkpt lat="43.40527" lon="2.58913">
        <ele>840.799987793</ele>
        <time>2022-03-23T15:02:13Z</time>
      </trkpt>
      <trkpt lat="43.4058" lon="2.58913">
        <ele>848</ele>
        <time>2022-03-23T15:02:49Z</time>
      </trkpt>
      <trkpt lat="43.40604" lon="2.5891">
        <ele>845.200012207</ele>
        <time>2022-03-23T15:03:07Z</time>
      </trkpt>
      <trkpt lat="43.40656" lon="2.58928">
        <ele>848.200012207</ele>
        <time>2022-03-23T15:03:46Z</time>
      </trkpt>
      <trkpt lat="43.40716" lon="2.58971">
        <ele>849.799987793</ele>
        <time>2022-03-23T15:04:33Z</time>
      </trkpt>
      <trkpt lat="43.40761" lon="2.59022">
        <ele>855.400024414</ele>
        <time>2022-03-23T15:05:14Z</time>
      </trkpt>
      <trkpt lat="43.4079" lon="2.59043">
        <ele>856.799987793</ele>
        <time>2022-03-23T15:05:39Z</time>
      </trkpt>
      <trkpt lat="43.40832" lon="2.59066">
        <ele>858.200012207</ele>
        <time>2022-03-23T15:06:17Z</time>
      </trkpt>
      <trkpt lat="43.40866" lon="2.591">
        <ele>866.599975586</ele>
        <time>2022-03-23T15:07:27Z</time>
      </trkpt>
      <trkpt lat="43.40888" lon="2.59133">
        <ele>873</ele>
        <time>2022-03-23T15:07:50Z</time>
      </trkpt>
      <trkpt lat="43.40913" lon="2.5917">
        <ele>882.200012207</ele>
        <time>2022-03-23T15:08:20Z</time>
      </trkpt>
      <trkpt lat="43.40932" lon="2.59181">
        <ele>887.400024414</ele>
        <time>2022-03-23T15:08:43Z</time>
      </trkpt>
      <trkpt lat="43.40958" lon="2.59157">
        <ele>888.400024414</ele>
        <time>2022-03-23T15:09:05Z</time>
      </trkpt>
      <trkpt lat="43.40975" lon="2.59123">
        <ele>887</ele>
        <time>2022-03-23T15:09:29Z</time>
      </trkpt>
      <trkpt lat="43.41" lon="2.59077">
        <ele>889.200012207</ele>
        <time>2022-03-23T15:09:58Z</time>
      </trkpt>
      <trkpt lat="43.41024" lon="2.59047">
        <ele>892.400024414</ele>
        <time>2022-03-23T15:10:21Z</time>
      </trkpt>
      <trkpt lat="43.41048" lon="2.59019">
        <ele>896.799987793</ele>
        <time>2022-03-23T15:10:46Z</time>
      </trkpt>
      <trkpt lat="43.41075" lon="2.58992">
        <ele>903.799987793</ele>
        <time>2022-03-23T15:11:08Z</time>
      </trkpt>
      <trkpt lat="43.41079" lon="2.58924">
        <ele>904.200012207</ele>
        <time>2022-03-23T15:11:48Z</time>
      </trkpt>
      <trkpt lat="43.41067" lon="2.58886">
        <ele>905.400024414</ele>
        <time>2022-03-23T15:12:11Z</time>
      </trkpt>
      <trkpt lat="43.41049" lon="2.58855">
        <ele>903.200012207</ele>
        <time>2022-03-23T15:12:32Z</time>
      </trkpt>
      <trkpt lat="43.41037" lon="2.58787">
        <ele>904.200012207</ele>
        <time>2022-03-23T15:13:07Z</time>
      </trkpt>
      <trkpt lat="43.41034" lon="2.58753">
        <ele>904.200012207</ele>
        <time>2022-03-23T15:14:12Z</time>
      </trkpt>
      <trkpt lat="43.41038" lon="2.58722">
        <ele>906.799987793</ele>
        <time>2022-03-23T15:14:28Z</time>
      </trkpt>
      <trkpt lat="43.41044" lon="2.58688">
        <ele>907.599975586</ele>
        <time>2022-03-23T15:14:47Z</time>
      </trkpt>
      <trkpt lat="43.41035" lon="2.58654">
        <ele>897.799987793</ele>
        <time>2022-03-23T15:15:04Z</time>
      </trkpt>
      <trkpt lat="43.41023" lon="2.58586">
        <ele>892.799987793</ele>
        <time>2022-03-23T15:15:37Z</time>
      </trkpt>
      <trkpt lat="43.41014" lon="2.58566">
        <ele>890.799987793</ele>
        <time>2022-03-23T15:15:51Z</time>
      </trkpt>
      <trkpt lat="43.4099" lon="2.58506">
        <ele>885.799987793</ele>
        <time>2022-03-23T15:16:23Z</time>
      </trkpt>
      <trkpt lat="43.40967" lon="2.58473">
        <ele>879.400024414</ele>
        <time>2022-03-23T15:16:45Z</time>
      </trkpt>
      <trkpt lat="43.40935" lon="2.5842">
        <ele>876.799987793</ele>
        <time>2022-03-23T15:17:19Z</time>
      </trkpt>
      <trkpt lat="43.40913" lon="2.58346">
        <ele>873.599975586</ele>
        <time>2022-03-23T15:17:57Z</time>
      </trkpt>
      <trkpt lat="43.40954" lon="2.58312">
        <ele>873.799987793</ele>
        <time>2022-03-23T15:18:29Z</time>
      </trkpt>
      <trkpt lat="43.40988" lon="2.58291">
        <ele>874</ele>
        <time>2022-03-23T15:18:54Z</time>
      </trkpt>
      <trkpt lat="43.41016" lon="2.58267">
        <ele>873.599975586</ele>
        <time>2022-03-23T15:19:16Z</time>
      </trkpt>
      <trkpt lat="43.41047" lon="2.58246">
        <ele>875.799987793</ele>
        <time>2022-03-23T15:19:40Z</time>
      </trkpt>
      <trkpt lat="43.41067" lon="2.58219">
        <ele>873.400024414</ele>
        <time>2022-03-23T15:19:56Z</time>
      </trkpt>
      <trkpt lat="43.41088" lon="2.58191">
        <ele>873.400024414</ele>
        <time>2022-03-23T15:20:16Z</time>
      </trkpt>
      <trkpt lat="43.41112" lon="2.58126">
        <ele>872.400024414</ele>
        <time>2022-03-23T15:20:51Z</time>
      </trkpt>
      <trkpt lat="43.41106" lon="2.58078">
        <ele>872</ele>
        <time>2022-03-23T15:21:15Z</time>
      </trkpt>
      <trkpt lat="43.41093" lon="2.58019">
        <ele>870.599975586</ele>
        <time>2022-03-23T15:21:47Z</time>
      </trkpt>
      <trkpt lat="43.41066" lon="2.57987">
        <ele>866</ele>
        <time>2022-03-23T15:22:11Z</time>
      </trkpt>
      <trkpt lat="43.41041" lon="2.57921">
        <ele>864.400024414</ele>
        <time>2022-03-23T15:22:48Z</time>
      </trkpt>
      <trkpt lat="43.41091" lon="2.57864">
        <ele>869.400024414</ele>
        <time>2022-03-23T15:23:32Z</time>
      </trkpt>
      <trkpt lat="43.41148" lon="2.57836">
        <ele>872</ele>
        <time>2022-03-23T15:24:12Z</time>
      </trkpt>
      <trkpt lat="43.41183" lon="2.57794">
        <ele>870.400024414</ele>
        <time>2022-03-23T15:24:46Z</time>
      </trkpt>
      <trkpt lat="43.41234" lon="2.57747">
        <ele>873.400024414</ele>
        <time>2022-03-23T15:25:29Z</time>
      </trkpt>
      <trkpt lat="43.41273" lon="2.57727">
        <ele>872.599975586</ele>
        <time>2022-03-23T15:26:01Z</time>
      </trkpt>
      <trkpt lat="43.4132" lon="2.57731">
        <ele>875.799987793</ele>
        <time>2022-03-23T15:26:35Z</time>
      </trkpt>
      <trkpt lat="43.41347" lon="2.57736">
        <ele>880</ele>
        <time>2022-03-23T15:26:55Z</time>
      </trkpt>
      <trkpt lat="43.41386" lon="2.57724">
        <ele>878.799987793</ele>
        <time>2022-03-23T15:27:23Z</time>
      </trkpt>
      <trkpt lat="43.41448" lon="2.57714">
        <ele>881.799987793</ele>
        <time>2022-03-23T15:28:04Z</time>
      </trkpt>
      <trkpt lat="43.41492" lon="2.57706">
        <ele>884.599975586</ele>
        <time>2022-03-23T15:28:33Z</time>
      </trkpt>
      <trkpt lat="43.41542" lon="2.577">
        <ele>887.200012207</ele>
        <time>2022-03-23T15:29:10Z</time>
      </trkpt>
      <trkpt lat="43.4159" lon="2.57688">
        <ele>888.400024414</ele>
        <time>2022-03-23T15:29:46Z</time>
      </trkpt>
      <trkpt lat="43.41616" lon="2.57675">
        <ele>890.200012207</ele>
        <time>2022-03-23T15:30:04Z</time>
      </trkpt>
      <trkpt lat="43.41662" lon="2.57658">
        <ele>891.400024414</ele>
        <time>2022-03-23T15:30:39Z</time>
      </trkpt>
      <trkpt lat="43.41697" lon="2.57635">
        <ele>892.599975586</ele>
        <time>2022-03-23T15:31:05Z</time>
      </trkpt>
      <trkpt lat="43.41733" lon="2.57599">
        <ele>891.200012207</ele>
        <time>2022-03-23T15:31:37Z</time>
      </trkpt>
      <trkpt lat="43.41752" lon="2.57578">
        <ele>891.799987793</ele>
        <time>2022-03-23T15:32:11Z</time>
      </trkpt>
      <trkpt lat="43.41762" lon="2.5756">
        <ele>889</ele>
        <time>2022-03-23T15:33:00Z</time>
      </trkpt>
      <trkpt lat="43.41774" lon="2.57552">
        <ele>889.799987793</ele>
        <time>2022-03-23T15:33:10Z</time>
      </trkpt>
      <trkpt lat="43.41786" lon="2.57534">
        <ele>887.200012207</ele>
        <time>2022-03-23T15:33:23Z</time>
      </trkpt>
      <trkpt lat="43.41799" lon="2.57508">
        <ele>885.599975586</ele>
        <time>2022-03-23T15:33:40Z</time>
      </trkpt>
      <trkpt lat="43.41818" lon="2.57481">
        <ele>886</ele>
        <time>2022-03-23T15:34:00Z</time>
      </trkpt>
      <trkpt lat="43.41834" lon="2.57465">
        <ele>888.200012207</ele>
        <time>2022-03-23T15:34:14Z</time>
      </trkpt>
      <trkpt lat="43.41855" lon="2.57435">
        <ele>888.599975586</ele>
        <time>2022-03-23T15:34:36Z</time>
      </trkpt>
      <trkpt lat="43.41872" lon="2.57419">
        <ele>889</ele>
        <time>2022-03-23T15:34:49Z</time>
      </trkpt>
      <trkpt lat="43.41899" lon="2.57385">
        <ele>886.400024414</ele>
        <time>2022-03-23T15:35:17Z</time>
      </trkpt>
      <trkpt lat="43.41923" lon="2.57361">
        <ele>885.400024414</ele>
        <time>2022-03-23T15:35:40Z</time>
      </trkpt>
      <trkpt lat="43.41956" lon="2.5736">
        <ele>886.799987793</ele>
        <time>2022-03-23T15:36:07Z</time>
      </trkpt>
      <trkpt lat="43.41969" lon="2.57369">
        <ele>886.799987793</ele>
        <time>2022-03-23T15:36:23Z</time>
      </trkpt>
      <trkpt lat="43.4196" lon="2.57364">
        <ele>887</ele>
        <time>2022-03-23T15:37:01Z</time>
      </trkpt>
      <trkpt lat="43.41957" lon="2.57342">
        <ele>886</ele>
        <time>2022-03-23T15:37:12Z</time>
      </trkpt>
      <trkpt lat="43.41954" lon="2.57314">
        <ele>884.599975586</ele>
        <time>2022-03-23T15:37:26Z</time>
      </trkpt>
      <trkpt lat="43.41956" lon="2.57306">
        <ele>884.799987793</ele>
        <time>2022-03-23T15:37:31Z</time>
      </trkpt>
      <trkpt lat="43.41965" lon="2.57282">
        <ele>885</ele>
        <time>2022-03-23T15:37:46Z</time>
      </trkpt>
      <trkpt lat="43.41993" lon="2.57251">
        <ele>888.599975586</ele>
        <time>2022-03-23T15:38:17Z</time>
      </trkpt>
      <trkpt lat="43.42005" lon="2.57196">
        <ele>889.599975586</ele>
        <time>2022-03-23T15:38:48Z</time>
      </trkpt>
      <trkpt lat="43.42021" lon="2.57143">
        <ele>891.599975586</ele>
        <time>2022-03-23T15:39:18Z</time>
      </trkpt>
      <trkpt lat="43.4203" lon="2.571">
        <ele>893.799987793</ele>
        <time>2022-03-23T15:39:42Z</time>
      </trkpt>
      <trkpt lat="43.4204" lon="2.57024">
        <ele>898.799987793</ele>
        <time>2022-03-23T15:40:22Z</time>
      </trkpt>
      <trkpt lat="43.42053" lon="2.5696">
        <ele>902.400024414</ele>
        <time>2022-03-23T15:40:57Z</time>
      </trkpt>
      <trkpt lat="43.42071" lon="2.56903">
        <ele>907.599975586</ele>
        <time>2022-03-23T15:41:30Z</time>
      </trkpt>
      <trkpt lat="43.42083" lon="2.56867">
        <ele>910.799987793</ele>
        <time>2022-03-23T15:41:51Z</time>
      </trkpt>
      <trkpt lat="43.42086" lon="2.56831">
        <ele>910.599975586</ele>
        <time>2022-03-23T15:42:09Z</time>
      </trkpt>
      <trkpt lat="43.42091" lon="2.56804">
        <ele>911.400024414</ele>
        <time>2022-03-23T15:42:24Z</time>
      </trkpt>
      <trkpt lat="43.42097" lon="2.56759">
        <ele>911</ele>
        <time>2022-03-23T15:42:48Z</time>
      </trkpt>
      <trkpt lat="43.42126" lon="2.56691">
        <ele>912.200012207</ele>
        <time>2022-03-23T15:43:29Z</time>
      </trkpt>
      <trkpt lat="43.42163" lon="2.56665">
        <ele>916.200012207</ele>
        <time>2022-03-23T15:44:00Z</time>
      </trkpt>
      <trkpt lat="43.42187" lon="2.56635">
        <ele>917.400024414</ele>
        <time>2022-03-23T15:44:33Z</time>
      </trkpt>
      <trkpt lat="43.42196" lon="2.56567">
        <ele>917</ele>
        <time>2022-03-23T15:45:13Z</time>
      </trkpt>
      <trkpt lat="43.42193" lon="2.56515">
        <ele>915.599975586</ele>
        <time>2022-03-23T15:45:40Z</time>
      </trkpt>
      <trkpt lat="43.42197" lon="2.56471">
        <ele>917.200012207</ele>
        <time>2022-03-23T15:46:03Z</time>
      </trkpt>
      <trkpt lat="43.42215" lon="2.56437">
        <ele>916.599975586</ele>
        <time>2022-03-23T15:46:25Z</time>
      </trkpt>
      <trkpt lat="43.42234" lon="2.56411">
        <ele>917</ele>
        <time>2022-03-23T15:46:53Z</time>
      </trkpt>
      <trkpt lat="43.42227" lon="2.56399">
        <ele>916.599975586</ele>
        <time>2022-03-23T15:47:28Z</time>
      </trkpt>
      <trkpt lat="43.42273" lon="2.56396">
        <ele>919</ele>
        <time>2022-03-23T15:48:05Z</time>
      </trkpt>
      <trkpt lat="43.42271" lon="2.56399">
        <ele>919</ele>
        <time>2022-03-23T15:48:41Z</time>
      </trkpt>
      <trkpt lat="43.42227" lon="2.56409">
        <ele>916.599975586</ele>
        <time>2022-03-23T15:49:09Z</time>
      </trkpt>
      <trkpt lat="43.4221" lon="2.56394">
        <ele>916</ele>
        <time>2022-03-23T15:49:23Z</time>
      </trkpt>
      <trkpt lat="43.42183" lon="2.56353">
        <ele>918</ele>
        <time>2022-03-23T15:49:52Z</time>
      </trkpt>
      <trkpt lat="43.42147" lon="2.56292">
        <ele>917.200012207</ele>
        <time>2022-03-23T15:50:31Z</time>
      </trkpt>
      <trkpt lat="43.42111" lon="2.56232">
        <ele>916.799987793</ele>
        <time>2022-03-23T15:51:08Z</time>
      </trkpt>
      <trkpt lat="43.42088" lon="2.56188">
        <ele>916.799987793</ele>
        <time>2022-03-23T15:51:35Z</time>
      </trkpt>
      <trkpt lat="43.42045" lon="2.56121">
        <ele>915.400024414</ele>
        <time>2022-03-23T15:52:21Z</time>
      </trkpt>
      <trkpt lat="43.42036" lon="2.56046">
        <ele>913.400024414</ele>
        <time>2022-03-23T15:52:57Z</time>
      </trkpt>
      <trkpt lat="43.42057" lon="2.56011">
        <ele>914</ele>
        <time>2022-03-23T15:53:19Z</time>
      </trkpt>
      <trkpt lat="43.42078" lon="2.55977">
        <ele>914</ele>
        <time>2022-03-23T15:53:42Z</time>
      </trkpt>
      <trkpt lat="43.42105" lon="2.55938">
        <ele>914.400024414</ele>
        <time>2022-03-23T15:54:13Z</time>
      </trkpt>
      <trkpt lat="43.42128" lon="2.55906">
        <ele>916.799987793</ele>
        <time>2022-03-23T15:54:36Z</time>
      </trkpt>
      <trkpt lat="43.42142" lon="2.5588">
        <ele>918.799987793</ele>
        <time>2022-03-23T15:54:53Z</time>
      </trkpt>
      <trkpt lat="43.42159" lon="2.55859">
        <ele>920.200012207</ele>
        <time>2022-03-23T15:55:09Z</time>
      </trkpt>
      <trkpt lat="43.4217" lon="2.55844">
        <ele>920.400024414</ele>
        <time>2022-03-23T15:55:20Z</time>
      </trkpt>
      <trkpt lat="43.42175" lon="2.55828">
        <ele>921</ele>
        <time>2022-03-23T15:55:29Z</time>
      </trkpt>
      <trkpt lat="43.42188" lon="2.55804">
        <ele>922.400024414</ele>
        <time>2022-03-23T15:55:45Z</time>
      </trkpt>
      <trkpt lat="43.42199" lon="2.5579">
        <ele>923.200012207</ele>
        <time>2022-03-23T15:55:58Z</time>
      </trkpt>
      <trkpt lat="43.42227" lon="2.55756">
        <ele>925.200012207</ele>
        <time>2022-03-23T15:56:27Z</time>
      </trkpt>
      <trkpt lat="43.42238" lon="2.55741">
        <ele>925.599975586</ele>
        <time>2022-03-23T15:56:39Z</time>
      </trkpt>
      <trkpt lat="43.42247" lon="2.55719">
        <ele>927</ele>
        <time>2022-03-23T15:56:52Z</time>
      </trkpt>
      <trkpt lat="43.42256" lon="2.55708">
        <ele>927</ele>
        <time>2022-03-23T15:57:01Z</time>
      </trkpt>
      <trkpt lat="43.42274" lon="2.55674">
        <ele>928.799987793</ele>
        <time>2022-03-23T15:57:24Z</time>
      </trkpt>
      <trkpt lat="43.4229" lon="2.55656">
        <ele>929</ele>
        <time>2022-03-23T15:57:41Z</time>
      </trkpt>
      <trkpt lat="43.42318" lon="2.55616">
        <ele>930.400024414</ele>
        <time>2022-03-23T15:58:15Z</time>
      </trkpt>
      <trkpt lat="43.42329" lon="2.55594">
        <ele>931.599975586</ele>
        <time>2022-03-23T15:58:29Z</time>
      </trkpt>
      <trkpt lat="43.42342" lon="2.5557">
        <ele>932.200012207</ele>
        <time>2022-03-23T15:58:45Z</time>
      </trkpt>
      <trkpt lat="43.42365" lon="2.55523">
        <ele>932.400024414</ele>
        <time>2022-03-23T15:59:15Z</time>
      </trkpt>
      <trkpt lat="43.4238" lon="2.55494">
        <ele>931.200012207</ele>
        <time>2022-03-23T15:59:34Z</time>
      </trkpt>
      <trkpt lat="43.42403" lon="2.55453">
        <ele>930.599975586</ele>
        <time>2022-03-23T16:00:02Z</time>
      </trkpt>
      <trkpt lat="43.42417" lon="2.55415">
        <ele>930.599975586</ele>
        <time>2022-03-23T16:00:26Z</time>
      </trkpt>
      <trkpt lat="43.42426" lon="2.55377">
        <ele>928.200012207</ele>
        <time>2022-03-23T16:00:46Z</time>
      </trkpt>
      <trkpt lat="43.42438" lon="2.55342">
        <ele>926.799987793</ele>
        <time>2022-03-23T16:01:07Z</time>
      </trkpt>
      <trkpt lat="43.42445" lon="2.55295">
        <ele>926.799987793</ele>
        <time>2022-03-23T16:01:32Z</time>
      </trkpt>
      <trkpt lat="43.4246" lon="2.55278">
        <ele>925</ele>
        <time>2022-03-23T16:02:02Z</time>
      </trkpt>
      <trkpt lat="43.425" lon="2.5531">
        <ele>919.599975586</ele>
        <time>2022-03-23T16:03:00Z</time>
      </trkpt>
      <trkpt lat="43.42516" lon="2.55335">
        <ele>915.799987793</ele>
        <time>2022-03-23T16:03:21Z</time>
      </trkpt>
      <trkpt lat="43.42501" lon="2.55329">
        <ele>918.799987793</ele>
        <time>2022-03-23T16:03:51Z</time>
      </trkpt>
      <trkpt lat="43.42476" lon="2.55293">
        <ele>923.200012207</ele>
        <time>2022-03-23T16:04:24Z</time>
      </trkpt>
      <trkpt lat="43.42469" lon="2.55305">
        <ele>924.200012207</ele>
        <time>2022-03-23T16:05:02Z</time>
      </trkpt>
      <trkpt lat="43.42474" lon="2.55312">
        <ele>924.799987793</ele>
        <time>2022-03-24T06:35:07Z</time>
      </trkpt>
      <trkpt lat="43.42466" lon="2.55295">
        <ele>925.200012207</ele>
        <time>2022-03-24T06:35:24Z</time>
      </trkpt>
      <trkpt lat="43.42454" lon="2.55284">
        <ele>925.799987793</ele>
        <time>2022-03-24T06:35:45Z</time>
      </trkpt>
      <trkpt lat="43.42454" lon="2.55283">
        <ele>925.799987793</ele>
        <time>2022-03-24T06:36:05Z</time>
      </trkpt>
      <trkpt lat="43.42451" lon="2.5526">
        <ele>926</ele>
        <time>2022-03-24T06:36:33Z</time>
      </trkpt>
      <trkpt lat="43.42452" lon="2.55252">
        <ele>926</ele>
        <time>2022-03-24T06:36:47Z</time>
      </trkpt>
      <trkpt lat="43.42453" lon="2.55219">
        <ele>927.200012207</ele>
        <time>2022-03-24T06:37:07Z</time>
      </trkpt>
      <trkpt lat="43.42467" lon="2.55172">
        <ele>929.200012207</ele>
        <time>2022-03-24T06:37:34Z</time>
      </trkpt>
      <trkpt lat="43.42471" lon="2.55137">
        <ele>931.599975586</ele>
        <time>2022-03-24T06:37:53Z</time>
      </trkpt>
      <trkpt lat="43.42475" lon="2.55101">
        <ele>934.200012207</ele>
        <time>2022-03-24T06:38:13Z</time>
      </trkpt>
      <trkpt lat="43.42476" lon="2.5505">
        <ele>936.400024414</ele>
        <time>2022-03-24T06:38:39Z</time>
      </trkpt>
      <trkpt lat="43.42472" lon="2.54973">
        <ele>936.799987793</ele>
        <time>2022-03-24T06:39:21Z</time>
      </trkpt>
      <trkpt lat="43.42469" lon="2.54944">
        <ele>934.799987793</ele>
        <time>2022-03-24T06:39:37Z</time>
      </trkpt>
      <trkpt lat="43.42462" lon="2.54885">
        <ele>930.200012207</ele>
        <time>2022-03-24T06:40:11Z</time>
      </trkpt>
      <trkpt lat="43.42454" lon="2.5484">
        <ele>926.200012207</ele>
        <time>2022-03-24T06:40:34Z</time>
      </trkpt>
      <trkpt lat="43.42442" lon="2.54765">
        <ele>924.200012207</ele>
        <time>2022-03-24T06:41:11Z</time>
      </trkpt>
      <trkpt lat="43.42436" lon="2.54724">
        <ele>923.599975586</ele>
        <time>2022-03-24T06:41:31Z</time>
      </trkpt>
      <trkpt lat="43.42429" lon="2.54673">
        <ele>922.799987793</ele>
        <time>2022-03-24T06:41:56Z</time>
      </trkpt>
      <trkpt lat="43.42424" lon="2.54614">
        <ele>924</ele>
        <time>2022-03-24T06:42:26Z</time>
      </trkpt>
      <trkpt lat="43.4243" lon="2.54594">
        <ele>925.400024414</ele>
        <time>2022-03-24T06:43:10Z</time>
      </trkpt>
      <trkpt lat="43.42432" lon="2.54569">
        <ele>926.599975586</ele>
        <time>2022-03-24T06:43:36Z</time>
      </trkpt>
      <trkpt lat="43.42441" lon="2.54513">
        <ele>928.200012207</ele>
        <time>2022-03-24T06:44:05Z</time>
      </trkpt>
      <trkpt lat="43.42455" lon="2.54451">
        <ele>928.400024414</ele>
        <time>2022-03-24T06:44:37Z</time>
      </trkpt>
      <trkpt lat="43.42466" lon="2.54346">
        <ele>933.400024414</ele>
        <time>2022-03-24T06:45:31Z</time>
      </trkpt>
      <trkpt lat="43.42477" lon="2.54261">
        <ele>934.400024414</ele>
        <time>2022-03-24T06:46:16Z</time>
      </trkpt>
      <trkpt lat="43.42489" lon="2.54202">
        <ele>938</ele>
        <time>2022-03-24T06:46:45Z</time>
      </trkpt>
      <trkpt lat="43.42491" lon="2.5413">
        <ele>941.400024414</ele>
        <time>2022-03-24T06:47:21Z</time>
      </trkpt>
      <trkpt lat="43.42474" lon="2.54063">
        <ele>946</ele>
        <time>2022-03-24T06:47:56Z</time>
      </trkpt>
      <trkpt lat="43.42466" lon="2.54029">
        <ele>949</ele>
        <time>2022-03-24T06:48:20Z</time>
      </trkpt>
      <trkpt lat="43.42461" lon="2.54002">
        <ele>952.599975586</ele>
        <time>2022-03-24T06:48:38Z</time>
      </trkpt>
      <trkpt lat="43.4245" lon="2.5396">
        <ele>954.799987793</ele>
        <time>2022-03-24T06:49:08Z</time>
      </trkpt>
      <trkpt lat="43.4244" lon="2.53903">
        <ele>957.599975586</ele>
        <time>2022-03-24T06:49:41Z</time>
      </trkpt>
      <trkpt lat="43.4244" lon="2.539">
        <ele>957.799987793</ele>
        <time>2022-03-24T06:50:12Z</time>
      </trkpt>
      <trkpt lat="43.42437" lon="2.53867">
        <ele>959</ele>
        <time>2022-03-24T06:50:34Z</time>
      </trkpt>
      <trkpt lat="43.42432" lon="2.53805">
        <ele>960.400024414</ele>
        <time>2022-03-24T06:51:05Z</time>
      </trkpt>
      <trkpt lat="43.42429" lon="2.53733">
        <ele>961</ele>
        <time>2022-03-24T06:51:45Z</time>
      </trkpt>
      <trkpt lat="43.42429" lon="2.53702">
        <ele>961.799987793</ele>
        <time>2022-03-24T06:52:10Z</time>
      </trkpt>
      <trkpt lat="43.42428" lon="2.53708">
        <ele>961.400024414</ele>
        <time>2022-03-24T06:52:26Z</time>
      </trkpt>
      <trkpt lat="43.42428" lon="2.5371">
        <ele>961.400024414</ele>
        <time>2022-03-24T06:52:50Z</time>
      </trkpt>
      <trkpt lat="43.42424" lon="2.53648">
        <ele>962.400024414</ele>
        <time>2022-03-24T06:53:28Z</time>
      </trkpt>
      <trkpt lat="43.42422" lon="2.53568">
        <ele>963.400024414</ele>
        <time>2022-03-24T06:54:09Z</time>
      </trkpt>
      <trkpt lat="43.4243" lon="2.5348">
        <ele>962.400024414</ele>
        <time>2022-03-24T06:54:53Z</time>
      </trkpt>
      <trkpt lat="43.42426" lon="2.53391">
        <ele>962.400024414</ele>
        <time>2022-03-24T06:55:36Z</time>
      </trkpt>
      <trkpt lat="43.42422" lon="2.53377">
        <ele>962.599975586</ele>
        <time>2022-03-24T06:55:44Z</time>
      </trkpt>
      <trkpt lat="43.42419" lon="2.53348">
        <ele>963.200012207</ele>
        <time>2022-03-24T06:55:58Z</time>
      </trkpt>
      <trkpt lat="43.42407" lon="2.53301">
        <ele>966</ele>
        <time>2022-03-24T06:56:22Z</time>
      </trkpt>
      <trkpt lat="43.42389" lon="2.53243">
        <ele>969.400024414</ele>
        <time>2022-03-24T06:56:54Z</time>
      </trkpt>
      <trkpt lat="43.42378" lon="2.53191">
        <ele>975.200012207</ele>
        <time>2022-03-24T06:57:26Z</time>
      </trkpt>
      <trkpt lat="43.42369" lon="2.53166">
        <ele>977.799987793</ele>
        <time>2022-03-24T06:57:44Z</time>
      </trkpt>
      <trkpt lat="43.42365" lon="2.53141">
        <ele>981</ele>
        <time>2022-03-24T06:58:00Z</time>
      </trkpt>
      <trkpt lat="43.42358" lon="2.53114">
        <ele>984.599975586</ele>
        <time>2022-03-24T06:58:18Z</time>
      </trkpt>
      <trkpt lat="43.4234" lon="2.53078">
        <ele>988.599975586</ele>
        <time>2022-03-24T06:58:50Z</time>
      </trkpt>
      <trkpt lat="43.42348" lon="2.53044">
        <ele>990.799987793</ele>
        <time>2022-03-24T06:59:15Z</time>
      </trkpt>
      <trkpt lat="43.42331" lon="2.53015">
        <ele>990.799987793</ele>
        <time>2022-03-24T06:59:37Z</time>
      </trkpt>
      <trkpt lat="43.42305" lon="2.52949">
        <ele>988</ele>
        <time>2022-03-24T07:00:17Z</time>
      </trkpt>
      <trkpt lat="43.4231" lon="2.52938">
        <ele>987.599975586</ele>
        <time>2022-03-24T07:00:30Z</time>
      </trkpt>
      <trkpt lat="43.4231" lon="2.52937">
        <ele>987.599975586</ele>
        <time>2022-03-24T07:01:13Z</time>
      </trkpt>
      <trkpt lat="43.42294" lon="2.52921">
        <ele>985.799987793</ele>
        <time>2022-03-24T07:01:43Z</time>
      </trkpt>
      <trkpt lat="43.42293" lon="2.52919">
        <ele>985.799987793</ele>
        <time>2022-03-24T07:02:27Z</time>
      </trkpt>
      <trkpt lat="43.4229" lon="2.52897">
        <ele>985</ele>
        <time>2022-03-24T07:02:42Z</time>
      </trkpt>
      <trkpt lat="43.42303" lon="2.52863">
        <ele>985.200012207</ele>
        <time>2022-03-24T07:03:03Z</time>
      </trkpt>
      <trkpt lat="43.42327" lon="2.52782">
        <ele>986.400024414</ele>
        <time>2022-03-24T07:03:47Z</time>
      </trkpt>
      <trkpt lat="43.42335" lon="2.52731">
        <ele>986</ele>
        <time>2022-03-24T07:04:12Z</time>
      </trkpt>
      <trkpt lat="43.42344" lon="2.52655">
        <ele>989.200012207</ele>
        <time>2022-03-24T07:04:48Z</time>
      </trkpt>
      <trkpt lat="43.42352" lon="2.52569">
        <ele>991.200012207</ele>
        <time>2022-03-24T07:05:31Z</time>
      </trkpt>
      <trkpt lat="43.42354" lon="2.52492">
        <ele>990.400024414</ele>
        <time>2022-03-24T07:06:09Z</time>
      </trkpt>
      <trkpt lat="43.42349" lon="2.52408">
        <ele>991.599975586</ele>
        <time>2022-03-24T07:06:52Z</time>
      </trkpt>
      <trkpt lat="43.42354" lon="2.52337">
        <ele>996.400024414</ele>
        <time>2022-03-24T07:07:27Z</time>
      </trkpt>
      <trkpt lat="43.42362" lon="2.52299">
        <ele>1001.79998779</ele>
        <time>2022-03-24T07:07:50Z</time>
      </trkpt>
      <trkpt lat="43.42372" lon="2.52274">
        <ele>1005</ele>
        <time>2022-03-24T07:08:06Z</time>
      </trkpt>
      <trkpt lat="43.42392" lon="2.52247">
        <ele>1006.20001221</ele>
        <time>2022-03-24T07:08:25Z</time>
      </trkpt>
      <trkpt lat="43.42418" lon="2.52218">
        <ele>1007.20001221</ele>
        <time>2022-03-24T07:08:48Z</time>
      </trkpt>
      <trkpt lat="43.42439" lon="2.52192">
        <ele>1008.20001221</ele>
        <time>2022-03-24T07:09:06Z</time>
      </trkpt>
      <trkpt lat="43.42459" lon="2.52167">
        <ele>1009</ele>
        <time>2022-03-24T07:09:25Z</time>
      </trkpt>
      <trkpt lat="43.425" lon="2.52125">
        <ele>1008.59997559</ele>
        <time>2022-03-24T07:10:00Z</time>
      </trkpt>
      <trkpt lat="43.42526" lon="2.52101">
        <ele>1008.40002441</ele>
        <time>2022-03-24T07:10:21Z</time>
      </trkpt>
      <trkpt lat="43.42562" lon="2.52069">
        <ele>1009.79998779</ele>
        <time>2022-03-24T07:10:51Z</time>
      </trkpt>
      <trkpt lat="43.42598" lon="2.5202">
        <ele>1008.40002441</ele>
        <time>2022-03-24T07:11:25Z</time>
      </trkpt>
      <trkpt lat="43.42624" lon="2.51971">
        <ele>1008.20001221</ele>
        <time>2022-03-24T07:11:55Z</time>
      </trkpt>
      <trkpt lat="43.42644" lon="2.51923">
        <ele>1008.20001221</ele>
        <time>2022-03-24T07:12:22Z</time>
      </trkpt>
      <trkpt lat="43.42666" lon="2.5185">
        <ele>1005</ele>
        <time>2022-03-24T07:13:00Z</time>
      </trkpt>
      <trkpt lat="43.42674" lon="2.51803">
        <ele>1002</ele>
        <time>2022-03-24T07:13:24Z</time>
      </trkpt>
      <trkpt lat="43.42673" lon="2.51751">
        <ele>999.599975586</ele>
        <time>2022-03-24T07:13:49Z</time>
      </trkpt>
      <trkpt lat="43.4268" lon="2.51695">
        <ele>995.799987793</ele>
        <time>2022-03-24T07:14:18Z</time>
      </trkpt>
      <trkpt lat="43.42688" lon="2.51663">
        <ele>993.200012207</ele>
        <time>2022-03-24T07:14:34Z</time>
      </trkpt>
      <trkpt lat="43.42698" lon="2.5159">
        <ele>990.200012207</ele>
        <time>2022-03-24T07:15:09Z</time>
      </trkpt>
      <trkpt lat="43.42718" lon="2.51526">
        <ele>984</ele>
        <time>2022-03-24T07:15:42Z</time>
      </trkpt>
      <trkpt lat="43.4274" lon="2.51477">
        <ele>983.200012207</ele>
        <time>2022-03-24T07:16:10Z</time>
      </trkpt>
      <trkpt lat="43.42755" lon="2.51423">
        <ele>986</ele>
        <time>2022-03-24T07:16:38Z</time>
      </trkpt>
      <trkpt lat="43.42767" lon="2.51378">
        <ele>985.599975586</ele>
        <time>2022-03-24T07:17:00Z</time>
      </trkpt>
      <trkpt lat="43.42778" lon="2.51332">
        <ele>984.799987793</ele>
        <time>2022-03-24T07:17:24Z</time>
      </trkpt>
      <trkpt lat="43.42798" lon="2.51279">
        <ele>981.400024414</ele>
        <time>2022-03-24T07:17:52Z</time>
      </trkpt>
      <trkpt lat="43.428" lon="2.51226">
        <ele>980.200012207</ele>
        <time>2022-03-24T07:18:23Z</time>
      </trkpt>
      <trkpt lat="43.42798" lon="2.51218">
        <ele>979</ele>
        <time>2022-03-24T07:18:50Z</time>
      </trkpt>
      <trkpt lat="43.42798" lon="2.51217">
        <ele>979</ele>
        <time>2022-03-24T07:19:08Z</time>
      </trkpt>
      <trkpt lat="43.42805" lon="2.5123">
        <ele>981.400024414</ele>
        <time>2022-03-24T07:20:39Z</time>
      </trkpt>
      <trkpt lat="43.42799" lon="2.5126">
        <ele>982</ele>
        <time>2022-03-24T07:20:55Z</time>
      </trkpt>
      <trkpt lat="43.42779" lon="2.51287">
        <ele>980.599975586</ele>
        <time>2022-03-24T07:21:16Z</time>
      </trkpt>
      <trkpt lat="43.42733" lon="2.51296">
        <ele>976.599975586</ele>
        <time>2022-03-24T07:21:45Z</time>
      </trkpt>
      <trkpt lat="43.42676" lon="2.51253">
        <ele>966.400024414</ele>
        <time>2022-03-24T07:22:28Z</time>
      </trkpt>
      <trkpt lat="43.42649" lon="2.51187">
        <ele>960.599975586</ele>
        <time>2022-03-24T07:23:02Z</time>
      </trkpt>
      <trkpt lat="43.42624" lon="2.5119">
        <ele>960.200012207</ele>
        <time>2022-03-24T07:23:27Z</time>
      </trkpt>
      <trkpt lat="43.42595" lon="2.51203">
        <ele>962.599975586</ele>
        <time>2022-03-24T07:23:49Z</time>
      </trkpt>
      <trkpt lat="43.42544" lon="2.51181">
        <ele>968</ele>
        <time>2022-03-24T07:24:21Z</time>
      </trkpt>
      <trkpt lat="43.4252" lon="2.51127">
        <ele>966</ele>
        <time>2022-03-24T07:24:50Z</time>
      </trkpt>
      <trkpt lat="43.42506" lon="2.51061">
        <ele>961.400024414</ele>
        <time>2022-03-24T07:25:22Z</time>
      </trkpt>
      <trkpt lat="43.42486" lon="2.50999">
        <ele>959.200012207</ele>
        <time>2022-03-24T07:25:53Z</time>
      </trkpt>
      <trkpt lat="43.4247" lon="2.50939">
        <ele>958.200012207</ele>
        <time>2022-03-24T07:26:24Z</time>
      </trkpt>
      <trkpt lat="43.42462" lon="2.5088">
        <ele>956.200012207</ele>
        <time>2022-03-24T07:27:05Z</time>
      </trkpt>
      <trkpt lat="43.42464" lon="2.50821">
        <ele>953</ele>
        <time>2022-03-24T07:27:35Z</time>
      </trkpt>
      <trkpt lat="43.42481" lon="2.50795">
        <ele>948.200012207</ele>
        <time>2022-03-24T07:27:59Z</time>
      </trkpt>
      <trkpt lat="43.42487" lon="2.50781">
        <ele>946</ele>
        <time>2022-03-24T07:28:19Z</time>
      </trkpt>
      <trkpt lat="43.42493" lon="2.50775">
        <ele>944.599975586</ele>
        <time>2022-03-24T07:28:34Z</time>
      </trkpt>
      <trkpt lat="43.42486" lon="2.50791">
        <ele>947</ele>
        <time>2022-03-24T07:29:08Z</time>
      </trkpt>
      <trkpt lat="43.42486" lon="2.50793">
        <ele>947.200012207</ele>
        <time>2022-03-24T07:29:30Z</time>
      </trkpt>
      <trkpt lat="43.42483" lon="2.50792">
        <ele>947.400024414</ele>
        <time>2022-03-24T07:30:19Z</time>
      </trkpt>
      <trkpt lat="43.42482" lon="2.50794">
        <ele>948</ele>
        <time>2022-03-24T07:30:46Z</time>
      </trkpt>
      <trkpt lat="43.42483" lon="2.50796">
        <ele>948</ele>
        <time>2022-03-24T07:31:12Z</time>
      </trkpt>
      <trkpt lat="43.42483" lon="2.50791">
        <ele>947.599975586</ele>
        <time>2022-03-24T07:31:53Z</time>
      </trkpt>
      <trkpt lat="43.42481" lon="2.50796">
        <ele>948.200012207</ele>
        <time>2022-03-24T07:32:22Z</time>
      </trkpt>
      <trkpt lat="43.42481" lon="2.50794">
        <ele>948.200012207</ele>
        <time>2022-03-24T07:33:21Z</time>
      </trkpt>
      <trkpt lat="43.42481" lon="2.50787">
        <ele>947.599975586</ele>
        <time>2022-03-24T07:33:59Z</time>
      </trkpt>
      <trkpt lat="43.42486" lon="2.5079">
        <ele>946.799987793</ele>
        <time>2022-03-24T07:34:52Z</time>
      </trkpt>
      <trkpt lat="43.4248" lon="2.5079">
        <ele>947.799987793</ele>
        <time>2022-03-24T07:35:39Z</time>
      </trkpt>
      <trkpt lat="43.42482" lon="2.50788">
        <ele>947.400024414</ele>
        <time>2022-03-24T07:36:00Z</time>
      </trkpt>
      <trkpt lat="43.42483" lon="2.50787">
        <ele>947.200012207</ele>
        <time>2022-03-24T07:36:40Z</time>
      </trkpt>
      <trkpt lat="43.42483" lon="2.50787">
        <ele>947.200012207</ele>
        <time>2022-03-24T07:37:42Z</time>
      </trkpt>
      <trkpt lat="43.42483" lon="2.50787">
        <ele>947.200012207</ele>
        <time>2022-03-24T07:38:34Z</time>
      </trkpt>
      <trkpt lat="43.42483" lon="2.50787">
        <ele>947</ele>
        <time>2022-03-24T07:40:14Z</time>
      </trkpt>
      <trkpt lat="43.42484" lon="2.50786">
        <ele>947</ele>
        <time>2022-03-24T07:41:41Z</time>
      </trkpt>
      <trkpt lat="43.42484" lon="2.50786">
        <ele>947</ele>
        <time>2022-03-24T07:42:19Z</time>
      </trkpt>
      <trkpt lat="43.42483" lon="2.50786">
        <ele>947</ele>
        <time>2022-03-24T07:43:51Z</time>
      </trkpt>
      <trkpt lat="43.42484" lon="2.50786">
        <ele>947</ele>
        <time>2022-03-24T07:45:36Z</time>
      </trkpt>
      <trkpt lat="43.42483" lon="2.50786">
        <ele>947</ele>
        <time>2022-03-24T07:46:55Z</time>
      </trkpt>
      <trkpt lat="43.42483" lon="2.50786">
        <ele>947</ele>
        <time>2022-03-24T07:48:30Z</time>
      </trkpt>
      <trkpt lat="43.42483" lon="2.50786">
        <ele>947</ele>
        <time>2022-03-24T07:51:23Z</time>
      </trkpt>
      <trkpt lat="43.42483" lon="2.50785">
        <ele>947</ele>
        <time>2022-03-24T07:53:11Z</time>
      </trkpt>
      <trkpt lat="43.42482" lon="2.50785">
        <ele>947</ele>
        <time>2022-03-24T07:54:06Z</time>
      </trkpt>
      <trkpt lat="43.42482" lon="2.50785">
        <ele>947.200012207</ele>
        <time>2022-03-24T07:54:59Z</time>
      </trkpt>
      <trkpt lat="43.42482" lon="2.50785">
        <ele>947.200012207</ele>
        <time>2022-03-24T07:55:34Z</time>
      </trkpt>
      <trkpt lat="43.42482" lon="2.50786">
        <ele>947.200012207</ele>
        <time>2022-03-24T07:56:55Z</time>
      </trkpt>
      <trkpt lat="43.42482" lon="2.50786">
        <ele>947.200012207</ele>
        <time>2022-03-24T07:57:11Z</time>
      </trkpt>
      <trkpt lat="43.42482" lon="2.50786">
        <ele>947.200012207</ele>
        <time>2022-03-24T07:57:45Z</time>
      </trkpt>
      <trkpt lat="43.42483" lon="2.50786">
        <ele>947.200012207</ele>
        <time>2022-03-24T07:59:22Z</time>
      </trkpt>
      <trkpt lat="43.42483" lon="2.50786">
        <ele>947.200012207</ele>
        <time>2022-03-24T07:59:58Z</time>
      </trkpt>
      <trkpt lat="43.42482" lon="2.50778">
        <ele>946.599975586</ele>
        <time>2022-03-24T08:01:32Z</time>
      </trkpt>
      <trkpt lat="43.42466" lon="2.5077">
        <ele>948.400024414</ele>
        <time>2022-03-24T08:01:51Z</time>
      </trkpt>
      <trkpt lat="43.42461" lon="2.50742">
        <ele>946.400024414</ele>
        <time>2022-03-24T08:02:06Z</time>
      </trkpt>
      <trkpt lat="43.42457" lon="2.50717">
        <ele>943.200012207</ele>
        <time>2022-03-24T08:02:20Z</time>
      </trkpt>
      <trkpt lat="43.42449" lon="2.50683">
        <ele>939.799987793</ele>
        <time>2022-03-24T08:02:38Z</time>
      </trkpt>
      <trkpt lat="43.42444" lon="2.50673">
        <ele>939.599975586</ele>
        <time>2022-03-24T08:02:46Z</time>
      </trkpt>
      <trkpt lat="43.42439" lon="2.50657">
        <ele>938.599975586</ele>
        <time>2022-03-24T08:02:58Z</time>
      </trkpt>
      <trkpt lat="43.42425" lon="2.50636">
        <ele>936.400024414</ele>
        <time>2022-03-24T08:03:10Z</time>
      </trkpt>
      <trkpt lat="43.4242" lon="2.50619">
        <ele>934.200012207</ele>
        <time>2022-03-24T08:03:19Z</time>
      </trkpt>
      <trkpt lat="43.42406" lon="2.50595">
        <ele>931</ele>
        <time>2022-03-24T08:03:32Z</time>
      </trkpt>
      <trkpt lat="43.42393" lon="2.50579">
        <ele>928.599975586</ele>
        <time>2022-03-24T08:03:46Z</time>
      </trkpt>
      <trkpt lat="43.42382" lon="2.5058">
        <ele>928.200012207</ele>
        <time>2022-03-24T08:03:56Z</time>
      </trkpt>
      <trkpt lat="43.42357" lon="2.50574">
        <ele>926.200012207</ele>
        <time>2022-03-24T08:04:15Z</time>
      </trkpt>
      <trkpt lat="43.42338" lon="2.50576">
        <ele>925.599975586</ele>
        <time>2022-03-24T08:04:27Z</time>
      </trkpt>
      <trkpt lat="43.42291" lon="2.50574">
        <ele>925</ele>
        <time>2022-03-24T08:04:56Z</time>
      </trkpt>
      <trkpt lat="43.42244" lon="2.50562">
        <ele>927.200012207</ele>
        <time>2022-03-24T08:05:30Z</time>
      </trkpt>
      <trkpt lat="43.4223" lon="2.50519">
        <ele>921.599975586</ele>
        <time>2022-03-24T08:05:55Z</time>
      </trkpt>
      <trkpt lat="43.42214" lon="2.5047">
        <ele>912.799987793</ele>
        <time>2022-03-24T08:06:24Z</time>
      </trkpt>
      <trkpt lat="43.42188" lon="2.5044">
        <ele>910.200012207</ele>
        <time>2022-03-24T08:06:47Z</time>
      </trkpt>
      <trkpt lat="43.42163" lon="2.50417">
        <ele>910.400024414</ele>
        <time>2022-03-24T08:07:08Z</time>
      </trkpt>
      <trkpt lat="43.42158" lon="2.50418">
        <ele>912</ele>
        <time>2022-03-24T08:07:34Z</time>
      </trkpt>
      <trkpt lat="43.4214" lon="2.50384">
        <ele>908.200012207</ele>
        <time>2022-03-24T08:08:41Z</time>
      </trkpt>
      <trkpt lat="43.4213" lon="2.50359">
        <ele>904.200012207</ele>
        <time>2022-03-24T08:08:56Z</time>
      </trkpt>
      <trkpt lat="43.42115" lon="2.5033">
        <ele>900</ele>
        <time>2022-03-24T08:09:14Z</time>
      </trkpt>
      <trkpt lat="43.42105" lon="2.50308">
        <ele>897.599975586</ele>
        <time>2022-03-24T08:09:28Z</time>
      </trkpt>
      <trkpt lat="43.42088" lon="2.5027">
        <ele>892.599975586</ele>
        <time>2022-03-24T08:09:53Z</time>
      </trkpt>
      <trkpt lat="43.42062" lon="2.50237">
        <ele>891.200012207</ele>
        <time>2022-03-24T08:10:17Z</time>
      </trkpt>
      <trkpt lat="43.4203" lon="2.50196">
        <ele>889</ele>
        <time>2022-03-24T08:10:47Z</time>
      </trkpt>
      <trkpt lat="43.42002" lon="2.50148">
        <ele>882.400024414</ele>
        <time>2022-03-24T08:11:17Z</time>
      </trkpt>
      <trkpt lat="43.41993" lon="2.50129">
        <ele>878.400024414</ele>
        <time>2022-03-24T08:11:28Z</time>
      </trkpt>
      <trkpt lat="43.41981" lon="2.50106">
        <ele>874.200012207</ele>
        <time>2022-03-24T08:11:43Z</time>
      </trkpt>
      <trkpt lat="43.41947" lon="2.50065">
        <ele>868.200012207</ele>
        <time>2022-03-24T08:12:14Z</time>
      </trkpt>
      <trkpt lat="43.41916" lon="2.50039">
        <ele>862.200012207</ele>
        <time>2022-03-24T08:12:40Z</time>
      </trkpt>
      <trkpt lat="43.41894" lon="2.50029">
        <ele>858.799987793</ele>
        <time>2022-03-24T08:12:55Z</time>
      </trkpt>
      <trkpt lat="43.4188" lon="2.50021">
        <ele>856.599975586</ele>
        <time>2022-03-24T08:13:06Z</time>
      </trkpt>
      <trkpt lat="43.41862" lon="2.50014">
        <ele>854</ele>
        <time>2022-03-24T08:13:18Z</time>
      </trkpt>
      <trkpt lat="43.41851" lon="2.50006">
        <ele>851.799987793</ele>
        <time>2022-03-24T08:13:27Z</time>
      </trkpt>
      <trkpt lat="43.41828" lon="2.49994">
        <ele>848.200012207</ele>
        <time>2022-03-24T08:13:43Z</time>
      </trkpt>
      <trkpt lat="43.41811" lon="2.4999">
        <ele>848</ele>
        <time>2022-03-24T08:13:55Z</time>
      </trkpt>
      <trkpt lat="43.41792" lon="2.49983">
        <ele>846.799987793</ele>
        <time>2022-03-24T08:14:09Z</time>
      </trkpt>
      <trkpt lat="43.4177" lon="2.49972">
        <ele>844.599975586</ele>
        <time>2022-03-24T08:14:24Z</time>
      </trkpt>
      <trkpt lat="43.41743" lon="2.49959">
        <ele>840.400024414</ele>
        <time>2022-03-24T08:14:41Z</time>
      </trkpt>
      <trkpt lat="43.41719" lon="2.49948">
        <ele>836.599975586</ele>
        <time>2022-03-24T08:14:58Z</time>
      </trkpt>
      <trkpt lat="43.41681" lon="2.49933">
        <ele>830</ele>
        <time>2022-03-24T08:15:25Z</time>
      </trkpt>
      <trkpt lat="43.41663" lon="2.49942">
        <ele>829.599975586</ele>
        <time>2022-03-24T08:15:40Z</time>
      </trkpt>
      <trkpt lat="43.41635" lon="2.49953">
        <ele>827.599975586</ele>
        <time>2022-03-24T08:16:00Z</time>
      </trkpt>
      <trkpt lat="43.41618" lon="2.49965">
        <ele>825.200012207</ele>
        <time>2022-03-24T08:16:15Z</time>
      </trkpt>
      <trkpt lat="43.41594" lon="2.49987">
        <ele>822.599975586</ele>
        <time>2022-03-24T08:16:35Z</time>
      </trkpt>
      <trkpt lat="43.41585" lon="2.49989">
        <ele>820</ele>
        <time>2022-03-24T08:17:27Z</time>
      </trkpt>
      <trkpt lat="43.41571" lon="2.4999">
        <ele>815.200012207</ele>
        <time>2022-03-24T08:17:40Z</time>
      </trkpt>
      <trkpt lat="43.41574" lon="2.49964">
        <ele>810.799987793</ele>
        <time>2022-03-24T08:17:55Z</time>
      </trkpt>
      <trkpt lat="43.41576" lon="2.49942">
        <ele>806.799987793</ele>
        <time>2022-03-24T08:18:07Z</time>
      </trkpt>
      <trkpt lat="43.41583" lon="2.499">
        <ele>799.799987793</ele>
        <time>2022-03-24T08:18:27Z</time>
      </trkpt>
      <trkpt lat="43.41595" lon="2.49869">
        <ele>796</ele>
        <time>2022-03-24T08:18:43Z</time>
      </trkpt>
      <trkpt lat="43.41608" lon="2.49841">
        <ele>791.400024414</ele>
        <time>2022-03-24T08:19:03Z</time>
      </trkpt>
      <trkpt lat="43.41594" lon="2.49841">
        <ele>788.400024414</ele>
        <time>2022-03-24T08:19:16Z</time>
      </trkpt>
      <trkpt lat="43.41582" lon="2.49849">
        <ele>787</ele>
        <time>2022-03-24T08:19:30Z</time>
      </trkpt>
      <trkpt lat="43.41587" lon="2.49837">
        <ele>785.400024414</ele>
        <time>2022-03-24T08:19:46Z</time>
      </trkpt>
      <trkpt lat="43.41602" lon="2.49819">
        <ele>783.200012207</ele>
        <time>2022-03-24T08:20:00Z</time>
      </trkpt>
      <trkpt lat="43.41624" lon="2.49803">
        <ele>779</ele>
        <time>2022-03-24T08:20:17Z</time>
      </trkpt>
      <trkpt lat="43.41641" lon="2.49799">
        <ele>779.400024414</ele>
        <time>2022-03-24T08:20:29Z</time>
      </trkpt>
      <trkpt lat="43.41659" lon="2.49802">
        <ele>781</ele>
        <time>2022-03-24T08:20:41Z</time>
      </trkpt>
      <trkpt lat="43.41691" lon="2.49817">
        <ele>786</ele>
        <time>2022-03-24T08:21:05Z</time>
      </trkpt>
      <trkpt lat="43.41709" lon="2.4982">
        <ele>785</ele>
        <time>2022-03-24T08:21:18Z</time>
      </trkpt>
      <trkpt lat="43.41718" lon="2.49822">
        <ele>784.599975586</ele>
        <time>2022-03-24T08:21:25Z</time>
      </trkpt>
      <trkpt lat="43.41752" lon="2.4984">
        <ele>788.200012207</ele>
        <time>2022-03-24T08:21:52Z</time>
      </trkpt>
      <trkpt lat="43.41778" lon="2.4985">
        <ele>789</ele>
        <time>2022-03-24T08:22:14Z</time>
      </trkpt>
      <trkpt lat="43.41805" lon="2.49868">
        <ele>794.599975586</ele>
        <time>2022-03-24T08:22:37Z</time>
      </trkpt>
      <trkpt lat="43.41828" lon="2.49872">
        <ele>795.200012207</ele>
        <time>2022-03-24T08:22:56Z</time>
      </trkpt>
      <trkpt lat="43.41844" lon="2.49873">
        <ele>794.799987793</ele>
        <time>2022-03-24T08:23:08Z</time>
      </trkpt>
      <trkpt lat="43.41862" lon="2.49874">
        <ele>795</ele>
        <time>2022-03-24T08:23:22Z</time>
      </trkpt>
      <trkpt lat="43.41876" lon="2.49875">
        <ele>795.599975586</ele>
        <time>2022-03-24T08:23:33Z</time>
      </trkpt>
      <trkpt lat="43.41893" lon="2.49873">
        <ele>795.200012207</ele>
        <time>2022-03-24T08:23:45Z</time>
      </trkpt>
      <trkpt lat="43.41916" lon="2.49873">
        <ele>797.599975586</ele>
        <time>2022-03-24T08:24:01Z</time>
      </trkpt>
      <trkpt lat="43.41943" lon="2.49868">
        <ele>796.799987793</ele>
        <time>2022-03-24T08:24:20Z</time>
      </trkpt>
      <trkpt lat="43.41959" lon="2.49872">
        <ele>796.400024414</ele>
        <time>2022-03-24T08:24:33Z</time>
      </trkpt>
      <trkpt lat="43.41996" lon="2.4988">
        <ele>798</ele>
        <time>2022-03-24T08:24:56Z</time>
      </trkpt>
      <trkpt lat="43.42021" lon="2.49891">
        <ele>800.799987793</ele>
        <time>2022-03-24T08:25:23Z</time>
      </trkpt>
      <trkpt lat="43.42029" lon="2.49903">
        <ele>802.400024414</ele>
        <time>2022-03-24T08:26:53Z</time>
      </trkpt>
      <trkpt lat="43.42047" lon="2.49916">
        <ele>804.200012207</ele>
        <time>2022-03-24T08:27:07Z</time>
      </trkpt>
      <trkpt lat="43.42074" lon="2.49944">
        <ele>808</ele>
        <time>2022-03-24T08:27:33Z</time>
      </trkpt>
      <trkpt lat="43.42083" lon="2.49978">
        <ele>812.200012207</ele>
        <time>2022-03-24T08:27:54Z</time>
      </trkpt>
      <trkpt lat="43.42098" lon="2.50007">
        <ele>816.599975586</ele>
        <time>2022-03-24T08:28:16Z</time>
      </trkpt>
      <trkpt lat="43.42102" lon="2.50014">
        <ele>818.200012207</ele>
        <time>2022-03-24T08:28:24Z</time>
      </trkpt>
      <trkpt lat="43.42109" lon="2.5003">
        <ele>822.599975586</ele>
        <time>2022-03-24T08:28:43Z</time>
      </trkpt>
      <trkpt lat="43.42115" lon="2.50032">
        <ele>824</ele>
        <time>2022-03-24T08:28:52Z</time>
      </trkpt>
      <trkpt lat="43.42115" lon="2.50032">
        <ele>824</ele>
        <time>2022-03-24T08:29:14Z</time>
      </trkpt>
      <trkpt lat="43.42113" lon="2.50013">
        <ele>819.799987793</ele>
        <time>2022-03-24T08:29:29Z</time>
      </trkpt>
      <trkpt lat="43.42123" lon="2.49983">
        <ele>818.200012207</ele>
        <time>2022-03-24T08:29:49Z</time>
      </trkpt>
      <trkpt lat="43.42144" lon="2.49975">
        <ele>821.799987793</ele>
        <time>2022-03-24T08:30:07Z</time>
      </trkpt>
      <trkpt lat="43.42166" lon="2.49964">
        <ele>824.400024414</ele>
        <time>2022-03-24T08:30:26Z</time>
      </trkpt>
      <trkpt lat="43.42185" lon="2.49952">
        <ele>826.799987793</ele>
        <time>2022-03-24T08:30:43Z</time>
      </trkpt>
      <trkpt lat="43.42192" lon="2.49939">
        <ele>827.599975586</ele>
        <time>2022-03-24T08:30:54Z</time>
      </trkpt>
      <trkpt lat="43.42208" lon="2.49917">
        <ele>829.200012207</ele>
        <time>2022-03-24T08:31:12Z</time>
      </trkpt>
      <trkpt lat="43.42218" lon="2.49891">
        <ele>835</ele>
        <time>2022-03-24T08:31:30Z</time>
      </trkpt>
      <trkpt lat="43.42223" lon="2.49875">
        <ele>838.200012207</ele>
        <time>2022-03-24T08:31:42Z</time>
      </trkpt>
      <trkpt lat="43.4223" lon="2.49852">
        <ele>835.799987793</ele>
        <time>2022-03-24T08:31:58Z</time>
      </trkpt>
      <trkpt lat="43.42244" lon="2.49842">
        <ele>835.799987793</ele>
        <time>2022-03-24T08:32:09Z</time>
      </trkpt>
      <trkpt lat="43.42261" lon="2.49827">
        <ele>837.599975586</ele>
        <time>2022-03-24T08:32:26Z</time>
      </trkpt>
      <trkpt lat="43.42275" lon="2.49815">
        <ele>840.400024414</ele>
        <time>2022-03-24T08:32:39Z</time>
      </trkpt>
      <trkpt lat="43.42289" lon="2.498">
        <ele>844.599975586</ele>
        <time>2022-03-24T08:32:52Z</time>
      </trkpt>
      <trkpt lat="43.42304" lon="2.49786">
        <ele>848.599975586</ele>
        <time>2022-03-24T08:33:06Z</time>
      </trkpt>
      <trkpt lat="43.42323" lon="2.49771">
        <ele>845.799987793</ele>
        <time>2022-03-24T08:33:21Z</time>
      </trkpt>
      <trkpt lat="43.42349" lon="2.49759">
        <ele>844.200012207</ele>
        <time>2022-03-24T08:33:38Z</time>
      </trkpt>
      <trkpt lat="43.42365" lon="2.49753">
        <ele>844.200012207</ele>
        <time>2022-03-24T08:33:51Z</time>
      </trkpt>
      <trkpt lat="43.42386" lon="2.49752">
        <ele>846</ele>
        <time>2022-03-24T08:34:07Z</time>
      </trkpt>
      <trkpt lat="43.42397" lon="2.4975">
        <ele>846.599975586</ele>
        <time>2022-03-24T08:34:16Z</time>
      </trkpt>
      <trkpt lat="43.42414" lon="2.49744">
        <ele>849</ele>
        <time>2022-03-24T08:34:30Z</time>
      </trkpt>
      <trkpt lat="43.42429" lon="2.49747">
        <ele>850.200012207</ele>
        <time>2022-03-24T08:34:54Z</time>
      </trkpt>
      <trkpt lat="43.42439" lon="2.49767">
        <ele>854.400024414</ele>
        <time>2022-03-24T08:35:16Z</time>
      </trkpt>
      <trkpt lat="43.42451" lon="2.49785">
        <ele>859.799987793</ele>
        <time>2022-03-24T08:35:37Z</time>
      </trkpt>
      <trkpt lat="43.42458" lon="2.49818">
        <ele>867.400024414</ele>
        <time>2022-03-24T08:35:58Z</time>
      </trkpt>
      <trkpt lat="43.42462" lon="2.4985">
        <ele>872</ele>
        <time>2022-03-24T08:36:17Z</time>
      </trkpt>
      <trkpt lat="43.42466" lon="2.49877">
        <ele>875.400024414</ele>
        <time>2022-03-24T08:36:38Z</time>
      </trkpt>
      <trkpt lat="43.42467" lon="2.49892">
        <ele>878.599975586</ele>
        <time>2022-03-24T08:36:51Z</time>
      </trkpt>
      <trkpt lat="43.42475" lon="2.49908">
        <ele>881.400024414</ele>
        <time>2022-03-24T08:37:03Z</time>
      </trkpt>
      <trkpt lat="43.42479" lon="2.49914">
        <ele>882.799987793</ele>
        <time>2022-03-24T08:37:11Z</time>
      </trkpt>
      <trkpt lat="43.4249" lon="2.49922">
        <ele>883</ele>
        <time>2022-03-24T08:37:21Z</time>
      </trkpt>
      <trkpt lat="43.4249" lon="2.49923">
        <ele>883.200012207</ele>
        <time>2022-03-24T08:37:37Z</time>
      </trkpt>
      <trkpt lat="43.42477" lon="2.49911">
        <ele>882.200012207</ele>
        <time>2022-03-24T08:37:53Z</time>
      </trkpt>
      <trkpt lat="43.42466" lon="2.49904">
        <ele>881.200012207</ele>
        <time>2022-03-24T08:38:05Z</time>
      </trkpt>
      <trkpt lat="43.42453" lon="2.49881">
        <ele>877.200012207</ele>
        <time>2022-03-24T08:38:22Z</time>
      </trkpt>
      <trkpt lat="43.42447" lon="2.49864">
        <ele>873.799987793</ele>
        <time>2022-03-24T08:38:39Z</time>
      </trkpt>
      <trkpt lat="43.42449" lon="2.49834">
        <ele>869.799987793</ele>
        <time>2022-03-24T08:38:57Z</time>
      </trkpt>
      <trkpt lat="43.42454" lon="2.49816">
        <ele>866.599975586</ele>
        <time>2022-03-24T08:39:14Z</time>
      </trkpt>
      <trkpt lat="43.42463" lon="2.49815">
        <ele>867.400024414</ele>
        <time>2022-03-24T08:39:33Z</time>
      </trkpt>
      <trkpt lat="43.4247" lon="2.49795">
        <ele>863.799987793</ele>
        <time>2022-03-24T08:39:49Z</time>
      </trkpt>
      <trkpt lat="43.42474" lon="2.49753">
        <ele>863.200012207</ele>
        <time>2022-03-24T08:40:11Z</time>
      </trkpt>
      <trkpt lat="43.4247" lon="2.49734">
        <ele>860.599975586</ele>
        <time>2022-03-24T08:40:22Z</time>
      </trkpt>
      <trkpt lat="43.42468" lon="2.49698">
        <ele>857.400024414</ele>
        <time>2022-03-24T08:40:44Z</time>
      </trkpt>
      <trkpt lat="43.42472" lon="2.49685">
        <ele>857.400024414</ele>
        <time>2022-03-24T08:41:05Z</time>
      </trkpt>
      <trkpt lat="43.42475" lon="2.49683">
        <ele>858.200012207</ele>
        <time>2022-03-24T08:41:48Z</time>
      </trkpt>
      <trkpt lat="43.42475" lon="2.4969">
        <ele>858.799987793</ele>
        <time>2022-03-24T08:42:33Z</time>
      </trkpt>
      <trkpt lat="43.42474" lon="2.4969">
        <ele>858.599975586</ele>
        <time>2022-03-24T08:42:57Z</time>
      </trkpt>
      <trkpt lat="43.4248" lon="2.49662">
        <ele>858.799987793</ele>
        <time>2022-03-24T08:43:38Z</time>
      </trkpt>
      <trkpt lat="43.42492" lon="2.49645">
        <ele>864.599975586</ele>
        <time>2022-03-24T08:43:53Z</time>
      </trkpt>
      <trkpt lat="43.42529" lon="2.49624">
        <ele>866.599975586</ele>
        <time>2022-03-24T08:44:21Z</time>
      </trkpt>
      <trkpt lat="43.42549" lon="2.49618">
        <ele>871.599975586</ele>
        <time>2022-03-24T08:44:35Z</time>
      </trkpt>
      <trkpt lat="43.42566" lon="2.49603">
        <ele>871.599975586</ele>
        <time>2022-03-24T08:44:52Z</time>
      </trkpt>
      <trkpt lat="43.42584" lon="2.49591">
        <ele>872</ele>
        <time>2022-03-24T08:45:05Z</time>
      </trkpt>
      <trkpt lat="43.42595" lon="2.49581">
        <ele>872.599975586</ele>
        <time>2022-03-24T08:45:16Z</time>
      </trkpt>
      <trkpt lat="43.42606" lon="2.49569">
        <ele>875</ele>
        <time>2022-03-24T08:45:28Z</time>
      </trkpt>
      <trkpt lat="43.42634" lon="2.49545">
        <ele>881.200012207</ele>
        <time>2022-03-24T08:45:50Z</time>
      </trkpt>
      <trkpt lat="43.42668" lon="2.49544">
        <ele>882.200012207</ele>
        <time>2022-03-24T08:46:13Z</time>
      </trkpt>
      <trkpt lat="43.42696" lon="2.49548">
        <ele>882.400024414</ele>
        <time>2022-03-24T08:46:29Z</time>
      </trkpt>
      <trkpt lat="43.42717" lon="2.49559">
        <ele>884.200012207</ele>
        <time>2022-03-24T08:46:44Z</time>
      </trkpt>
      <trkpt lat="43.4273" lon="2.49564">
        <ele>885</ele>
        <time>2022-03-24T08:46:54Z</time>
      </trkpt>
      <trkpt lat="43.42751" lon="2.49576">
        <ele>887</ele>
        <time>2022-03-24T08:47:11Z</time>
      </trkpt>
      <trkpt lat="43.42768" lon="2.49581">
        <ele>888</ele>
        <time>2022-03-24T08:47:26Z</time>
      </trkpt>
      <trkpt lat="43.42784" lon="2.49595">
        <ele>891</ele>
        <time>2022-03-24T08:47:39Z</time>
      </trkpt>
      <trkpt lat="43.42793" lon="2.49601">
        <ele>892.599975586</ele>
        <time>2022-03-24T08:47:49Z</time>
      </trkpt>
      <trkpt lat="43.42811" lon="2.49608">
        <ele>895.200012207</ele>
        <time>2022-03-24T08:48:09Z</time>
      </trkpt>
      <trkpt lat="43.42827" lon="2.4962">
        <ele>898</ele>
        <time>2022-03-24T08:48:23Z</time>
      </trkpt>
      <trkpt lat="43.42826" lon="2.49602">
        <ele>895.599975586</ele>
        <time>2022-03-24T08:48:43Z</time>
      </trkpt>
      <trkpt lat="43.42838" lon="2.49558">
        <ele>890.799987793</ele>
        <time>2022-03-24T08:49:06Z</time>
      </trkpt>
      <trkpt lat="43.42855" lon="2.49543">
        <ele>890.799987793</ele>
        <time>2022-03-24T08:49:25Z</time>
      </trkpt>
      <trkpt lat="43.42883" lon="2.49522">
        <ele>892.799987793</ele>
        <time>2022-03-24T08:49:46Z</time>
      </trkpt>
      <trkpt lat="43.42926" lon="2.49502">
        <ele>896.400024414</ele>
        <time>2022-03-24T08:50:15Z</time>
      </trkpt>
      <trkpt lat="43.42962" lon="2.49496">
        <ele>901</ele>
        <time>2022-03-24T08:50:43Z</time>
      </trkpt>
      <trkpt lat="43.42989" lon="2.495">
        <ele>904.599975586</ele>
        <time>2022-03-24T08:51:04Z</time>
      </trkpt>
      <trkpt lat="43.43014" lon="2.49496">
        <ele>908</ele>
        <time>2022-03-24T08:51:23Z</time>
      </trkpt>
      <trkpt lat="43.43035" lon="2.49495">
        <ele>910.799987793</ele>
        <time>2022-03-24T08:51:39Z</time>
      </trkpt>
      <trkpt lat="43.43055" lon="2.49496">
        <ele>913.400024414</ele>
        <time>2022-03-24T08:51:53Z</time>
      </trkpt>
      <trkpt lat="43.43087" lon="2.49491">
        <ele>917.799987793</ele>
        <time>2022-03-24T08:52:18Z</time>
      </trkpt>
      <trkpt lat="43.43105" lon="2.49484">
        <ele>921.799987793</ele>
        <time>2022-03-24T08:52:35Z</time>
      </trkpt>
      <trkpt lat="43.43113" lon="2.4948">
        <ele>923.400024414</ele>
        <time>2022-03-24T08:52:53Z</time>
      </trkpt>
      <trkpt lat="43.431" lon="2.49489">
        <ele>920.400024414</ele>
        <time>2022-03-24T08:53:05Z</time>
      </trkpt>
      <trkpt lat="43.4309" lon="2.49493">
        <ele>918.200012207</ele>
        <time>2022-03-24T08:53:16Z</time>
      </trkpt>
      <trkpt lat="43.43081" lon="2.49486">
        <ele>917.200012207</ele>
        <time>2022-03-24T08:53:31Z</time>
      </trkpt>
      <trkpt lat="43.4307" lon="2.49465">
        <ele>917.200012207</ele>
        <time>2022-03-24T08:53:45Z</time>
      </trkpt>
      <trkpt lat="43.43055" lon="2.49435">
        <ele>917.599975586</ele>
        <time>2022-03-24T08:54:01Z</time>
      </trkpt>
      <trkpt lat="43.43048" lon="2.49419">
        <ele>917.799987793</ele>
        <time>2022-03-24T08:54:11Z</time>
      </trkpt>
      <trkpt lat="43.43035" lon="2.49409">
        <ele>916.400024414</ele>
        <time>2022-03-24T08:54:19Z</time>
      </trkpt>
      <trkpt lat="43.43019" lon="2.49383">
        <ele>915.599975586</ele>
        <time>2022-03-24T08:54:35Z</time>
      </trkpt>
      <trkpt lat="43.43017" lon="2.49345">
        <ele>918.400024414</ele>
        <time>2022-03-24T08:54:53Z</time>
      </trkpt>
      <trkpt lat="43.4302" lon="2.49332">
        <ele>920.200012207</ele>
        <time>2022-03-24T08:55:02Z</time>
      </trkpt>
      <trkpt lat="43.43048" lon="2.49315">
        <ele>928.599975586</ele>
        <time>2022-03-24T08:55:24Z</time>
      </trkpt>
      <trkpt lat="43.43073" lon="2.49306">
        <ele>934.599975586</ele>
        <time>2022-03-24T08:55:45Z</time>
      </trkpt>
      <trkpt lat="43.43097" lon="2.49286">
        <ele>934</ele>
        <time>2022-03-24T08:56:06Z</time>
      </trkpt>
      <trkpt lat="43.43122" lon="2.49254">
        <ele>938.200012207</ele>
        <time>2022-03-24T08:56:32Z</time>
      </trkpt>
      <trkpt lat="43.43132" lon="2.49236">
        <ele>941.799987793</ele>
        <time>2022-03-24T08:56:45Z</time>
      </trkpt>
      <trkpt lat="43.43145" lon="2.49203">
        <ele>947</ele>
        <time>2022-03-24T08:57:06Z</time>
      </trkpt>
      <trkpt lat="43.43161" lon="2.49166">
        <ele>944</ele>
        <time>2022-03-24T08:57:31Z</time>
      </trkpt>
      <trkpt lat="43.43181" lon="2.49134">
        <ele>944.799987793</ele>
        <time>2022-03-24T08:57:56Z</time>
      </trkpt>
      <trkpt lat="43.43193" lon="2.49112">
        <ele>947.599975586</ele>
        <time>2022-03-24T08:58:11Z</time>
      </trkpt>
      <trkpt lat="43.4322" lon="2.49086">
        <ele>950.400024414</ele>
        <time>2022-03-24T08:58:35Z</time>
      </trkpt>
      <trkpt lat="43.43241" lon="2.49094">
        <ele>952.400024414</ele>
        <time>2022-03-24T08:58:50Z</time>
      </trkpt>
      <trkpt lat="43.43255" lon="2.49126">
        <ele>955.200012207</ele>
        <time>2022-03-24T08:59:11Z</time>
      </trkpt>
      <trkpt lat="43.43272" lon="2.49132">
        <ele>957.200012207</ele>
        <time>2022-03-24T08:59:23Z</time>
      </trkpt>
      <trkpt lat="43.4329" lon="2.49159">
        <ele>961</ele>
        <time>2022-03-24T08:59:42Z</time>
      </trkpt>
      <trkpt lat="43.43317" lon="2.49193">
        <ele>966.799987793</ele>
        <time>2022-03-24T09:00:15Z</time>
      </trkpt>
      <trkpt lat="43.43338" lon="2.49196">
        <ele>969.599975586</ele>
        <time>2022-03-24T09:00:36Z</time>
      </trkpt>
      <trkpt lat="43.43355" lon="2.49203">
        <ele>972.200012207</ele>
        <time>2022-03-24T09:00:52Z</time>
      </trkpt>
      <trkpt lat="43.43369" lon="2.49203">
        <ele>973.200012207</ele>
        <time>2022-03-24T09:01:04Z</time>
      </trkpt>
      <trkpt lat="43.43388" lon="2.49213">
        <ele>975.599975586</ele>
        <time>2022-03-24T09:01:20Z</time>
      </trkpt>
      <trkpt lat="43.4341" lon="2.49227">
        <ele>978.599975586</ele>
        <time>2022-03-24T09:01:39Z</time>
      </trkpt>
      <trkpt lat="43.43438" lon="2.49245">
        <ele>982.200012207</ele>
        <time>2022-03-24T09:02:00Z</time>
      </trkpt>
      <trkpt lat="43.43467" lon="2.49259">
        <ele>985</ele>
        <time>2022-03-24T09:02:27Z</time>
      </trkpt>
      <trkpt lat="43.4349" lon="2.49315">
        <ele>989.200012207</ele>
        <time>2022-03-24T09:03:04Z</time>
      </trkpt>
      <trkpt lat="43.43525" lon="2.49288">
        <ele>991.799987793</ele>
        <time>2022-03-24T09:03:43Z</time>
      </trkpt>
      <trkpt lat="43.43525" lon="2.49289">
        <ele>991.799987793</ele>
        <time>2022-03-24T09:04:11Z</time>
      </trkpt>
      <trkpt lat="43.4354" lon="2.49271">
        <ele>994.400024414</ele>
        <time>2022-03-24T09:05:06Z</time>
      </trkpt>
      <trkpt lat="43.4356" lon="2.49235">
        <ele>999.400024414</ele>
        <time>2022-03-24T09:05:30Z</time>
      </trkpt>
      <trkpt lat="43.43561" lon="2.49207">
        <ele>1001.40002441</ele>
        <time>2022-03-24T09:05:44Z</time>
      </trkpt>
      <trkpt lat="43.43581" lon="2.49137">
        <ele>1010.59997559</ele>
        <time>2022-03-24T09:06:26Z</time>
      </trkpt>
      <trkpt lat="43.43557" lon="2.49099">
        <ele>1008.59997559</ele>
        <time>2022-03-24T09:07:01Z</time>
      </trkpt>
      <trkpt lat="43.43542" lon="2.49034">
        <ele>1009.59997559</ele>
        <time>2022-03-24T09:07:37Z</time>
      </trkpt>
      <trkpt lat="43.43539" lon="2.4899">
        <ele>1011.59997559</ele>
        <time>2022-03-24T09:07:58Z</time>
      </trkpt>
      <trkpt lat="43.43537" lon="2.48898">
        <ele>1011.79998779</ele>
        <time>2022-03-24T09:08:44Z</time>
      </trkpt>
      <trkpt lat="43.43545" lon="2.48807">
        <ele>1013</ele>
        <time>2022-03-24T09:09:29Z</time>
      </trkpt>
      <trkpt lat="43.43555" lon="2.48751">
        <ele>1014</ele>
        <time>2022-03-24T09:09:59Z</time>
      </trkpt>
      <trkpt lat="43.43595" lon="2.48713">
        <ele>1023.59997559</ele>
        <time>2022-03-24T09:10:33Z</time>
      </trkpt>
      <trkpt lat="43.43608" lon="2.48671">
        <ele>1025.59997559</ele>
        <time>2022-03-24T09:10:57Z</time>
      </trkpt>
      <trkpt lat="43.43612" lon="2.48651">
        <ele>1026.40002441</ele>
        <time>2022-03-24T09:11:19Z</time>
      </trkpt>
      <trkpt lat="43.43622" lon="2.48597">
        <ele>1029.19995117</ele>
        <time>2022-03-24T09:11:50Z</time>
      </trkpt>
      <trkpt lat="43.43628" lon="2.48546">
        <ele>1030.59997559</ele>
        <time>2022-03-24T09:12:18Z</time>
      </trkpt>
      <trkpt lat="43.43638" lon="2.48496">
        <ele>1034</ele>
        <time>2022-03-24T09:12:48Z</time>
      </trkpt>
      <trkpt lat="43.43659" lon="2.48442">
        <ele>1038.19995117</ele>
        <time>2022-03-24T09:13:20Z</time>
      </trkpt>
      <trkpt lat="43.4367" lon="2.48406">
        <ele>1041.80004883</ele>
        <time>2022-03-24T09:13:41Z</time>
      </trkpt>
      <trkpt lat="43.4368" lon="2.48357">
        <ele>1048.19995117</ele>
        <time>2022-03-24T09:14:14Z</time>
      </trkpt>
      <trkpt lat="43.4368" lon="2.48328">
        <ele>1051</ele>
        <time>2022-03-24T09:14:30Z</time>
      </trkpt>
      <trkpt lat="43.43682" lon="2.48298">
        <ele>1054.59997559</ele>
        <time>2022-03-24T09:14:48Z</time>
      </trkpt>
      <trkpt lat="43.43681" lon="2.48276">
        <ele>1056.80004883</ele>
        <time>2022-03-24T09:15:01Z</time>
      </trkpt>
      <trkpt lat="43.43681" lon="2.48229">
        <ele>1060.59997559</ele>
        <time>2022-03-24T09:15:24Z</time>
      </trkpt>
      <trkpt lat="43.43683" lon="2.48173">
        <ele>1062.80004883</ele>
        <time>2022-03-24T09:15:53Z</time>
      </trkpt>
      <trkpt lat="43.43691" lon="2.4811">
        <ele>1064</ele>
        <time>2022-03-24T09:16:25Z</time>
      </trkpt>
      <trkpt lat="43.43689" lon="2.48088">
        <ele>1064.59997559</ele>
        <time>2022-03-24T09:16:37Z</time>
      </trkpt>
      <trkpt lat="43.43682" lon="2.48054">
        <ele>1066</ele>
        <time>2022-03-24T09:16:55Z</time>
      </trkpt>
      <trkpt lat="43.43679" lon="2.48026">
        <ele>1066.40002441</ele>
        <time>2022-03-24T09:17:09Z</time>
      </trkpt>
      <trkpt lat="43.43682" lon="2.47982">
        <ele>1068.80004883</ele>
        <time>2022-03-24T09:17:31Z</time>
      </trkpt>
      <trkpt lat="43.43681" lon="2.47956">
        <ele>1069.80004883</ele>
        <time>2022-03-24T09:17:44Z</time>
      </trkpt>
      <trkpt lat="43.43677" lon="2.4794">
        <ele>1070</ele>
        <time>2022-03-24T09:17:53Z</time>
      </trkpt>
      <trkpt lat="43.43667" lon="2.47908">
        <ele>1070.19995117</ele>
        <time>2022-03-24T09:18:10Z</time>
      </trkpt>
      <trkpt lat="43.43666" lon="2.47868">
        <ele>1073.19995117</ele>
        <time>2022-03-24T09:18:30Z</time>
      </trkpt>
      <trkpt lat="43.43655" lon="2.47831">
        <ele>1074.40002441</ele>
        <time>2022-03-24T09:18:53Z</time>
      </trkpt>
      <trkpt lat="43.43652" lon="2.47781">
        <ele>1076.59997559</ele>
        <time>2022-03-24T09:19:21Z</time>
      </trkpt>
      <trkpt lat="43.43657" lon="2.47725">
        <ele>1080.40002441</ele>
        <time>2022-03-24T09:19:51Z</time>
      </trkpt>
      <trkpt lat="43.43662" lon="2.47692">
        <ele>1083.19995117</ele>
        <time>2022-03-24T09:20:11Z</time>
      </trkpt>
      <trkpt lat="43.43659" lon="2.47673">
        <ele>1084</ele>
        <time>2022-03-24T09:20:21Z</time>
      </trkpt>
      <trkpt lat="43.43667" lon="2.47623">
        <ele>1089.40002441</ele>
        <time>2022-03-24T09:20:46Z</time>
      </trkpt>
      <trkpt lat="43.43669" lon="2.47592">
        <ele>1093</ele>
        <time>2022-03-24T09:21:05Z</time>
      </trkpt>
      <trkpt lat="43.4367" lon="2.47527">
        <ele>1099.59997559</ele>
        <time>2022-03-24T09:21:42Z</time>
      </trkpt>
      <trkpt lat="43.43688" lon="2.47505">
        <ele>1104.59997559</ele>
        <time>2022-03-24T09:22:00Z</time>
      </trkpt>
      <trkpt lat="43.43703" lon="2.47486">
        <ele>1107.40002441</ele>
        <time>2022-03-24T09:22:17Z</time>
      </trkpt>
      <trkpt lat="43.43721" lon="2.47448">
        <ele>1113.80004883</ele>
        <time>2022-03-24T09:22:44Z</time>
      </trkpt>
      <trkpt lat="43.43727" lon="2.47438">
        <ele>1115.40002441</ele>
        <time>2022-03-24T09:23:18Z</time>
      </trkpt>
      <trkpt lat="43.43719" lon="2.47439">
        <ele>1115.19995117</ele>
        <time>2022-03-24T09:23:45Z</time>
      </trkpt>
      <trkpt lat="43.43697" lon="2.47436">
        <ele>1115.80004883</ele>
        <time>2022-03-24T09:24:03Z</time>
      </trkpt>
      <trkpt lat="43.43674" lon="2.47424">
        <ele>1116.40002441</ele>
        <time>2022-03-24T09:24:24Z</time>
      </trkpt>
      <trkpt lat="43.43661" lon="2.47421">
        <ele>1114.80004883</ele>
        <time>2022-03-24T09:24:35Z</time>
      </trkpt>
      <trkpt lat="43.43635" lon="2.47399">
        <ele>1115.40002441</ele>
        <time>2022-03-24T09:24:55Z</time>
      </trkpt>
      <trkpt lat="43.43616" lon="2.47365">
        <ele>1119.80004883</ele>
        <time>2022-03-24T09:25:15Z</time>
      </trkpt>
      <trkpt lat="43.43607" lon="2.47345">
        <ele>1122.59997559</ele>
        <time>2022-03-24T09:25:25Z</time>
      </trkpt>
      <trkpt lat="43.43593" lon="2.47286">
        <ele>1129</ele>
        <time>2022-03-24T09:25:55Z</time>
      </trkpt>
      <trkpt lat="43.43582" lon="2.47249">
        <ele>1132.19995117</ele>
        <time>2022-03-24T09:26:16Z</time>
      </trkpt>
      <trkpt lat="43.43562" lon="2.47221">
        <ele>1134</ele>
        <time>2022-03-24T09:26:38Z</time>
      </trkpt>
      <trkpt lat="43.43555" lon="2.47207">
        <ele>1135.40002441</ele>
        <time>2022-03-24T09:26:48Z</time>
      </trkpt>
      <trkpt lat="43.43543" lon="2.4717">
        <ele>1138.40002441</ele>
        <time>2022-03-24T09:27:10Z</time>
      </trkpt>
      <trkpt lat="43.43553" lon="2.47123">
        <ele>1146.40002441</ele>
        <time>2022-03-24T09:27:39Z</time>
      </trkpt>
      <trkpt lat="43.43562" lon="2.47102">
        <ele>1148.59997559</ele>
        <time>2022-03-24T09:27:57Z</time>
      </trkpt>
      <trkpt lat="43.43554" lon="2.4708">
        <ele>1150.59997559</ele>
        <time>2022-03-24T09:28:14Z</time>
      </trkpt>
      <trkpt lat="43.43544" lon="2.4705">
        <ele>1152.59997559</ele>
        <time>2022-03-24T09:28:35Z</time>
      </trkpt>
      <trkpt lat="43.43535" lon="2.46997">
        <ele>1156.19995117</ele>
        <time>2022-03-24T09:29:05Z</time>
      </trkpt>
      <trkpt lat="43.43527" lon="2.46951">
        <ele>1154.40002441</ele>
        <time>2022-03-24T09:29:43Z</time>
      </trkpt>
      <trkpt lat="43.43502" lon="2.46945">
        <ele>1154.80004883</ele>
        <time>2022-03-24T09:30:05Z</time>
      </trkpt>
      <trkpt lat="43.43496" lon="2.46944">
        <ele>1155</ele>
        <time>2022-03-24T09:30:45Z</time>
      </trkpt>
      <trkpt lat="43.4349" lon="2.46942">
        <ele>1155.19995117</ele>
        <time>2022-03-24T09:31:09Z</time>
      </trkpt>
      <trkpt lat="43.43444" lon="2.46903">
        <ele>1155.59997559</ele>
        <time>2022-03-24T09:31:45Z</time>
      </trkpt>
      <trkpt lat="43.43385" lon="2.4687">
        <ele>1155.40002441</ele>
        <time>2022-03-24T09:32:28Z</time>
      </trkpt>
      <trkpt lat="43.43332" lon="2.46854">
        <ele>1155.80004883</ele>
        <time>2022-03-24T09:33:04Z</time>
      </trkpt>
      <trkpt lat="43.43267" lon="2.46846">
        <ele>1154.80004883</ele>
        <time>2022-03-24T09:33:48Z</time>
      </trkpt>
      <trkpt lat="43.43235" lon="2.4685">
        <ele>1153.40002441</ele>
        <time>2022-03-24T09:34:10Z</time>
      </trkpt>
      <trkpt lat="43.43206" lon="2.46849">
        <ele>1152</ele>
        <time>2022-03-24T09:34:44Z</time>
      </trkpt>
      <trkpt lat="43.43171" lon="2.46836">
        <ele>1150.59997559</ele>
        <time>2022-03-24T09:35:10Z</time>
      </trkpt>
      <trkpt lat="43.43144" lon="2.46834">
        <ele>1151.40002441</ele>
        <time>2022-03-24T09:35:31Z</time>
      </trkpt>
      <trkpt lat="43.4311" lon="2.46812">
        <ele>1150.80004883</ele>
        <time>2022-03-24T09:35:56Z</time>
      </trkpt>
      <trkpt lat="43.43054" lon="2.46775">
        <ele>1149.80004883</ele>
        <time>2022-03-24T09:36:40Z</time>
      </trkpt>
      <trkpt lat="43.43032" lon="2.46749">
        <ele>1148.40002441</ele>
        <time>2022-03-24T09:37:00Z</time>
      </trkpt>
      <trkpt lat="43.43012" lon="2.46742">
        <ele>1148.80004883</ele>
        <time>2022-03-24T09:37:14Z</time>
      </trkpt>
      <trkpt lat="43.43003" lon="2.46742">
        <ele>1149.59997559</ele>
        <time>2022-03-24T09:37:20Z</time>
      </trkpt>
      <trkpt lat="43.42979" lon="2.46734">
        <ele>1150.80004883</ele>
        <time>2022-03-24T09:37:38Z</time>
      </trkpt>
      <trkpt lat="43.42967" lon="2.46735">
        <ele>1151.59997559</ele>
        <time>2022-03-24T09:37:48Z</time>
      </trkpt>
      <trkpt lat="43.42958" lon="2.46715">
        <ele>1151.59997559</ele>
        <time>2022-03-24T09:38:10Z</time>
      </trkpt>
      <trkpt lat="43.42937" lon="2.46674">
        <ele>1151.80004883</ele>
        <time>2022-03-24T09:38:37Z</time>
      </trkpt>
      <trkpt lat="43.42914" lon="2.46657">
        <ele>1154.59997559</ele>
        <time>2022-03-24T09:38:58Z</time>
      </trkpt>
      <trkpt lat="43.429" lon="2.46644">
        <ele>1156.59997559</ele>
        <time>2022-03-24T09:39:13Z</time>
      </trkpt>
      <trkpt lat="43.42882" lon="2.46629">
        <ele>1159.19995117</ele>
        <time>2022-03-24T09:39:31Z</time>
      </trkpt>
      <trkpt lat="43.42851" lon="2.46605">
        <ele>1163.80004883</ele>
        <time>2022-03-24T09:40:07Z</time>
      </trkpt>
      <trkpt lat="43.42826" lon="2.46586">
        <ele>1167.59997559</ele>
        <time>2022-03-24T09:40:35Z</time>
      </trkpt>
      <trkpt lat="43.42806" lon="2.46571">
        <ele>1170.40002441</ele>
        <time>2022-03-24T09:40:56Z</time>
      </trkpt>
      <trkpt lat="43.42792" lon="2.46558">
        <ele>1172.19995117</ele>
        <time>2022-03-24T09:41:11Z</time>
      </trkpt>
      <trkpt lat="43.42762" lon="2.46535">
        <ele>1176.19995117</ele>
        <time>2022-03-24T09:41:40Z</time>
      </trkpt>
      <trkpt lat="43.42743" lon="2.46525">
        <ele>1177.80004883</ele>
        <time>2022-03-24T09:42:13Z</time>
      </trkpt>
      <trkpt lat="43.42743" lon="2.46525">
        <ele>1177.80004883</ele>
        <time>2022-03-24T09:42:34Z</time>
      </trkpt>
      <trkpt lat="43.42743" lon="2.46525">
        <ele>1177.80004883</ele>
        <time>2022-03-24T09:42:57Z</time>
      </trkpt>
      <trkpt lat="43.42699" lon="2.46496">
        <ele>1181.40002441</ele>
        <time>2022-03-24T09:44:00Z</time>
      </trkpt>
      <trkpt lat="43.42653" lon="2.46467">
        <ele>1186.40002441</ele>
        <time>2022-03-24T09:44:36Z</time>
      </trkpt>
      <trkpt lat="43.42625" lon="2.46453">
        <ele>1189.80004883</ele>
        <time>2022-03-24T09:44:58Z</time>
      </trkpt>
      <trkpt lat="43.42575" lon="2.46422">
        <ele>1195.80004883</ele>
        <time>2022-03-24T09:45:39Z</time>
      </trkpt>
      <trkpt lat="43.42554" lon="2.464">
        <ele>1199.40002441</ele>
        <time>2022-03-24T09:46:00Z</time>
      </trkpt>
      <trkpt lat="43.4254" lon="2.46379">
        <ele>1202.19995117</ele>
        <time>2022-03-24T09:46:17Z</time>
      </trkpt>
      <trkpt lat="43.42534" lon="2.46384">
        <ele>1202.59997559</ele>
        <time>2022-03-24T09:47:13Z</time>
      </trkpt>
      <trkpt lat="43.42515" lon="2.46409">
        <ele>1203.40002441</ele>
        <time>2022-03-24T09:47:31Z</time>
      </trkpt>
      <trkpt lat="43.42503" lon="2.4642">
        <ele>1203.19995117</ele>
        <time>2022-03-24T09:47:42Z</time>
      </trkpt>
      <trkpt lat="43.42468" lon="2.46425">
        <ele>1203.80004883</ele>
        <time>2022-03-24T09:48:08Z</time>
      </trkpt>
      <trkpt lat="43.42422" lon="2.4636">
        <ele>1207.40002441</ele>
        <time>2022-03-24T09:48:59Z</time>
      </trkpt>
      <trkpt lat="43.4241" lon="2.4636">
        <ele>1204.80004883</ele>
        <time>2022-03-24T09:49:39Z</time>
      </trkpt>
      <trkpt lat="43.42412" lon="2.46359">
        <ele>1205.59997559</ele>
        <time>2022-03-24T09:50:17Z</time>
      </trkpt>
      <trkpt lat="43.42413" lon="2.46359">
        <ele>1205.59997559</ele>
        <time>2022-03-24T09:50:31Z</time>
      </trkpt>
      <trkpt lat="43.42413" lon="2.46359">
        <ele>1205.59997559</ele>
        <time>2022-03-24T09:51:27Z</time>
      </trkpt>
      <trkpt lat="43.42412" lon="2.46357">
        <ele>1205.59997559</ele>
        <time>2022-03-24T09:52:44Z</time>
      </trkpt>
      <trkpt lat="43.42392" lon="2.4636">
        <ele>1201</ele>
        <time>2022-03-24T09:53:11Z</time>
      </trkpt>
      <trkpt lat="43.42362" lon="2.46362">
        <ele>1195</ele>
        <time>2022-03-24T09:53:39Z</time>
      </trkpt>
      <trkpt lat="43.42326" lon="2.46387">
        <ele>1186</ele>
        <time>2022-03-24T09:54:13Z</time>
      </trkpt>
      <trkpt lat="43.42297" lon="2.4641">
        <ele>1179.59997559</ele>
        <time>2022-03-24T09:54:41Z</time>
      </trkpt>
      <trkpt lat="43.42297" lon="2.4641">
        <ele>1179.40002441</ele>
        <time>2022-03-24T09:55:07Z</time>
      </trkpt>
      <trkpt lat="43.42291" lon="2.46416">
        <ele>1178.19995117</ele>
        <time>2022-03-24T09:55:28Z</time>
      </trkpt>
      <trkpt lat="43.42254" lon="2.46433">
        <ele>1169.80004883</ele>
        <time>2022-03-24T09:55:59Z</time>
      </trkpt>
      <trkpt lat="43.42202" lon="2.46438">
        <ele>1158.19995117</ele>
        <time>2022-03-24T09:56:42Z</time>
      </trkpt>
      <trkpt lat="43.42163" lon="2.46427">
        <ele>1151.80004883</ele>
        <time>2022-03-24T09:57:11Z</time>
      </trkpt>
      <trkpt lat="43.42128" lon="2.4641">
        <ele>1145.40002441</ele>
        <time>2022-03-24T09:57:41Z</time>
      </trkpt>
      <trkpt lat="43.42088" lon="2.46392">
        <ele>1138.59997559</ele>
        <time>2022-03-24T09:58:11Z</time>
      </trkpt>
      <trkpt lat="43.42061" lon="2.46341">
        <ele>1132.80004883</ele>
        <time>2022-03-24T09:58:44Z</time>
      </trkpt>
      <trkpt lat="43.42037" lon="2.46307">
        <ele>1129</ele>
        <time>2022-03-24T09:59:09Z</time>
      </trkpt>
      <trkpt lat="43.41987" lon="2.46255">
        <ele>1122.59997559</ele>
        <time>2022-03-24T09:59:51Z</time>
      </trkpt>
      <trkpt lat="43.41945" lon="2.46205">
        <ele>1117.59997559</ele>
        <time>2022-03-24T10:00:31Z</time>
      </trkpt>
      <trkpt lat="43.41904" lon="2.46163">
        <ele>1111.40002441</ele>
        <time>2022-03-24T10:01:08Z</time>
      </trkpt>
      <trkpt lat="43.41868" lon="2.4613">
        <ele>1104.59997559</ele>
        <time>2022-03-24T10:01:45Z</time>
      </trkpt>
      <trkpt lat="43.41849" lon="2.46109">
        <ele>1101</ele>
        <time>2022-03-24T10:02:07Z</time>
      </trkpt>
      <trkpt lat="43.41821" lon="2.46073">
        <ele>1095.19995117</ele>
        <time>2022-03-24T10:02:40Z</time>
      </trkpt>
      <trkpt lat="43.41791" lon="2.46041">
        <ele>1090.19995117</ele>
        <time>2022-03-24T10:03:09Z</time>
      </trkpt>
      <trkpt lat="43.41761" lon="2.46009">
        <ele>1084.80004883</ele>
        <time>2022-03-24T10:03:40Z</time>
      </trkpt>
      <trkpt lat="43.4173" lon="2.45972">
        <ele>1078.40002441</ele>
        <time>2022-03-24T10:04:15Z</time>
      </trkpt>
      <trkpt lat="43.41712" lon="2.45956">
        <ele>1074.59997559</ele>
        <time>2022-03-24T10:04:35Z</time>
      </trkpt>
      <trkpt lat="43.41687" lon="2.45933">
        <ele>1069.80004883</ele>
        <time>2022-03-24T10:05:00Z</time>
      </trkpt>
      <trkpt lat="43.4167" lon="2.45913">
        <ele>1066.80004883</ele>
        <time>2022-03-24T10:05:19Z</time>
      </trkpt>
      <trkpt lat="43.41642" lon="2.45888">
        <ele>1064.40002441</ele>
        <time>2022-03-24T10:05:43Z</time>
      </trkpt>
      <trkpt lat="43.41614" lon="2.45858">
        <ele>1062.19995117</ele>
        <time>2022-03-24T10:06:11Z</time>
      </trkpt>
      <trkpt lat="43.41584" lon="2.45827">
        <ele>1060</ele>
        <time>2022-03-24T10:06:38Z</time>
      </trkpt>
      <trkpt lat="43.41535" lon="2.45778">
        <ele>1057</ele>
        <time>2022-03-24T10:07:25Z</time>
      </trkpt>
      <trkpt lat="43.4154" lon="2.45773">
        <ele>1057.40002441</ele>
        <time>2022-03-24T10:07:41Z</time>
      </trkpt>
      <trkpt lat="43.41524" lon="2.45785">
        <ele>1055.80004883</ele>
        <time>2022-03-24T10:08:14Z</time>
      </trkpt>
      <trkpt lat="43.41516" lon="2.45757">
        <ele>1056</ele>
        <time>2022-03-24T10:08:36Z</time>
      </trkpt>
      <trkpt lat="43.41503" lon="2.45735">
        <ele>1052.59997559</ele>
        <time>2022-03-24T10:08:55Z</time>
      </trkpt>
      <trkpt lat="43.41493" lon="2.45713">
        <ele>1049.40002441</ele>
        <time>2022-03-24T10:09:21Z</time>
      </trkpt>
      <trkpt lat="43.4147" lon="2.4571">
        <ele>1044.40002441</ele>
        <time>2022-03-24T10:09:57Z</time>
      </trkpt>
      <trkpt lat="43.4147" lon="2.457">
        <ele>1043.59997559</ele>
        <time>2022-03-24T10:11:07Z</time>
      </trkpt>
      <trkpt lat="43.4147" lon="2.45694">
        <ele>1043.59997559</ele>
        <time>2022-03-24T10:11:27Z</time>
      </trkpt>
      <trkpt lat="43.41472" lon="2.45708">
        <ele>1044.59997559</ele>
        <time>2022-03-24T10:11:55Z</time>
      </trkpt>
      <trkpt lat="43.41467" lon="2.4571">
        <ele>1043.80004883</ele>
        <time>2022-03-24T10:12:54Z</time>
      </trkpt>
      <trkpt lat="43.41467" lon="2.45708">
        <ele>1043.59997559</ele>
        <time>2022-03-24T10:13:20Z</time>
      </trkpt>
      <trkpt lat="43.41469" lon="2.45709">
        <ele>1044</ele>
        <time>2022-03-24T10:14:04Z</time>
      </trkpt>
      <trkpt lat="43.41464" lon="2.45742">
        <ele>1045</ele>
        <time>2022-03-24T10:15:04Z</time>
      </trkpt>
      <trkpt lat="43.41465" lon="2.45768">
        <ele>1045.19995117</ele>
        <time>2022-03-24T10:15:21Z</time>
      </trkpt>
      <trkpt lat="43.41446" lon="2.4578">
        <ele>1041.80004883</ele>
        <time>2022-03-24T10:15:39Z</time>
      </trkpt>
      <trkpt lat="43.41426" lon="2.4578">
        <ele>1038</ele>
        <time>2022-03-24T10:15:58Z</time>
      </trkpt>
      <trkpt lat="43.41401" lon="2.45777">
        <ele>1031.59997559</ele>
        <time>2022-03-24T10:16:24Z</time>
      </trkpt>
      <trkpt lat="43.41381" lon="2.4575">
        <ele>1026.19995117</ele>
        <time>2022-03-24T10:16:52Z</time>
      </trkpt>
      <trkpt lat="43.41369" lon="2.45714">
        <ele>1020.59997559</ele>
        <time>2022-03-24T10:17:17Z</time>
      </trkpt>
      <trkpt lat="43.41368" lon="2.45708">
        <ele>1019.79998779</ele>
        <time>2022-03-24T10:17:36Z</time>
      </trkpt>
      <trkpt lat="43.41349" lon="2.45679">
        <ele>1013</ele>
        <time>2022-03-24T10:18:16Z</time>
      </trkpt>
      <trkpt lat="43.41331" lon="2.45654">
        <ele>1005.79998779</ele>
        <time>2022-03-24T10:18:40Z</time>
      </trkpt>
      <trkpt lat="43.4133" lon="2.45627">
        <ele>1003</ele>
        <time>2022-03-24T10:18:56Z</time>
      </trkpt>
      <trkpt lat="43.41329" lon="2.45607">
        <ele>1000.79998779</ele>
        <time>2022-03-24T10:19:10Z</time>
      </trkpt>
      <trkpt lat="43.41326" lon="2.45583">
        <ele>997.799987793</ele>
        <time>2022-03-24T10:19:27Z</time>
      </trkpt>
      <trkpt lat="43.41322" lon="2.45568">
        <ele>994.599975586</ele>
        <time>2022-03-24T10:19:40Z</time>
      </trkpt>
      <trkpt lat="43.41316" lon="2.45554">
        <ele>991.200012207</ele>
        <time>2022-03-24T10:19:53Z</time>
      </trkpt>
      <trkpt lat="43.41307" lon="2.45535">
        <ele>986.400024414</ele>
        <time>2022-03-24T10:20:13Z</time>
      </trkpt>
      <trkpt lat="43.41298" lon="2.45524">
        <ele>982.400024414</ele>
        <time>2022-03-24T10:20:26Z</time>
      </trkpt>
      <trkpt lat="43.4129" lon="2.4552">
        <ele>979.599975586</ele>
        <time>2022-03-24T10:20:39Z</time>
      </trkpt>
      <trkpt lat="43.41274" lon="2.45514">
        <ele>974.400024414</ele>
        <time>2022-03-24T10:21:00Z</time>
      </trkpt>
      <trkpt lat="43.41272" lon="2.45501">
        <ele>972</ele>
        <time>2022-03-24T10:21:09Z</time>
      </trkpt>
      <trkpt lat="43.41267" lon="2.4549">
        <ele>969.200012207</ele>
        <time>2022-03-24T10:21:20Z</time>
      </trkpt>
      <trkpt lat="43.41252" lon="2.45481">
        <ele>964.200012207</ele>
        <time>2022-03-24T10:21:41Z</time>
      </trkpt>
      <trkpt lat="43.41243" lon="2.45458">
        <ele>958.599975586</ele>
        <time>2022-03-24T10:22:01Z</time>
      </trkpt>
      <trkpt lat="43.41222" lon="2.45427">
        <ele>949.200012207</ele>
        <time>2022-03-24T10:22:38Z</time>
      </trkpt>
      <trkpt lat="43.412" lon="2.4541">
        <ele>941.200012207</ele>
        <time>2022-03-24T10:23:09Z</time>
      </trkpt>
      <trkpt lat="43.41183" lon="2.45392">
        <ele>934.799987793</ele>
        <time>2022-03-24T10:23:46Z</time>
      </trkpt>
      <trkpt lat="43.41177" lon="2.45373">
        <ele>931.200012207</ele>
        <time>2022-03-24T10:24:02Z</time>
      </trkpt>
      <trkpt lat="43.41163" lon="2.45359">
        <ele>926.400024414</ele>
        <time>2022-03-24T10:24:21Z</time>
      </trkpt>
      <trkpt lat="43.4114" lon="2.45329">
        <ele>918</ele>
        <time>2022-03-24T10:24:52Z</time>
      </trkpt>
      <trkpt lat="43.41129" lon="2.45318">
        <ele>914</ele>
        <time>2022-03-24T10:25:05Z</time>
      </trkpt>
      <trkpt lat="43.41109" lon="2.4529">
        <ele>905.799987793</ele>
        <time>2022-03-24T10:25:34Z</time>
      </trkpt>
      <trkpt lat="43.41088" lon="2.45256">
        <ele>897</ele>
        <time>2022-03-24T10:26:08Z</time>
      </trkpt>
      <trkpt lat="43.41058" lon="2.45218">
        <ele>887.599975586</ele>
        <time>2022-03-24T10:26:49Z</time>
      </trkpt>
      <trkpt lat="43.41027" lon="2.45163">
        <ele>876.400024414</ele>
        <time>2022-03-24T10:27:37Z</time>
      </trkpt>
      <trkpt lat="43.41032" lon="2.45116">
        <ele>870.599975586</ele>
        <time>2022-03-24T10:28:26Z</time>
      </trkpt>
      <trkpt lat="43.41054" lon="2.45045">
        <ele>861.799987793</ele>
        <time>2022-03-24T10:29:13Z</time>
      </trkpt>
      <trkpt lat="43.41072" lon="2.44997">
        <ele>856</ele>
        <time>2022-03-24T10:29:50Z</time>
      </trkpt>
      <trkpt lat="43.41089" lon="2.44964">
        <ele>852.799987793</ele>
        <time>2022-03-24T10:30:18Z</time>
      </trkpt>
      <trkpt lat="43.41102" lon="2.44955">
        <ele>853.200012207</ele>
        <time>2022-03-24T10:30:31Z</time>
      </trkpt>
      <trkpt lat="43.41116" lon="2.4493">
        <ele>851.200012207</ele>
        <time>2022-03-24T10:30:50Z</time>
      </trkpt>
      <trkpt lat="43.4114" lon="2.44902">
        <ele>850.599975586</ele>
        <time>2022-03-24T10:31:15Z</time>
      </trkpt>
      <trkpt lat="43.41149" lon="2.44888">
        <ele>850</ele>
        <time>2022-03-24T10:31:29Z</time>
      </trkpt>
      <trkpt lat="43.41172" lon="2.4487">
        <ele>849</ele>
        <time>2022-03-24T10:31:51Z</time>
      </trkpt>
      <trkpt lat="43.41191" lon="2.44857">
        <ele>848.400024414</ele>
        <time>2022-03-24T10:32:07Z</time>
      </trkpt>
      <trkpt lat="43.41207" lon="2.4484">
        <ele>846.200012207</ele>
        <time>2022-03-24T10:32:22Z</time>
      </trkpt>
      <trkpt lat="43.41221" lon="2.4483">
        <ele>845.400024414</ele>
        <time>2022-03-24T10:32:33Z</time>
      </trkpt>
      <trkpt lat="43.41236" lon="2.44809">
        <ele>848.599975586</ele>
        <time>2022-03-24T10:32:54Z</time>
      </trkpt>
      <trkpt lat="43.41228" lon="2.44789">
        <ele>849.200012207</ele>
        <time>2022-03-24T10:33:09Z</time>
      </trkpt>
      <trkpt lat="43.41213" lon="2.4479">
        <ele>848.200012207</ele>
        <time>2022-03-24T10:33:27Z</time>
      </trkpt>
      <trkpt lat="43.41178" lon="2.44782">
        <ele>846</ele>
        <time>2022-03-24T10:33:52Z</time>
      </trkpt>
      <trkpt lat="43.41164" lon="2.44772">
        <ele>845.599975586</ele>
        <time>2022-03-24T10:34:07Z</time>
      </trkpt>
      <trkpt lat="43.4114" lon="2.44766">
        <ele>844</ele>
        <time>2022-03-24T10:34:29Z</time>
      </trkpt>
      <trkpt lat="43.41118" lon="2.44765">
        <ele>842.200012207</ele>
        <time>2022-03-24T10:34:46Z</time>
      </trkpt>
      <trkpt lat="43.411" lon="2.44759">
        <ele>841</ele>
        <time>2022-03-24T10:34:59Z</time>
      </trkpt>
      <trkpt lat="43.41065" lon="2.44751">
        <ele>839</ele>
        <time>2022-03-24T10:35:25Z</time>
      </trkpt>
      <trkpt lat="43.41048" lon="2.44748">
        <ele>838</ele>
        <time>2022-03-24T10:35:39Z</time>
      </trkpt>
      <trkpt lat="43.41021" lon="2.44732">
        <ele>839.599975586</ele>
        <time>2022-03-24T10:36:00Z</time>
      </trkpt>
      <trkpt lat="43.4099" lon="2.44718">
        <ele>837.799987793</ele>
        <time>2022-03-24T10:36:24Z</time>
      </trkpt>
      <trkpt lat="43.40945" lon="2.44699">
        <ele>835.799987793</ele>
        <time>2022-03-24T10:36:56Z</time>
      </trkpt>
      <trkpt lat="43.40929" lon="2.44689">
        <ele>835.400024414</ele>
        <time>2022-03-24T10:37:08Z</time>
      </trkpt>
      <trkpt lat="43.40917" lon="2.44681">
        <ele>834.599975586</ele>
        <time>2022-03-24T10:37:18Z</time>
      </trkpt>
      <trkpt lat="43.40891" lon="2.44662">
        <ele>832.400024414</ele>
        <time>2022-03-24T10:37:39Z</time>
      </trkpt>
      <trkpt lat="43.40877" lon="2.446">
        <ele>835</ele>
        <time>2022-03-24T10:38:12Z</time>
      </trkpt>
      <trkpt lat="43.40865" lon="2.44571">
        <ele>834.799987793</ele>
        <time>2022-03-24T10:38:29Z</time>
      </trkpt>
      <trkpt lat="43.40858" lon="2.44575">
        <ele>833</ele>
        <time>2022-03-24T10:38:46Z</time>
      </trkpt>
      <trkpt lat="43.40857" lon="2.44565">
        <ele>833</ele>
        <time>2022-03-24T10:39:24Z</time>
      </trkpt>
      <trkpt lat="43.40854" lon="2.44562">
        <ele>832.599975586</ele>
        <time>2022-03-24T10:39:38Z</time>
      </trkpt>
      <trkpt lat="43.40856" lon="2.44567">
        <ele>833</ele>
        <time>2022-03-24T10:40:05Z</time>
      </trkpt>
      <trkpt lat="43.40856" lon="2.4457">
        <ele>832.799987793</ele>
        <time>2022-03-24T10:40:34Z</time>
      </trkpt>
      <trkpt lat="43.40856" lon="2.4457">
        <ele>832.799987793</ele>
        <time>2022-03-24T10:41:13Z</time>
      </trkpt>
      <trkpt lat="43.40856" lon="2.44568">
        <ele>833</ele>
        <time>2022-03-24T10:42:21Z</time>
      </trkpt>
      <trkpt lat="43.40858" lon="2.44568">
        <ele>833.400024414</ele>
        <time>2022-03-24T10:42:54Z</time>
      </trkpt>
      <trkpt lat="43.40844" lon="2.44578">
        <ele>830.200012207</ele>
        <time>2022-03-24T10:44:19Z</time>
      </trkpt>
      <trkpt lat="43.40842" lon="2.44581">
        <ele>830</ele>
        <time>2022-03-24T10:44:47Z</time>
      </trkpt>
      <trkpt lat="43.40786" lon="2.44598">
        <ele>819.400024414</ele>
        <time>2022-03-24T10:45:33Z</time>
      </trkpt>
      <trkpt lat="43.40757" lon="2.44605">
        <ele>816</ele>
        <time>2022-03-24T10:45:59Z</time>
      </trkpt>
      <trkpt lat="43.40749" lon="2.44638">
        <ele>814.599975586</ele>
        <time>2022-03-24T10:46:29Z</time>
      </trkpt>
      <trkpt lat="43.40746" lon="2.44677">
        <ele>813.599975586</ele>
        <time>2022-03-24T10:46:51Z</time>
      </trkpt>
      <trkpt lat="43.40733" lon="2.44721">
        <ele>811</ele>
        <time>2022-03-24T10:47:18Z</time>
      </trkpt>
      <trkpt lat="43.40688" lon="2.44744">
        <ele>809.200012207</ele>
        <time>2022-03-24T10:47:52Z</time>
      </trkpt>
      <trkpt lat="43.40622" lon="2.44768">
        <ele>806.400024414</ele>
        <time>2022-03-24T10:48:39Z</time>
      </trkpt>
      <trkpt lat="43.40582" lon="2.44795">
        <ele>804.400024414</ele>
        <time>2022-03-24T10:49:13Z</time>
      </trkpt>
      <trkpt lat="43.4056" lon="2.44813">
        <ele>802.599975586</ele>
        <time>2022-03-24T10:49:32Z</time>
      </trkpt>
      <trkpt lat="43.4053" lon="2.44828">
        <ele>800.200012207</ele>
        <time>2022-03-24T10:49:53Z</time>
      </trkpt>
      <trkpt lat="43.40505" lon="2.44851">
        <ele>798</ele>
        <time>2022-03-24T10:50:13Z</time>
      </trkpt>
      <trkpt lat="43.40494" lon="2.44865">
        <ele>797</ele>
        <time>2022-03-24T10:50:25Z</time>
      </trkpt>
      <trkpt lat="43.40475" lon="2.44904">
        <ele>794.799987793</ele>
        <time>2022-03-24T10:50:49Z</time>
      </trkpt>
      <trkpt lat="43.40453" lon="2.44938">
        <ele>792</ele>
        <time>2022-03-24T10:51:13Z</time>
      </trkpt>
      <trkpt lat="43.40406" lon="2.44966">
        <ele>791</ele>
        <time>2022-03-24T10:51:45Z</time>
      </trkpt>
      <trkpt lat="43.4039" lon="2.44984">
        <ele>789.799987793</ele>
        <time>2022-03-24T10:52:02Z</time>
      </trkpt>
      <trkpt lat="43.40373" lon="2.45002">
        <ele>788.599975586</ele>
        <time>2022-03-24T10:52:17Z</time>
      </trkpt>
      <trkpt lat="43.40353" lon="2.45026">
        <ele>787.599975586</ele>
        <time>2022-03-24T10:52:37Z</time>
      </trkpt>
      <trkpt lat="43.40335" lon="2.45045">
        <ele>787</ele>
        <time>2022-03-24T10:52:54Z</time>
      </trkpt>
      <trkpt lat="43.4031" lon="2.45067">
        <ele>786.799987793</ele>
        <time>2022-03-24T10:53:14Z</time>
      </trkpt>
      <trkpt lat="43.4027" lon="2.45116">
        <ele>786.599975586</ele>
        <time>2022-03-24T10:53:48Z</time>
      </trkpt>
      <trkpt lat="43.40247" lon="2.45136">
        <ele>786</ele>
        <time>2022-03-24T10:54:08Z</time>
      </trkpt>
      <trkpt lat="43.40197" lon="2.45181">
        <ele>785</ele>
        <time>2022-03-24T10:54:43Z</time>
      </trkpt>
      <trkpt lat="43.40154" lon="2.45196">
        <ele>783</ele>
        <time>2022-03-24T10:55:17Z</time>
      </trkpt>
      <trkpt lat="43.40133" lon="2.45198">
        <ele>782</ele>
        <time>2022-03-24T10:55:39Z</time>
      </trkpt>
      <trkpt lat="43.40134" lon="2.45197">
        <ele>782</ele>
        <time>2022-03-24T10:56:00Z</time>
      </trkpt>
      <trkpt lat="43.40133" lon="2.45197">
        <ele>782</ele>
        <time>2022-03-24T10:56:46Z</time>
      </trkpt>
      <trkpt lat="43.40131" lon="2.45195">
        <ele>782</ele>
        <time>2022-03-24T10:58:00Z</time>
      </trkpt>
      <trkpt lat="43.40133" lon="2.45195">
        <ele>782</ele>
        <time>2022-03-24T10:58:57Z</time>
      </trkpt>
      <trkpt lat="43.40125" lon="2.45197">
        <ele>781.799987793</ele>
        <time>2022-03-24T10:59:06Z</time>
      </trkpt>
      <trkpt lat="43.40103" lon="2.45199">
        <ele>781.400024414</ele>
        <time>2022-03-24T10:59:20Z</time>
      </trkpt>
      <trkpt lat="43.40067" lon="2.45195">
        <ele>781.400024414</ele>
        <time>2022-03-24T10:59:43Z</time>
      </trkpt>
      <trkpt lat="43.4005" lon="2.45192">
        <ele>781.599975586</ele>
        <time>2022-03-24T10:59:54Z</time>
      </trkpt>
      <trkpt lat="43.40028" lon="2.45183">
        <ele>781.400024414</ele>
        <time>2022-03-24T11:00:12Z</time>
      </trkpt>
      <trkpt lat="43.40007" lon="2.45176">
        <ele>781.400024414</ele>
        <time>2022-03-24T11:00:29Z</time>
      </trkpt>
      <trkpt lat="43.39978" lon="2.45165">
        <ele>781.799987793</ele>
        <time>2022-03-24T11:00:52Z</time>
      </trkpt>
      <trkpt lat="43.39955" lon="2.45156">
        <ele>782.200012207</ele>
        <time>2022-03-24T11:01:11Z</time>
      </trkpt>
      <trkpt lat="43.39928" lon="2.45134">
        <ele>782.400024414</ele>
        <time>2022-03-24T11:01:34Z</time>
      </trkpt>
      <trkpt lat="43.39931" lon="2.45133">
        <ele>782.200012207</ele>
        <time>2022-03-24T11:01:55Z</time>
      </trkpt>
      <trkpt lat="43.39908" lon="2.45108">
        <ele>782.200012207</ele>
        <time>2022-03-24T11:02:20Z</time>
      </trkpt>
      <trkpt lat="43.39888" lon="2.45094">
        <ele>782.400024414</ele>
        <time>2022-03-24T11:02:38Z</time>
      </trkpt>
      <trkpt lat="43.3985" lon="2.45057">
        <ele>783.200012207</ele>
        <time>2022-03-24T11:03:07Z</time>
      </trkpt>
      <trkpt lat="43.39811" lon="2.44999">
        <ele>788</ele>
        <time>2022-03-24T11:03:47Z</time>
      </trkpt>
      <trkpt lat="43.3978" lon="2.44931">
        <ele>790.599975586</ele>
        <time>2022-03-24T11:04:32Z</time>
      </trkpt>
      <trkpt lat="43.39763" lon="2.44906">
        <ele>792.400024414</ele>
        <time>2022-03-24T11:04:57Z</time>
      </trkpt>
      <trkpt lat="43.39743" lon="2.44868">
        <ele>796.599975586</ele>
        <time>2022-03-24T11:05:20Z</time>
      </trkpt>
      <trkpt lat="43.39737" lon="2.44849">
        <ele>797.799987793</ele>
        <time>2022-03-24T11:06:03Z</time>
      </trkpt>
      <trkpt lat="43.3977" lon="2.44904">
        <ele>791.400024414</ele>
        <time>2022-03-24T11:06:37Z</time>
      </trkpt>
      <trkpt lat="43.39771" lon="2.44911">
        <ele>791.200012207</ele>
        <time>2022-03-24T11:06:57Z</time>
      </trkpt>
      <trkpt lat="43.39756" lon="2.44915">
        <ele>793.599975586</ele>
        <time>2022-03-24T11:07:25Z</time>
      </trkpt>
      <trkpt lat="43.39741" lon="2.44914">
        <ele>796.400024414</ele>
        <time>2022-03-24T11:08:04Z</time>
      </trkpt>
      <trkpt lat="43.39738" lon="2.449">
        <ele>797</ele>
        <time>2022-03-24T11:08:35Z</time>
      </trkpt>
      <trkpt lat="43.39731" lon="2.44896">
        <ele>798.400024414</ele>
        <time>2022-03-24T11:08:47Z</time>
      </trkpt>
      <trkpt lat="43.39717" lon="2.44883">
        <ele>801</ele>
        <time>2022-03-24T11:09:06Z</time>
      </trkpt>
      <trkpt lat="43.397" lon="2.44867">
        <ele>804.400024414</ele>
        <time>2022-03-24T11:09:23Z</time>
      </trkpt>
      <trkpt lat="43.39678" lon="2.44832">
        <ele>808.799987793</ele>
        <time>2022-03-24T11:09:49Z</time>
      </trkpt>
      <trkpt lat="43.3967" lon="2.44823">
        <ele>809.599975586</ele>
        <time>2022-03-24T11:09:58Z</time>
      </trkpt>
      <trkpt lat="43.39639" lon="2.448">
        <ele>814</ele>
        <time>2022-03-24T11:10:27Z</time>
      </trkpt>
      <trkpt lat="43.39621" lon="2.44783">
        <ele>816.200012207</ele>
        <time>2022-03-24T11:10:45Z</time>
      </trkpt>
      <trkpt lat="43.39588" lon="2.44761">
        <ele>821</ele>
        <time>2022-03-24T11:11:16Z</time>
      </trkpt>
      <trkpt lat="43.39568" lon="2.44738">
        <ele>823.400024414</ele>
        <time>2022-03-24T11:11:37Z</time>
      </trkpt>
      <trkpt lat="43.39537" lon="2.44703">
        <ele>826.599975586</ele>
        <time>2022-03-24T11:12:06Z</time>
      </trkpt>
      <trkpt lat="43.39518" lon="2.44679">
        <ele>828.599975586</ele>
        <time>2022-03-24T11:12:29Z</time>
      </trkpt>
      <trkpt lat="43.395" lon="2.44655">
        <ele>830.200012207</ele>
        <time>2022-03-24T11:12:49Z</time>
      </trkpt>
      <trkpt lat="43.39478" lon="2.44631">
        <ele>832.200012207</ele>
        <time>2022-03-24T11:13:11Z</time>
      </trkpt>
      <trkpt lat="43.39457" lon="2.44602">
        <ele>833.799987793</ele>
        <time>2022-03-24T11:13:37Z</time>
      </trkpt>
      <trkpt lat="43.39439" lon="2.44593">
        <ele>836.599975586</ele>
        <time>2022-03-24T11:13:52Z</time>
      </trkpt>
      <trkpt lat="43.39413" lon="2.44574">
        <ele>837.799987793</ele>
        <time>2022-03-24T11:14:15Z</time>
      </trkpt>
      <trkpt lat="43.39389" lon="2.44556">
        <ele>837</ele>
        <time>2022-03-24T11:14:39Z</time>
      </trkpt>
      <trkpt lat="43.39374" lon="2.44534">
        <ele>834.400024414</ele>
        <time>2022-03-24T11:15:14Z</time>
      </trkpt>
      <trkpt lat="43.39343" lon="2.44533">
        <ele>838.799987793</ele>
        <time>2022-03-24T11:15:44Z</time>
      </trkpt>
      <trkpt lat="43.39315" lon="2.44535">
        <ele>844</ele>
        <time>2022-03-24T11:16:22Z</time>
      </trkpt>
      <trkpt lat="43.39275" lon="2.44538">
        <ele>849</ele>
        <time>2022-03-24T11:16:59Z</time>
      </trkpt>
      <trkpt lat="43.39261" lon="2.44535">
        <ele>850.200012207</ele>
        <time>2022-03-24T11:17:16Z</time>
      </trkpt>
      <trkpt lat="43.39236" lon="2.44507">
        <ele>852.200012207</ele>
        <time>2022-03-24T11:17:41Z</time>
      </trkpt>
      <trkpt lat="43.39225" lon="2.44478">
        <ele>852</ele>
        <time>2022-03-24T11:18:01Z</time>
      </trkpt>
      <trkpt lat="43.39199" lon="2.44444">
        <ele>854.400024414</ele>
        <time>2022-03-24T11:18:33Z</time>
      </trkpt>
      <trkpt lat="43.39187" lon="2.44422">
        <ele>855.200012207</ele>
        <time>2022-03-24T11:19:03Z</time>
      </trkpt>
      <trkpt lat="43.39169" lon="2.444">
        <ele>854.799987793</ele>
        <time>2022-03-24T11:19:27Z</time>
      </trkpt>
      <trkpt lat="43.39149" lon="2.44386">
        <ele>854.599975586</ele>
        <time>2022-03-24T11:19:50Z</time>
      </trkpt>
      <trkpt lat="43.39134" lon="2.44381">
        <ele>855.200012207</ele>
        <time>2022-03-24T11:20:04Z</time>
      </trkpt>
      <trkpt lat="43.39106" lon="2.44376">
        <ele>857.400024414</ele>
        <time>2022-03-24T11:20:30Z</time>
      </trkpt>
      <trkpt lat="43.39088" lon="2.44382">
        <ele>859.200012207</ele>
        <time>2022-03-24T11:20:49Z</time>
      </trkpt>
      <trkpt lat="43.39067" lon="2.44396">
        <ele>861.200012207</ele>
        <time>2022-03-24T11:21:11Z</time>
      </trkpt>
      <trkpt lat="43.39035" lon="2.44407">
        <ele>862.200012207</ele>
        <time>2022-03-24T11:21:38Z</time>
      </trkpt>
      <trkpt lat="43.39003" lon="2.44431">
        <ele>865.200012207</ele>
        <time>2022-03-24T11:22:11Z</time>
      </trkpt>
      <trkpt lat="43.38988" lon="2.44452">
        <ele>867.799987793</ele>
        <time>2022-03-24T11:22:29Z</time>
      </trkpt>
      <trkpt lat="43.38985" lon="2.44468">
        <ele>869.799987793</ele>
        <time>2022-03-24T11:23:05Z</time>
      </trkpt>
      <trkpt lat="43.38983" lon="2.44471">
        <ele>870</ele>
        <time>2022-03-24T11:23:22Z</time>
      </trkpt>
      <trkpt lat="43.38959" lon="2.44485">
        <ele>871</ele>
        <time>2022-03-24T11:23:43Z</time>
      </trkpt>
      <trkpt lat="43.38927" lon="2.44474">
        <ele>870.400024414</ele>
        <time>2022-03-24T11:24:09Z</time>
      </trkpt>
      <trkpt lat="43.38876" lon="2.44453">
        <ele>870.599975586</ele>
        <time>2022-03-24T11:24:46Z</time>
      </trkpt>
      <trkpt lat="43.38832" lon="2.4445">
        <ele>871</ele>
        <time>2022-03-24T11:25:17Z</time>
      </trkpt>
      <trkpt lat="43.38808" lon="2.44461">
        <ele>871.599975586</ele>
        <time>2022-03-24T11:25:35Z</time>
      </trkpt>
      <trkpt lat="43.38788" lon="2.445">
        <ele>870.400024414</ele>
        <time>2022-03-24T11:26:05Z</time>
      </trkpt>
      <trkpt lat="43.38777" lon="2.44525">
        <ele>869.400024414</ele>
        <time>2022-03-24T11:26:23Z</time>
      </trkpt>
      <trkpt lat="43.3877" lon="2.4454">
        <ele>868.400024414</ele>
        <time>2022-03-24T11:26:51Z</time>
      </trkpt>
      <trkpt lat="43.38763" lon="2.44541">
        <ele>867.799987793</ele>
        <time>2022-03-24T11:27:20Z</time>
      </trkpt>
      <trkpt lat="43.38735" lon="2.446">
        <ele>859</ele>
        <time>2022-03-24T11:27:58Z</time>
      </trkpt>
      <trkpt lat="43.38734" lon="2.446">
        <ele>858.799987793</ele>
        <time>2022-03-24T11:28:15Z</time>
      </trkpt>
      <trkpt lat="43.38733" lon="2.446">
        <ele>858.599975586</ele>
        <time>2022-03-24T11:28:49Z</time>
      </trkpt>
      <trkpt lat="43.3878" lon="2.44644">
        <ele>864</ele>
        <time>2022-03-24T11:29:35Z</time>
      </trkpt>
      <trkpt lat="43.38791" lon="2.44677">
        <ele>864.400024414</ele>
        <time>2022-03-24T11:30:04Z</time>
      </trkpt>
      <trkpt lat="43.38778" lon="2.44696">
        <ele>864.200012207</ele>
        <time>2022-03-24T11:30:26Z</time>
      </trkpt>
      <trkpt lat="43.38761" lon="2.44705">
        <ele>863.400024414</ele>
        <time>2022-03-24T11:30:45Z</time>
      </trkpt>
      <trkpt lat="43.38753" lon="2.44712">
        <ele>863</ele>
        <time>2022-03-24T11:31:04Z</time>
      </trkpt>
      <trkpt lat="43.38725" lon="2.44697">
        <ele>858.200012207</ele>
        <time>2022-03-24T11:31:35Z</time>
      </trkpt>
      <trkpt lat="43.38698" lon="2.44693">
        <ele>855.599975586</ele>
        <time>2022-03-24T11:31:59Z</time>
      </trkpt>
      <trkpt lat="43.38674" lon="2.44685">
        <ele>853.599975586</ele>
        <time>2022-03-24T11:32:25Z</time>
      </trkpt>
      <trkpt lat="43.38637" lon="2.44665">
        <ele>848.200012207</ele>
        <time>2022-03-24T11:32:58Z</time>
      </trkpt>
      <trkpt lat="43.3862" lon="2.4465">
        <ele>844.400024414</ele>
        <time>2022-03-24T11:33:16Z</time>
      </trkpt>
      <trkpt lat="43.38614" lon="2.44639">
        <ele>841.599975586</ele>
        <time>2022-03-24T11:33:50Z</time>
      </trkpt>
      <trkpt lat="43.38595" lon="2.44614">
        <ele>835.599975586</ele>
        <time>2022-03-24T11:34:20Z</time>
      </trkpt>
      <trkpt lat="43.38571" lon="2.44592">
        <ele>829.400024414</ele>
        <time>2022-03-24T11:34:47Z</time>
      </trkpt>
      <trkpt lat="43.38546" lon="2.44577">
        <ele>824.599975586</ele>
        <time>2022-03-24T11:35:09Z</time>
      </trkpt>
      <trkpt lat="43.3852" lon="2.44579">
        <ele>823.400024414</ele>
        <time>2022-03-24T11:35:29Z</time>
      </trkpt>
      <trkpt lat="43.3848" lon="2.44575">
        <ele>823.400024414</ele>
        <time>2022-03-24T11:36:00Z</time>
      </trkpt>
      <trkpt lat="43.38441" lon="2.44551">
        <ele>817.599975586</ele>
        <time>2022-03-24T11:36:34Z</time>
      </trkpt>
      <trkpt lat="43.38418" lon="2.44538">
        <ele>818.200012207</ele>
        <time>2022-03-24T11:36:57Z</time>
      </trkpt>
      <trkpt lat="43.38395" lon="2.44515">
        <ele>817.599975586</ele>
        <time>2022-03-24T11:37:34Z</time>
      </trkpt>
      <trkpt lat="43.38376" lon="2.44491">
        <ele>815.200012207</ele>
        <time>2022-03-24T11:37:58Z</time>
      </trkpt>
      <trkpt lat="43.38368" lon="2.44484">
        <ele>815</ele>
        <time>2022-03-24T11:38:21Z</time>
      </trkpt>
      <trkpt lat="43.38366" lon="2.44481">
        <ele>814.400024414</ele>
        <time>2022-03-24T11:38:40Z</time>
      </trkpt>
      <trkpt lat="43.38342" lon="2.4446">
        <ele>813</ele>
        <time>2022-03-24T11:39:07Z</time>
      </trkpt>
      <trkpt lat="43.38319" lon="2.44434">
        <ele>808.400024414</ele>
        <time>2022-03-24T11:39:31Z</time>
      </trkpt>
      <trkpt lat="43.38304" lon="2.44413">
        <ele>803.599975586</ele>
        <time>2022-03-24T11:39:50Z</time>
      </trkpt>
      <trkpt lat="43.38291" lon="2.44397">
        <ele>800.599975586</ele>
        <time>2022-03-24T11:40:15Z</time>
      </trkpt>
      <trkpt lat="43.38275" lon="2.44377">
        <ele>796.400024414</ele>
        <time>2022-03-24T11:40:36Z</time>
      </trkpt>
      <trkpt lat="43.38256" lon="2.4436">
        <ele>792.200012207</ele>
        <time>2022-03-24T11:41:03Z</time>
      </trkpt>
      <trkpt lat="43.38237" lon="2.44353">
        <ele>788.799987793</ele>
        <time>2022-03-24T11:41:24Z</time>
      </trkpt>
      <trkpt lat="43.38213" lon="2.44351">
        <ele>787.200012207</ele>
        <time>2022-03-24T11:41:45Z</time>
      </trkpt>
      <trkpt lat="43.38173" lon="2.4436">
        <ele>788</ele>
        <time>2022-03-24T11:42:25Z</time>
      </trkpt>
      <trkpt lat="43.38151" lon="2.44362">
        <ele>785.599975586</ele>
        <time>2022-03-24T11:42:50Z</time>
      </trkpt>
      <trkpt lat="43.38132" lon="2.44367">
        <ele>784.799987793</ele>
        <time>2022-03-24T11:43:14Z</time>
      </trkpt>
      <trkpt lat="43.38099" lon="2.44373">
        <ele>781</ele>
        <time>2022-03-24T11:43:42Z</time>
      </trkpt>
      <trkpt lat="43.38065" lon="2.44379">
        <ele>784.400024414</ele>
        <time>2022-03-24T11:44:10Z</time>
      </trkpt>
      <trkpt lat="43.38035" lon="2.44373">
        <ele>779.400024414</ele>
        <time>2022-03-24T11:44:37Z</time>
      </trkpt>
      <trkpt lat="43.37995" lon="2.44368">
        <ele>778.599975586</ele>
        <time>2022-03-24T11:45:10Z</time>
      </trkpt>
      <trkpt lat="43.37995" lon="2.44368">
        <ele>778.599975586</ele>
        <time>2022-03-24T11:45:29Z</time>
      </trkpt>
      <trkpt lat="43.37985" lon="2.44364">
        <ele>779.799987793</ele>
        <time>2022-03-24T11:46:00Z</time>
      </trkpt>
      <trkpt lat="43.37967" lon="2.44367">
        <ele>783.200012207</ele>
        <time>2022-03-24T11:46:21Z</time>
      </trkpt>
      <trkpt lat="43.37957" lon="2.4437">
        <ele>780.799987793</ele>
        <time>2022-03-24T11:46:44Z</time>
      </trkpt>
      <trkpt lat="43.37968" lon="2.44367">
        <ele>783</ele>
        <time>2022-03-24T11:47:04Z</time>
      </trkpt>
      <trkpt lat="43.37935" lon="2.44358">
        <ele>779.599975586</ele>
        <time>2022-03-24T11:47:41Z</time>
      </trkpt>
      <trkpt lat="43.37906" lon="2.44338">
        <ele>779.200012207</ele>
        <time>2022-03-24T11:48:10Z</time>
      </trkpt>
      <trkpt lat="43.37862" lon="2.44315">
        <ele>778.799987793</ele>
        <time>2022-03-24T11:48:45Z</time>
      </trkpt>
      <trkpt lat="43.37822" lon="2.44296">
        <ele>780.200012207</ele>
        <time>2022-03-24T11:49:13Z</time>
      </trkpt>
      <trkpt lat="43.37768" lon="2.44272">
        <ele>781.400024414</ele>
        <time>2022-03-24T11:49:53Z</time>
      </trkpt>
      <trkpt lat="43.37733" lon="2.4426">
        <ele>785</ele>
        <time>2022-03-24T11:50:25Z</time>
      </trkpt>
      <trkpt lat="43.37709" lon="2.44255">
        <ele>786.200012207</ele>
        <time>2022-03-24T11:50:51Z</time>
      </trkpt>
      <trkpt lat="43.37659" lon="2.44249">
        <ele>788.799987793</ele>
        <time>2022-03-24T11:51:26Z</time>
      </trkpt>
      <trkpt lat="43.37619" lon="2.44253">
        <ele>788.599975586</ele>
        <time>2022-03-24T11:51:55Z</time>
      </trkpt>
      <trkpt lat="43.37565" lon="2.44259">
        <ele>784.400024414</ele>
        <time>2022-03-24T11:52:36Z</time>
      </trkpt>
      <trkpt lat="43.37524" lon="2.44248">
        <ele>783.400024414</ele>
        <time>2022-03-24T11:53:15Z</time>
      </trkpt>
      <trkpt lat="43.37504" lon="2.44242">
        <ele>781.799987793</ele>
        <time>2022-03-24T11:53:29Z</time>
      </trkpt>
      <trkpt lat="43.37481" lon="2.44228">
        <ele>780.200012207</ele>
        <time>2022-03-24T11:53:48Z</time>
      </trkpt>
      <trkpt lat="43.3745" lon="2.44208">
        <ele>779</ele>
        <time>2022-03-24T11:54:13Z</time>
      </trkpt>
      <trkpt lat="43.37381" lon="2.44176">
        <ele>776.200012207</ele>
        <time>2022-03-24T11:55:10Z</time>
      </trkpt>
      <trkpt lat="43.37346" lon="2.44173">
        <ele>771.400024414</ele>
        <time>2022-03-24T11:55:38Z</time>
      </trkpt>
      <trkpt lat="43.37342" lon="2.44162">
        <ele>774.799987793</ele>
        <time>2022-03-24T11:55:59Z</time>
      </trkpt>
      <trkpt lat="43.37338" lon="2.44155">
        <ele>776.200012207</ele>
        <time>2022-03-24T11:56:21Z</time>
      </trkpt>
      <trkpt lat="43.37342" lon="2.44152">
        <ele>777.799987793</ele>
        <time>2022-03-24T11:57:39Z</time>
      </trkpt>
      <trkpt lat="43.37342" lon="2.44152">
        <ele>777.599975586</ele>
        <time>2022-03-24T11:58:11Z</time>
      </trkpt>
      <trkpt lat="43.3734" lon="2.44153">
        <ele>777</ele>
        <time>2022-03-24T11:58:34Z</time>
      </trkpt>
      <trkpt lat="43.37339" lon="2.44153">
        <ele>777</ele>
        <time>2022-03-24T11:59:33Z</time>
      </trkpt>
      <trkpt lat="43.37339" lon="2.44153">
        <ele>777</ele>
        <time>2022-03-24T12:00:27Z</time>
      </trkpt>
      <trkpt lat="43.37339" lon="2.44152">
        <ele>777.400024414</ele>
        <time>2022-03-24T12:28:34Z</time>
      </trkpt>
      <trkpt lat="43.37339" lon="2.44152">
        <ele>777.200012207</ele>
        <time>2022-03-24T12:28:49Z</time>
      </trkpt>
      <trkpt lat="43.37339" lon="2.44152">
        <ele>777.200012207</ele>
        <time>2022-03-24T12:29:30Z</time>
      </trkpt>
      <trkpt lat="43.37339" lon="2.44157">
        <ele>775.799987793</ele>
        <time>2022-03-24T12:29:55Z</time>
      </trkpt>
      <trkpt lat="43.37341" lon="2.44166">
        <ele>773.799987793</ele>
        <time>2022-03-24T12:30:03Z</time>
      </trkpt>
      <trkpt lat="43.37295" lon="2.44164">
        <ele>773.799987793</ele>
        <time>2022-03-24T12:30:43Z</time>
      </trkpt>
      <trkpt lat="43.3727" lon="2.4417">
        <ele>771.599975586</ele>
        <time>2022-03-24T12:31:02Z</time>
      </trkpt>
      <trkpt lat="43.37255" lon="2.44172">
        <ele>769</ele>
        <time>2022-03-24T12:31:14Z</time>
      </trkpt>
      <trkpt lat="43.37239" lon="2.44178">
        <ele>764.400024414</ele>
        <time>2022-03-24T12:31:29Z</time>
      </trkpt>
      <trkpt lat="43.37206" lon="2.44183">
        <ele>758.599975586</ele>
        <time>2022-03-24T12:31:57Z</time>
      </trkpt>
      <trkpt lat="43.37155" lon="2.44166">
        <ele>759.799987793</ele>
        <time>2022-03-24T12:32:35Z</time>
      </trkpt>
      <trkpt lat="43.3711" lon="2.44167">
        <ele>754.799987793</ele>
        <time>2022-03-24T12:33:15Z</time>
      </trkpt>
      <trkpt lat="43.37054" lon="2.44188">
        <ele>747.400024414</ele>
        <time>2022-03-24T12:33:57Z</time>
      </trkpt>
      <trkpt lat="43.37028" lon="2.442">
        <ele>747.200012207</ele>
        <time>2022-03-24T12:34:16Z</time>
      </trkpt>
      <trkpt lat="43.36992" lon="2.44219">
        <ele>749.400024414</ele>
        <time>2022-03-24T12:34:45Z</time>
      </trkpt>
      <trkpt lat="43.36979" lon="2.44229">
        <ele>749.400024414</ele>
        <time>2022-03-24T12:34:58Z</time>
      </trkpt>
      <trkpt lat="43.36969" lon="2.44238">
        <ele>749.200012207</ele>
        <time>2022-03-24T12:35:07Z</time>
      </trkpt>
      <trkpt lat="43.36921" lon="2.44268">
        <ele>745.400024414</ele>
        <time>2022-03-24T12:35:46Z</time>
      </trkpt>
      <trkpt lat="43.36878" lon="2.44261">
        <ele>742.599975586</ele>
        <time>2022-03-24T12:36:18Z</time>
      </trkpt>
      <trkpt lat="43.36854" lon="2.44243">
        <ele>743.799987793</ele>
        <time>2022-03-24T12:36:40Z</time>
      </trkpt>
      <trkpt lat="43.36827" lon="2.44225">
        <ele>742.599975586</ele>
        <time>2022-03-24T12:37:03Z</time>
      </trkpt>
      <trkpt lat="43.36794" lon="2.44205">
        <ele>740</ele>
        <time>2022-03-24T12:37:32Z</time>
      </trkpt>
      <trkpt lat="43.36763" lon="2.4416">
        <ele>742</ele>
        <time>2022-03-24T12:38:07Z</time>
      </trkpt>
      <trkpt lat="43.36745" lon="2.44123">
        <ele>742</ele>
        <time>2022-03-24T12:38:32Z</time>
      </trkpt>
      <trkpt lat="43.3671" lon="2.44091">
        <ele>740</ele>
        <time>2022-03-24T12:39:03Z</time>
      </trkpt>
      <trkpt lat="43.36671" lon="2.44057">
        <ele>738</ele>
        <time>2022-03-24T12:39:38Z</time>
      </trkpt>
      <trkpt lat="43.36656" lon="2.44042">
        <ele>738.200012207</ele>
        <time>2022-03-24T12:39:54Z</time>
      </trkpt>
      <trkpt lat="43.3664" lon="2.44019">
        <ele>738.200012207</ele>
        <time>2022-03-24T12:40:15Z</time>
      </trkpt>
      <trkpt lat="43.36597" lon="2.44">
        <ele>738.799987793</ele>
        <time>2022-03-24T12:40:49Z</time>
      </trkpt>
      <trkpt lat="43.3658" lon="2.43963">
        <ele>736.599975586</ele>
        <time>2022-03-24T12:41:16Z</time>
      </trkpt>
      <trkpt lat="43.36552" lon="2.43953">
        <ele>732</ele>
        <time>2022-03-24T12:41:38Z</time>
      </trkpt>
      <trkpt lat="43.36534" lon="2.43951">
        <ele>728.599975586</ele>
        <time>2022-03-24T12:41:54Z</time>
      </trkpt>
      <trkpt lat="43.36494" lon="2.43943">
        <ele>720.799987793</ele>
        <time>2022-03-24T12:42:33Z</time>
      </trkpt>
      <trkpt lat="43.36464" lon="2.43974">
        <ele>712.799987793</ele>
        <time>2022-03-24T12:43:08Z</time>
      </trkpt>
      <trkpt lat="43.36451" lon="2.43975">
        <ele>709.599975586</ele>
        <time>2022-03-24T12:43:24Z</time>
      </trkpt>
      <trkpt lat="43.36451" lon="2.43975">
        <ele>709.599975586</ele>
        <time>2022-03-24T12:44:05Z</time>
      </trkpt>
      <trkpt lat="43.36453" lon="2.44004">
        <ele>709.400024414</ele>
        <time>2022-03-24T12:44:39Z</time>
      </trkpt>
      <trkpt lat="43.36448" lon="2.44028">
        <ele>708.200012207</ele>
        <time>2022-03-24T12:44:53Z</time>
      </trkpt>
      <trkpt lat="43.3643" lon="2.44093">
        <ele>702.799987793</ele>
        <time>2022-03-24T12:45:28Z</time>
      </trkpt>
      <trkpt lat="43.36416" lon="2.4416">
        <ele>699.400024414</ele>
        <time>2022-03-24T12:46:04Z</time>
      </trkpt>
      <trkpt lat="43.36414" lon="2.44175">
        <ele>699</ele>
        <time>2022-03-24T12:46:11Z</time>
      </trkpt>
      <trkpt lat="43.36415" lon="2.44222">
        <ele>698.599975586</ele>
        <time>2022-03-24T12:46:36Z</time>
      </trkpt>
      <trkpt lat="43.36418" lon="2.44274">
        <ele>698.400024414</ele>
        <time>2022-03-24T12:47:02Z</time>
      </trkpt>
      <trkpt lat="43.3642" lon="2.44303">
        <ele>698.400024414</ele>
        <time>2022-03-24T12:47:17Z</time>
      </trkpt>
      <trkpt lat="43.36421" lon="2.44324">
        <ele>698</ele>
        <time>2022-03-24T12:47:28Z</time>
      </trkpt>
      <trkpt lat="43.36417" lon="2.44349">
        <ele>697.799987793</ele>
        <time>2022-03-24T12:47:41Z</time>
      </trkpt>
      <trkpt lat="43.36417" lon="2.44373">
        <ele>699</ele>
        <time>2022-03-24T12:47:52Z</time>
      </trkpt>
      <trkpt lat="43.36419" lon="2.44401">
        <ele>701</ele>
        <time>2022-03-24T12:48:08Z</time>
      </trkpt>
      <trkpt lat="43.3642" lon="2.44445">
        <ele>704.200012207</ele>
        <time>2022-03-24T12:48:32Z</time>
      </trkpt>
      <trkpt lat="43.36412" lon="2.4446">
        <ele>703.400024414</ele>
        <time>2022-03-24T12:48:43Z</time>
      </trkpt>
      <trkpt lat="43.36387" lon="2.44477">
        <ele>703.799987793</ele>
        <time>2022-03-24T12:49:03Z</time>
      </trkpt>
      <trkpt lat="43.36335" lon="2.44481">
        <ele>703.799987793</ele>
        <time>2022-03-24T12:49:42Z</time>
      </trkpt>
      <trkpt lat="43.36279" lon="2.44477">
        <ele>698.400024414</ele>
        <time>2022-03-24T12:50:24Z</time>
      </trkpt>
      <trkpt lat="43.36218" lon="2.44508">
        <ele>696.799987793</ele>
        <time>2022-03-24T12:51:12Z</time>
      </trkpt>
      <trkpt lat="43.36194" lon="2.44512">
        <ele>694.599975586</ele>
        <time>2022-03-24T12:51:34Z</time>
      </trkpt>
      <trkpt lat="43.36174" lon="2.44514">
        <ele>693.400024414</ele>
        <time>2022-03-24T12:51:51Z</time>
      </trkpt>
      <trkpt lat="43.36154" lon="2.44521">
        <ele>690.799987793</ele>
        <time>2022-03-24T12:52:33Z</time>
      </trkpt>
      <trkpt lat="43.36134" lon="2.44523">
        <ele>688.200012207</ele>
        <time>2022-03-24T12:52:58Z</time>
      </trkpt>
      <trkpt lat="43.36122" lon="2.4452">
        <ele>687</ele>
        <time>2022-03-24T12:53:13Z</time>
      </trkpt>
      <trkpt lat="43.36102" lon="2.44511">
        <ele>684.799987793</ele>
        <time>2022-03-24T12:53:35Z</time>
      </trkpt>
      <trkpt lat="43.36096" lon="2.44508">
        <ele>684</ele>
        <time>2022-03-24T12:54:24Z</time>
      </trkpt>
      <trkpt lat="43.36077" lon="2.44496">
        <ele>678.200012207</ele>
        <time>2022-03-24T12:54:48Z</time>
      </trkpt>
      <trkpt lat="43.36065" lon="2.44482">
        <ele>673</ele>
        <time>2022-03-24T12:55:07Z</time>
      </trkpt>
      <trkpt lat="43.36037" lon="2.44467">
        <ele>663</ele>
        <time>2022-03-24T12:55:53Z</time>
      </trkpt>
      <trkpt lat="43.36001" lon="2.44464">
        <ele>652.400024414</ele>
        <time>2022-03-24T12:56:27Z</time>
      </trkpt>
      <trkpt lat="43.35969" lon="2.44463">
        <ele>644.200012207</ele>
        <time>2022-03-24T12:56:59Z</time>
      </trkpt>
      <trkpt lat="43.35919" lon="2.44461">
        <ele>630.599975586</ele>
        <time>2022-03-24T12:57:43Z</time>
      </trkpt>
      <trkpt lat="43.3589" lon="2.44499">
        <ele>626.599975586</ele>
        <time>2022-03-24T12:58:15Z</time>
      </trkpt>
      <trkpt lat="43.35872" lon="2.44537">
        <ele>614.200012207</ele>
        <time>2022-03-24T12:58:44Z</time>
      </trkpt>
      <trkpt lat="43.35866" lon="2.44533">
        <ele>613.799987793</ele>
        <time>2022-03-24T12:59:16Z</time>
      </trkpt>
      <trkpt lat="43.35842" lon="2.44536">
        <ele>605.599975586</ele>
        <time>2022-03-24T12:59:48Z</time>
      </trkpt>
      <trkpt lat="43.35819" lon="2.44528">
        <ele>597</ele>
        <time>2022-03-24T13:00:14Z</time>
      </trkpt>
      <trkpt lat="43.35801" lon="2.44501">
        <ele>595.599975586</ele>
        <time>2022-03-24T13:00:37Z</time>
      </trkpt>
      <trkpt lat="43.35777" lon="2.44493">
        <ele>584.799987793</ele>
        <time>2022-03-24T13:01:03Z</time>
      </trkpt>
      <trkpt lat="43.35758" lon="2.44492">
        <ele>575.400024414</ele>
        <time>2022-03-24T13:01:21Z</time>
      </trkpt>
      <trkpt lat="43.35747" lon="2.44522">
        <ele>568</ele>
        <time>2022-03-24T13:01:50Z</time>
      </trkpt>
      <trkpt lat="43.35735" lon="2.44539">
        <ele>560.400024414</ele>
        <time>2022-03-24T13:02:08Z</time>
      </trkpt>
      <trkpt lat="43.35717" lon="2.44555">
        <ele>554.799987793</ele>
        <time>2022-03-24T13:02:32Z</time>
      </trkpt>
      <trkpt lat="43.35695" lon="2.44562">
        <ele>550.200012207</ele>
        <time>2022-03-24T13:02:50Z</time>
      </trkpt>
      <trkpt lat="43.35682" lon="2.44565">
        <ele>547.200012207</ele>
        <time>2022-03-24T13:03:04Z</time>
      </trkpt>
      <trkpt lat="43.35673" lon="2.44571">
        <ele>545.200012207</ele>
        <time>2022-03-24T13:03:16Z</time>
      </trkpt>
      <trkpt lat="43.35651" lon="2.44594">
        <ele>539.200012207</ele>
        <time>2022-03-24T13:03:41Z</time>
      </trkpt>
      <trkpt lat="43.35634" lon="2.44605">
        <ele>532.799987793</ele>
        <time>2022-03-24T13:03:58Z</time>
      </trkpt>
      <trkpt lat="43.35613" lon="2.44612">
        <ele>528.200012207</ele>
        <time>2022-03-24T13:04:18Z</time>
      </trkpt>
      <trkpt lat="43.35594" lon="2.44609">
        <ele>526</ele>
        <time>2022-03-24T13:04:42Z</time>
      </trkpt>
      <trkpt lat="43.35575" lon="2.44608">
        <ele>522.200012207</ele>
        <time>2022-03-24T13:04:59Z</time>
      </trkpt>
      <trkpt lat="43.35554" lon="2.44603">
        <ele>518</ele>
        <time>2022-03-24T13:05:18Z</time>
      </trkpt>
      <trkpt lat="43.35548" lon="2.44591">
        <ele>517.400024414</ele>
        <time>2022-03-24T13:05:32Z</time>
      </trkpt>
      <trkpt lat="43.35528" lon="2.44613">
        <ele>514.400024414</ele>
        <time>2022-03-24T13:05:59Z</time>
      </trkpt>
      <trkpt lat="43.35506" lon="2.44635">
        <ele>515.200012207</ele>
        <time>2022-03-24T13:06:23Z</time>
      </trkpt>
      <trkpt lat="43.35487" lon="2.4465">
        <ele>517.799987793</ele>
        <time>2022-03-24T13:06:41Z</time>
      </trkpt>
      <trkpt lat="43.355" lon="2.4467">
        <ele>517.400024414</ele>
        <time>2022-03-24T13:07:14Z</time>
      </trkpt>
      <trkpt lat="43.35514" lon="2.44685">
        <ele>514.200012207</ele>
        <time>2022-03-24T13:07:35Z</time>
      </trkpt>
      <trkpt lat="43.35547" lon="2.44716">
        <ele>510.600006104</ele>
        <time>2022-03-24T13:08:03Z</time>
      </trkpt>
      <trkpt lat="43.35594" lon="2.4475">
        <ele>506.799987793</ele>
        <time>2022-03-24T13:08:42Z</time>
      </trkpt>
      <trkpt lat="43.35623" lon="2.44765">
        <ele>504.399993896</ele>
        <time>2022-03-24T13:09:05Z</time>
      </trkpt>
      <trkpt lat="43.35648" lon="2.4478">
        <ele>502.200012207</ele>
        <time>2022-03-24T13:09:35Z</time>
      </trkpt>
      <trkpt lat="43.35673" lon="2.44798">
        <ele>499.200012207</ele>
        <time>2022-03-24T13:09:59Z</time>
      </trkpt>
      <trkpt lat="43.35699" lon="2.44804">
        <ele>500</ele>
        <time>2022-03-24T13:10:24Z</time>
      </trkpt>
      <trkpt lat="43.35729" lon="2.44803">
        <ele>503.600006104</ele>
        <time>2022-03-24T13:10:45Z</time>
      </trkpt>
      <trkpt lat="43.35769" lon="2.44801">
        <ele>508.600006104</ele>
        <time>2022-03-24T13:11:14Z</time>
      </trkpt>
      <trkpt lat="43.35779" lon="2.44803">
        <ele>511.600006104</ele>
        <time>2022-03-24T13:11:23Z</time>
      </trkpt>
      <trkpt lat="43.35778" lon="2.44827">
        <ele>506.600006104</ele>
        <time>2022-03-24T13:11:37Z</time>
      </trkpt>
      <trkpt lat="43.35764" lon="2.4489">
        <ele>505.200012207</ele>
        <time>2022-03-24T13:12:15Z</time>
      </trkpt>
      <trkpt lat="43.35749" lon="2.44932">
        <ele>504.799987793</ele>
        <time>2022-03-24T13:12:41Z</time>
      </trkpt>
      <trkpt lat="43.35727" lon="2.4498">
        <ele>505.399993896</ele>
        <time>2022-03-24T13:13:13Z</time>
      </trkpt>
      <trkpt lat="43.35724" lon="2.45007">
        <ele>507.799987793</ele>
        <time>2022-03-24T13:13:39Z</time>
      </trkpt>
      <trkpt lat="43.35725" lon="2.45029">
        <ele>509</ele>
        <time>2022-03-24T13:13:53Z</time>
      </trkpt>
      <trkpt lat="43.35726" lon="2.45088">
        <ele>515.400024414</ele>
        <time>2022-03-24T13:14:28Z</time>
      </trkpt>
      <trkpt lat="43.35738" lon="2.45117">
        <ele>514.599975586</ele>
        <time>2022-03-24T13:15:04Z</time>
      </trkpt>
      <trkpt lat="43.35744" lon="2.45136">
        <ele>513.799987793</ele>
        <time>2022-03-24T13:15:17Z</time>
      </trkpt>
      <trkpt lat="43.35755" lon="2.45169">
        <ele>514.200012207</ele>
        <time>2022-03-24T13:15:37Z</time>
      </trkpt>
      <trkpt lat="43.35757" lon="2.45195">
        <ele>510.200012207</ele>
        <time>2022-03-24T13:15:52Z</time>
      </trkpt>
      <trkpt lat="43.35758" lon="2.45232">
        <ele>504.799987793</ele>
        <time>2022-03-24T13:16:15Z</time>
      </trkpt>
      <trkpt lat="43.35748" lon="2.45252">
        <ele>503.399993896</ele>
        <time>2022-03-24T13:16:43Z</time>
      </trkpt>
      <trkpt lat="43.35768" lon="2.4531">
        <ele>489.200012207</ele>
        <time>2022-03-24T13:17:25Z</time>
      </trkpt>
      <trkpt lat="43.35786" lon="2.45359">
        <ele>483</ele>
        <time>2022-03-24T13:17:58Z</time>
      </trkpt>
      <trkpt lat="43.35795" lon="2.45394">
        <ele>477.799987793</ele>
        <time>2022-03-24T13:18:20Z</time>
      </trkpt>
      <trkpt lat="43.35818" lon="2.45455">
        <ele>469.799987793</ele>
        <time>2022-03-24T13:19:00Z</time>
      </trkpt>
      <trkpt lat="43.35826" lon="2.4548">
        <ele>466.200012207</ele>
        <time>2022-03-24T13:19:18Z</time>
      </trkpt>
      <trkpt lat="43.35846" lon="2.45525">
        <ele>459.600006104</ele>
        <time>2022-03-24T13:19:51Z</time>
      </trkpt>
      <trkpt lat="43.35858" lon="2.45574">
        <ele>450</ele>
        <time>2022-03-24T13:20:20Z</time>
      </trkpt>
      <trkpt lat="43.35875" lon="2.45617">
        <ele>442</ele>
        <time>2022-03-24T13:20:48Z</time>
      </trkpt>
      <trkpt lat="43.35892" lon="2.45661">
        <ele>434.200012207</ele>
        <time>2022-03-24T13:21:20Z</time>
      </trkpt>
      <trkpt lat="43.35948" lon="2.45685">
        <ele>437.200012207</ele>
        <time>2022-03-24T13:22:12Z</time>
      </trkpt>
      <trkpt lat="43.35959" lon="2.457">
        <ele>432</ele>
        <time>2022-03-24T13:22:29Z</time>
      </trkpt>
      <trkpt lat="43.35971" lon="2.45717">
        <ele>425.799987793</ele>
        <time>2022-03-24T13:22:44Z</time>
      </trkpt>
      <trkpt lat="43.36002" lon="2.45723">
        <ele>425.799987793</ele>
        <time>2022-03-24T13:23:17Z</time>
      </trkpt>
      <trkpt lat="43.36016" lon="2.45722">
        <ele>428</ele>
        <time>2022-03-24T13:23:41Z</time>
      </trkpt>
      <trkpt lat="43.36023" lon="2.45723">
        <ele>427.399993896</ele>
        <time>2022-03-24T13:24:00Z</time>
      </trkpt>
      <trkpt lat="43.36024" lon="2.45723">
        <ele>427.799987793</ele>
        <time>2022-03-24T13:24:52Z</time>
      </trkpt>
      <trkpt lat="43.36038" lon="2.45724">
        <ele>427</ele>
        <time>2022-03-24T13:25:23Z</time>
      </trkpt>
      <trkpt lat="43.36082" lon="2.45744">
        <ele>416.799987793</ele>
        <time>2022-03-24T13:25:59Z</time>
      </trkpt>
      <trkpt lat="43.36134" lon="2.4577">
        <ele>404.200012207</ele>
        <time>2022-03-24T13:26:43Z</time>
      </trkpt>
      <trkpt lat="43.36161" lon="2.45783">
        <ele>398</ele>
        <time>2022-03-24T13:27:18Z</time>
      </trkpt>
      <trkpt lat="43.36172" lon="2.45786">
        <ele>396.399993896</ele>
        <time>2022-03-24T13:27:36Z</time>
      </trkpt>
      <trkpt lat="43.36219" lon="2.45778">
        <ele>393.200012207</ele>
        <time>2022-03-24T13:28:18Z</time>
      </trkpt>
      <trkpt lat="43.36234" lon="2.45765">
        <ele>391.799987793</ele>
        <time>2022-03-24T13:28:35Z</time>
      </trkpt>
      <trkpt lat="43.36253" lon="2.4574">
        <ele>393.399993896</ele>
        <time>2022-03-24T13:29:02Z</time>
      </trkpt>
      <trkpt lat="43.36253" lon="2.45759">
        <ele>387.399993896</ele>
        <time>2022-03-24T13:29:16Z</time>
      </trkpt>
      <trkpt lat="43.36245" lon="2.45795">
        <ele>380</ele>
        <time>2022-03-24T13:29:41Z</time>
      </trkpt>
      <trkpt lat="43.36252" lon="2.45796">
        <ele>377.799987793</ele>
        <time>2022-03-24T13:30:02Z</time>
      </trkpt>
      <trkpt lat="43.3628" lon="2.4577">
        <ele>374.399993896</ele>
        <time>2022-03-24T13:30:34Z</time>
      </trkpt>
      <trkpt lat="43.36287" lon="2.45763">
        <ele>372.399993896</ele>
        <time>2022-03-24T13:30:46Z</time>
      </trkpt>
      <trkpt lat="43.36295" lon="2.4577">
        <ele>367.600006104</ele>
        <time>2022-03-24T13:31:19Z</time>
      </trkpt>
      <trkpt lat="43.36286" lon="2.45805">
        <ele>362.799987793</ele>
        <time>2022-03-24T13:31:45Z</time>
      </trkpt>
      <trkpt lat="43.36282" lon="2.45819">
        <ele>360.600006104</ele>
        <time>2022-03-24T13:31:55Z</time>
      </trkpt>
      <trkpt lat="43.3628" lon="2.45839">
        <ele>357.799987793</ele>
        <time>2022-03-24T13:32:11Z</time>
      </trkpt>
      <trkpt lat="43.36277" lon="2.45874">
        <ele>350.399993896</ele>
        <time>2022-03-24T13:32:34Z</time>
      </trkpt>
      <trkpt lat="43.36272" lon="2.45912">
        <ele>340.200012207</ele>
        <time>2022-03-24T13:32:58Z</time>
      </trkpt>
      <trkpt lat="43.36269" lon="2.45946">
        <ele>332.200012207</ele>
        <time>2022-03-24T13:33:35Z</time>
      </trkpt>
      <trkpt lat="43.36256" lon="2.45982">
        <ele>320.799987793</ele>
        <time>2022-03-24T13:34:04Z</time>
      </trkpt>
      <trkpt lat="43.36245" lon="2.45979">
        <ele>320</ele>
        <time>2022-03-24T13:34:22Z</time>
      </trkpt>
      <trkpt lat="43.36229" lon="2.45989">
        <ele>316</ele>
        <time>2022-03-24T13:34:43Z</time>
      </trkpt>
      <trkpt lat="43.36243" lon="2.46017">
        <ele>313.600006104</ele>
        <time>2022-03-24T13:35:03Z</time>
      </trkpt>
      <trkpt lat="43.36257" lon="2.46033">
        <ele>313.399993896</ele>
        <time>2022-03-24T13:35:20Z</time>
      </trkpt>
      <trkpt lat="43.36278" lon="2.46049">
        <ele>314</ele>
        <time>2022-03-24T13:35:39Z</time>
      </trkpt>
      <trkpt lat="43.36293" lon="2.46073">
        <ele>313.200012207</ele>
        <time>2022-03-24T13:35:58Z</time>
      </trkpt>
      <trkpt lat="43.36285" lon="2.46096">
        <ele>312</ele>
        <time>2022-03-24T13:36:28Z</time>
      </trkpt>
      <trkpt lat="43.36261" lon="2.46095">
        <ele>310.799987793</ele>
        <time>2022-03-24T13:36:52Z</time>
      </trkpt>
      <trkpt lat="43.36249" lon="2.46092">
        <ele>309.600006104</ele>
        <time>2022-03-24T13:37:12Z</time>
      </trkpt>
      <trkpt lat="43.3625" lon="2.46121">
        <ele>312.600006104</ele>
        <time>2022-03-24T13:37:32Z</time>
      </trkpt>
      <trkpt lat="43.36253" lon="2.46141">
        <ele>314.600006104</ele>
        <time>2022-03-24T13:38:00Z</time>
      </trkpt>
      <trkpt lat="43.36254" lon="2.46156">
        <ele>316</ele>
        <time>2022-03-24T13:38:14Z</time>
      </trkpt>
      <trkpt lat="43.36263" lon="2.46148">
        <ele>316.200012207</ele>
        <time>2022-03-24T13:38:30Z</time>
      </trkpt>
      <trkpt lat="43.36267" lon="2.4613">
        <ele>314.600006104</ele>
        <time>2022-03-24T13:38:44Z</time>
      </trkpt>
      <trkpt lat="43.36277" lon="2.46149">
        <ele>316.600006104</ele>
        <time>2022-03-24T13:39:10Z</time>
      </trkpt>
      <trkpt lat="43.3629" lon="2.46142">
        <ele>316</ele>
        <time>2022-03-24T13:39:32Z</time>
      </trkpt>
      <trkpt lat="43.3629" lon="2.46166">
        <ele>318.399993896</ele>
        <time>2022-03-24T13:40:14Z</time>
      </trkpt>
      <trkpt lat="43.36296" lon="2.46193">
        <ele>327</ele>
        <time>2022-03-24T13:40:39Z</time>
      </trkpt>
      <trkpt lat="43.36311" lon="2.46196">
        <ele>328.200012207</ele>
        <time>2022-03-24T13:41:04Z</time>
      </trkpt>
      <trkpt lat="43.36317" lon="2.46232">
        <ele>337.399993896</ele>
        <time>2022-03-24T13:41:39Z</time>
      </trkpt>
      <trkpt lat="43.36316" lon="2.46269">
        <ele>345</ele>
        <time>2022-03-24T13:42:16Z</time>
      </trkpt>
      <trkpt lat="43.36331" lon="2.46282">
        <ele>351.799987793</ele>
        <time>2022-03-24T13:43:03Z</time>
      </trkpt>
      <trkpt lat="43.3635" lon="2.46323">
        <ele>366</ele>
        <time>2022-03-24T13:43:45Z</time>
      </trkpt>
      <trkpt lat="43.36367" lon="2.46347">
        <ele>370</ele>
        <time>2022-03-24T13:44:28Z</time>
      </trkpt>
      <trkpt lat="43.3637" lon="2.46364">
        <ele>373.399993896</ele>
        <time>2022-03-24T13:44:58Z</time>
      </trkpt>
      <trkpt lat="43.36375" lon="2.46386">
        <ele>377</ele>
        <time>2022-03-24T13:45:15Z</time>
      </trkpt>
      <trkpt lat="43.3638" lon="2.4641">
        <ele>381</ele>
        <time>2022-03-24T13:45:34Z</time>
      </trkpt>
      <trkpt lat="43.36373" lon="2.46434">
        <ele>389.200012207</ele>
        <time>2022-03-24T13:45:59Z</time>
      </trkpt>
      <trkpt lat="43.36369" lon="2.46452">
        <ele>394.799987793</ele>
        <time>2022-03-24T13:46:17Z</time>
      </trkpt>
      <trkpt lat="43.36352" lon="2.46474">
        <ele>400.200012207</ele>
        <time>2022-03-24T13:46:49Z</time>
      </trkpt>
      <trkpt lat="43.36333" lon="2.46494">
        <ele>401.600006104</ele>
        <time>2022-03-24T13:47:12Z</time>
      </trkpt>
      <trkpt lat="43.36313" lon="2.4653">
        <ele>406.600006104</ele>
        <time>2022-03-24T13:47:52Z</time>
      </trkpt>
      <trkpt lat="43.36301" lon="2.46545">
        <ele>407.200012207</ele>
        <time>2022-03-24T13:48:22Z</time>
      </trkpt>
      <trkpt lat="43.36304" lon="2.46548">
        <ele>408.799987793</ele>
        <time>2022-03-24T13:49:00Z</time>
      </trkpt>
      <trkpt lat="43.36323" lon="2.46574">
        <ele>421.600006104</ele>
        <time>2022-03-24T13:49:35Z</time>
      </trkpt>
      <trkpt lat="43.36322" lon="2.46598">
        <ele>427.399993896</ele>
        <time>2022-03-24T13:50:07Z</time>
      </trkpt>
      <trkpt lat="43.3633" lon="2.46629">
        <ele>437.799987793</ele>
        <time>2022-03-24T13:50:46Z</time>
      </trkpt>
      <trkpt lat="43.36321" lon="2.46667">
        <ele>445.600006104</ele>
        <time>2022-03-24T13:51:28Z</time>
      </trkpt>
      <trkpt lat="43.36303" lon="2.46689">
        <ele>445.399993896</ele>
        <time>2022-03-24T13:52:00Z</time>
      </trkpt>
      <trkpt lat="43.36292" lon="2.46726">
        <ele>451.600006104</ele>
        <time>2022-03-24T13:52:33Z</time>
      </trkpt>
      <trkpt lat="43.36294" lon="2.46759">
        <ele>460.200012207</ele>
        <time>2022-03-24T13:53:14Z</time>
      </trkpt>
      <trkpt lat="43.363" lon="2.46797">
        <ele>468.200012207</ele>
        <time>2022-03-24T13:53:48Z</time>
      </trkpt>
      <trkpt lat="43.36309" lon="2.46836">
        <ele>477.600006104</ele>
        <time>2022-03-24T13:54:29Z</time>
      </trkpt>
      <trkpt lat="43.36316" lon="2.46878">
        <ele>486.200012207</ele>
        <time>2022-03-24T13:55:08Z</time>
      </trkpt>
      <trkpt lat="43.36322" lon="2.46907">
        <ele>493</ele>
        <time>2022-03-24T13:55:47Z</time>
      </trkpt>
      <trkpt lat="43.36333" lon="2.46931">
        <ele>498.200012207</ele>
        <time>2022-03-24T13:56:26Z</time>
      </trkpt>
      <trkpt lat="43.36342" lon="2.46957">
        <ele>502</ele>
        <time>2022-03-24T13:57:26Z</time>
      </trkpt>
      <trkpt lat="43.36347" lon="2.46975">
        <ele>504.200012207</ele>
        <time>2022-03-24T13:57:50Z</time>
      </trkpt>
      <trkpt lat="43.36365" lon="2.47007">
        <ele>511.200012207</ele>
        <time>2022-03-24T13:58:22Z</time>
      </trkpt>
      <trkpt lat="43.36389" lon="2.47037">
        <ele>517.599975586</ele>
        <time>2022-03-24T13:59:02Z</time>
      </trkpt>
      <trkpt lat="43.36404" lon="2.47062">
        <ele>521.400024414</ele>
        <time>2022-03-24T13:59:30Z</time>
      </trkpt>
      <trkpt lat="43.36426" lon="2.47101">
        <ele>527.599975586</ele>
        <time>2022-03-24T14:00:11Z</time>
      </trkpt>
      <trkpt lat="43.36437" lon="2.4714">
        <ele>531.400024414</ele>
        <time>2022-03-24T14:00:46Z</time>
      </trkpt>
      <trkpt lat="43.36455" lon="2.47178">
        <ele>541</ele>
        <time>2022-03-24T14:01:27Z</time>
      </trkpt>
      <trkpt lat="43.36457" lon="2.47194">
        <ele>543.400024414</ele>
        <time>2022-03-24T14:02:12Z</time>
      </trkpt>
      <trkpt lat="43.36457" lon="2.47238">
        <ele>548</ele>
        <time>2022-03-24T14:02:46Z</time>
      </trkpt>
      <trkpt lat="43.36451" lon="2.47277">
        <ele>551.200012207</ele>
        <time>2022-03-24T14:03:20Z</time>
      </trkpt>
      <trkpt lat="43.3645" lon="2.47301">
        <ele>555.799987793</ele>
        <time>2022-03-24T14:04:00Z</time>
      </trkpt>
      <trkpt lat="43.36443" lon="2.4734">
        <ele>559.400024414</ele>
        <time>2022-03-24T14:04:39Z</time>
      </trkpt>
      <trkpt lat="43.36442" lon="2.47373">
        <ele>564.200012207</ele>
        <time>2022-03-24T14:05:19Z</time>
      </trkpt>
      <trkpt lat="43.36442" lon="2.4742">
        <ele>571.799987793</ele>
        <time>2022-03-24T14:05:58Z</time>
      </trkpt>
      <trkpt lat="43.36434" lon="2.47462">
        <ele>579.799987793</ele>
        <time>2022-03-24T14:06:31Z</time>
      </trkpt>
      <trkpt lat="43.36447" lon="2.47483">
        <ele>587.799987793</ele>
        <time>2022-03-24T14:06:57Z</time>
      </trkpt>
      <trkpt lat="43.36421" lon="2.47508">
        <ele>589.799987793</ele>
        <time>2022-03-24T14:07:36Z</time>
      </trkpt>
      <trkpt lat="43.36445" lon="2.47522">
        <ele>594.200012207</ele>
        <time>2022-03-24T14:08:17Z</time>
      </trkpt>
      <trkpt lat="43.36477" lon="2.47529">
        <ele>598.400024414</ele>
        <time>2022-03-24T14:08:54Z</time>
      </trkpt>
      <trkpt lat="43.36493" lon="2.47553">
        <ele>601.599975586</ele>
        <time>2022-03-24T14:09:27Z</time>
      </trkpt>
      <trkpt lat="43.36513" lon="2.47577">
        <ele>605.799987793</ele>
        <time>2022-03-24T14:10:01Z</time>
      </trkpt>
      <trkpt lat="43.36526" lon="2.47606">
        <ele>604.200012207</ele>
        <time>2022-03-24T14:10:21Z</time>
      </trkpt>
      <trkpt lat="43.36517" lon="2.47665">
        <ele>600</ele>
        <time>2022-03-24T14:10:55Z</time>
      </trkpt>
      <trkpt lat="43.365" lon="2.47706">
        <ele>601.799987793</ele>
        <time>2022-03-24T14:11:20Z</time>
      </trkpt>
      <trkpt lat="43.36482" lon="2.47775">
        <ele>602.799987793</ele>
        <time>2022-03-24T14:11:57Z</time>
      </trkpt>
      <trkpt lat="43.36472" lon="2.47817">
        <ele>602.599975586</ele>
        <time>2022-03-24T14:12:21Z</time>
      </trkpt>
      <trkpt lat="43.36472" lon="2.47819">
        <ele>602.400024414</ele>
        <time>2022-03-24T14:13:19Z</time>
      </trkpt>
      <trkpt lat="43.36472" lon="2.47861">
        <ele>600.200012207</ele>
        <time>2022-03-24T14:13:51Z</time>
      </trkpt>
      <trkpt lat="43.36473" lon="2.47874">
        <ele>599.599975586</ele>
        <time>2022-03-24T14:13:59Z</time>
      </trkpt>
      <trkpt lat="43.3647" lon="2.479">
        <ele>597.799987793</ele>
        <time>2022-03-24T14:14:13Z</time>
      </trkpt>
      <trkpt lat="43.36457" lon="2.47968">
        <ele>596.400024414</ele>
        <time>2022-03-24T14:14:51Z</time>
      </trkpt>
      <trkpt lat="43.36452" lon="2.48002">
        <ele>592.799987793</ele>
        <time>2022-03-24T14:15:09Z</time>
      </trkpt>
      <trkpt lat="43.36422" lon="2.48043">
        <ele>591.599975586</ele>
        <time>2022-03-24T14:15:40Z</time>
      </trkpt>
      <trkpt lat="43.36395" lon="2.48093">
        <ele>594.400024414</ele>
        <time>2022-03-24T14:16:14Z</time>
      </trkpt>
      <trkpt lat="43.36391" lon="2.48158">
        <ele>593.599975586</ele>
        <time>2022-03-24T14:16:48Z</time>
      </trkpt>
      <trkpt lat="43.36393" lon="2.48233">
        <ele>589</ele>
        <time>2022-03-24T14:17:27Z</time>
      </trkpt>
      <trkpt lat="43.36386" lon="2.48272">
        <ele>586.799987793</ele>
        <time>2022-03-24T14:17:49Z</time>
      </trkpt>
      <trkpt lat="43.36381" lon="2.48318">
        <ele>582.799987793</ele>
        <time>2022-03-24T14:18:14Z</time>
      </trkpt>
      <trkpt lat="43.36356" lon="2.48374">
        <ele>583.799987793</ele>
        <time>2022-03-24T14:18:51Z</time>
      </trkpt>
      <trkpt lat="43.36331" lon="2.48393">
        <ele>584.599975586</ele>
        <time>2022-03-24T14:19:14Z</time>
      </trkpt>
      <trkpt lat="43.36314" lon="2.484">
        <ele>583.200012207</ele>
        <time>2022-03-24T14:19:43Z</time>
      </trkpt>
      <trkpt lat="43.36292" lon="2.4841">
        <ele>579.599975586</ele>
        <time>2022-03-24T14:20:01Z</time>
      </trkpt>
      <trkpt lat="43.36251" lon="2.48453">
        <ele>581</ele>
        <time>2022-03-24T14:20:36Z</time>
      </trkpt>
      <trkpt lat="43.36221" lon="2.4847">
        <ele>580.400024414</ele>
        <time>2022-03-24T14:21:00Z</time>
      </trkpt>
      <trkpt lat="43.36182" lon="2.48495">
        <ele>570.599975586</ele>
        <time>2022-03-24T14:21:33Z</time>
      </trkpt>
      <trkpt lat="43.36137" lon="2.4853">
        <ele>574.400024414</ele>
        <time>2022-03-24T14:22:09Z</time>
      </trkpt>
      <trkpt lat="43.36111" lon="2.48551">
        <ele>568.799987793</ele>
        <time>2022-03-24T14:22:32Z</time>
      </trkpt>
      <trkpt lat="43.36082" lon="2.4859">
        <ele>563.200012207</ele>
        <time>2022-03-24T14:23:03Z</time>
      </trkpt>
      <trkpt lat="43.36043" lon="2.48643">
        <ele>562.799987793</ele>
        <time>2022-03-24T14:23:42Z</time>
      </trkpt>
      <trkpt lat="43.36024" lon="2.48672">
        <ele>557.599975586</ele>
        <time>2022-03-24T14:24:22Z</time>
      </trkpt>
      <trkpt lat="43.35996" lon="2.48704">
        <ele>554</ele>
        <time>2022-03-24T14:24:51Z</time>
      </trkpt>
      <trkpt lat="43.35939" lon="2.48744">
        <ele>547.799987793</ele>
        <time>2022-03-24T14:25:39Z</time>
      </trkpt>
      <trkpt lat="43.35908" lon="2.4877">
        <ele>542.200012207</ele>
        <time>2022-03-24T14:26:06Z</time>
      </trkpt>
      <trkpt lat="43.35926" lon="2.48797">
        <ele>546.400024414</ele>
        <time>2022-03-24T14:26:30Z</time>
      </trkpt>
      <trkpt lat="43.35946" lon="2.48843">
        <ele>551.799987793</ele>
        <time>2022-03-24T14:27:07Z</time>
      </trkpt>
      <trkpt lat="43.35933" lon="2.48879">
        <ele>552.799987793</ele>
        <time>2022-03-24T14:27:29Z</time>
      </trkpt>
      <trkpt lat="43.35916" lon="2.48908">
        <ele>552.200012207</ele>
        <time>2022-03-24T14:27:52Z</time>
      </trkpt>
      <trkpt lat="43.35887" lon="2.48942">
        <ele>553.599975586</ele>
        <time>2022-03-24T14:28:23Z</time>
      </trkpt>
      <trkpt lat="43.35847" lon="2.49003">
        <ele>558.400024414</ele>
        <time>2022-03-24T14:29:11Z</time>
      </trkpt>
      <trkpt lat="43.35827" lon="2.49055">
        <ele>561</ele>
        <time>2022-03-24T14:29:45Z</time>
      </trkpt>
      <trkpt lat="43.35815" lon="2.49105">
        <ele>562</ele>
        <time>2022-03-24T14:30:16Z</time>
      </trkpt>
      <trkpt lat="43.35839" lon="2.49156">
        <ele>574</ele>
        <time>2022-03-24T14:30:50Z</time>
      </trkpt>
      <trkpt lat="43.35797" lon="2.49223">
        <ele>570.799987793</ele>
        <time>2022-03-24T14:31:37Z</time>
      </trkpt>
      <trkpt lat="43.3577" lon="2.49295">
        <ele>575.599975586</ele>
        <time>2022-03-24T14:32:23Z</time>
      </trkpt>
      <trkpt lat="43.35725" lon="2.49348">
        <ele>574.200012207</ele>
        <time>2022-03-24T14:33:07Z</time>
      </trkpt>
      <trkpt lat="43.35671" lon="2.49397">
        <ele>574.599975586</ele>
        <time>2022-03-24T14:33:57Z</time>
      </trkpt>
      <trkpt lat="43.3563" lon="2.49433">
        <ele>569.599975586</ele>
        <time>2022-03-24T14:34:30Z</time>
      </trkpt>
      <trkpt lat="43.35591" lon="2.49494">
        <ele>570.799987793</ele>
        <time>2022-03-24T14:35:13Z</time>
      </trkpt>
      <trkpt lat="43.35554" lon="2.49563">
        <ele>571.599975586</ele>
        <time>2022-03-24T14:35:58Z</time>
      </trkpt>
      <trkpt lat="43.35507" lon="2.49631">
        <ele>569.599975586</ele>
        <time>2022-03-24T14:36:48Z</time>
      </trkpt>
      <trkpt lat="43.35475" lon="2.49696">
        <ele>569.200012207</ele>
        <time>2022-03-24T14:37:29Z</time>
      </trkpt>
      <trkpt lat="43.35479" lon="2.49771">
        <ele>571.599975586</ele>
        <time>2022-03-24T14:38:14Z</time>
      </trkpt>
      <trkpt lat="43.35504" lon="2.49825">
        <ele>577.200012207</ele>
        <time>2022-03-24T14:38:49Z</time>
      </trkpt>
      <trkpt lat="43.35471" lon="2.49859">
        <ele>571.200012207</ele>
        <time>2022-03-24T14:39:16Z</time>
      </trkpt>
      <trkpt lat="43.35433" lon="2.49919">
        <ele>569</ele>
        <time>2022-03-24T14:39:57Z</time>
      </trkpt>
      <trkpt lat="43.35397" lon="2.49967">
        <ele>570</ele>
        <time>2022-03-24T14:40:34Z</time>
      </trkpt>
      <trkpt lat="43.35355" lon="2.50009">
        <ele>570.400024414</ele>
        <time>2022-03-24T14:41:12Z</time>
      </trkpt>
      <trkpt lat="43.35316" lon="2.50017">
        <ele>565.200012207</ele>
        <time>2022-03-24T14:41:40Z</time>
      </trkpt>
      <trkpt lat="43.35283" lon="2.50042">
        <ele>563.400024414</ele>
        <time>2022-03-24T14:42:09Z</time>
      </trkpt>
      <trkpt lat="43.35269" lon="2.50079">
        <ele>565.599975586</ele>
        <time>2022-03-24T14:42:32Z</time>
      </trkpt>
      <trkpt lat="43.35244" lon="2.50143">
        <ele>573</ele>
        <time>2022-03-24T14:43:15Z</time>
      </trkpt>
      <trkpt lat="43.35194" lon="2.50155">
        <ele>565.400024414</ele>
        <time>2022-03-24T14:43:52Z</time>
      </trkpt>
      <trkpt lat="43.35163" lon="2.50165">
        <ele>561</ele>
        <time>2022-03-24T14:44:28Z</time>
      </trkpt>
      <trkpt lat="43.35121" lon="2.50203">
        <ele>559.799987793</ele>
        <time>2022-03-24T14:45:06Z</time>
      </trkpt>
      <trkpt lat="43.35099" lon="2.50256">
        <ele>560.799987793</ele>
        <time>2022-03-24T14:45:40Z</time>
      </trkpt>
      <trkpt lat="43.35072" lon="2.50326">
        <ele>562.799987793</ele>
        <time>2022-03-24T14:46:21Z</time>
      </trkpt>
      <trkpt lat="43.35032" lon="2.50388">
        <ele>558.799987793</ele>
        <time>2022-03-24T14:47:04Z</time>
      </trkpt>
      <trkpt lat="43.34998" lon="2.50441">
        <ele>558</ele>
        <time>2022-03-24T14:47:40Z</time>
      </trkpt>
      <trkpt lat="43.34964" lon="2.50481">
        <ele>554.200012207</ele>
        <time>2022-03-24T14:48:12Z</time>
      </trkpt>
      <trkpt lat="43.3493" lon="2.50523">
        <ele>550.799987793</ele>
        <time>2022-03-24T14:48:46Z</time>
      </trkpt>
      <trkpt lat="43.34889" lon="2.50614">
        <ele>543.799987793</ele>
        <time>2022-03-24T14:49:44Z</time>
      </trkpt>
      <trkpt lat="43.34874" lon="2.50681">
        <ele>543</ele>
        <time>2022-03-24T14:50:21Z</time>
      </trkpt>
      <trkpt lat="43.34857" lon="2.50749">
        <ele>543</ele>
        <time>2022-03-24T14:51:00Z</time>
      </trkpt>
      <trkpt lat="43.34844" lon="2.50806">
        <ele>541.799987793</ele>
        <time>2022-03-24T14:51:32Z</time>
      </trkpt>
      <trkpt lat="43.3482" lon="2.50899">
        <ele>538.599975586</ele>
        <time>2022-03-24T14:52:24Z</time>
      </trkpt>
      <trkpt lat="43.34799" lon="2.50967">
        <ele>538.799987793</ele>
        <time>2022-03-24T14:53:03Z</time>
      </trkpt>
      <trkpt lat="43.3479" lon="2.51007">
        <ele>541.400024414</ele>
        <time>2022-03-24T14:53:25Z</time>
      </trkpt>
      <trkpt lat="43.34784" lon="2.51011">
        <ele>540.599975586</ele>
        <time>2022-03-24T14:53:31Z</time>
      </trkpt>
      <trkpt lat="43.34772" lon="2.51013">
        <ele>539.599975586</ele>
        <time>2022-03-24T14:53:47Z</time>
      </trkpt>
      <trkpt lat="43.34771" lon="2.51049">
        <ele>539</ele>
        <time>2022-03-24T14:54:12Z</time>
      </trkpt>
      <trkpt lat="43.34758" lon="2.51069">
        <ele>538.200012207</ele>
        <time>2022-03-24T14:54:28Z</time>
      </trkpt>
      <trkpt lat="43.34736" lon="2.51112">
        <ele>536</ele>
        <time>2022-03-24T14:54:54Z</time>
      </trkpt>
      <trkpt lat="43.34709" lon="2.51162">
        <ele>533</ele>
        <time>2022-03-24T14:55:26Z</time>
      </trkpt>
      <trkpt lat="43.34682" lon="2.51194">
        <ele>531.200012207</ele>
        <time>2022-03-24T14:55:51Z</time>
      </trkpt>
      <trkpt lat="43.34658" lon="2.51223">
        <ele>529.400024414</ele>
        <time>2022-03-24T14:56:13Z</time>
      </trkpt>
      <trkpt lat="43.3463" lon="2.51275">
        <ele>528.599975586</ele>
        <time>2022-03-24T14:56:47Z</time>
      </trkpt>
      <trkpt lat="43.34627" lon="2.51285">
        <ele>527.599975586</ele>
        <time>2022-03-24T14:56:55Z</time>
      </trkpt>
      <trkpt lat="43.34621" lon="2.51301">
        <ele>527.400024414</ele>
        <time>2022-03-24T14:57:05Z</time>
      </trkpt>
      <trkpt lat="43.34603" lon="2.51341">
        <ele>527.200012207</ele>
        <time>2022-03-24T14:57:31Z</time>
      </trkpt>
      <trkpt lat="43.34589" lon="2.51372">
        <ele>526</ele>
        <time>2022-03-24T14:57:51Z</time>
      </trkpt>
      <trkpt lat="43.34568" lon="2.51428">
        <ele>522.799987793</ele>
        <time>2022-03-24T14:58:24Z</time>
      </trkpt>
      <trkpt lat="43.34562" lon="2.51441">
        <ele>522.400024414</ele>
        <time>2022-03-24T14:58:32Z</time>
      </trkpt>
      <trkpt lat="43.34553" lon="2.51474">
        <ele>520.599975586</ele>
        <time>2022-03-24T14:58:50Z</time>
      </trkpt>
      <trkpt lat="43.34538" lon="2.51505">
        <ele>520.599975586</ele>
        <time>2022-03-24T14:59:09Z</time>
      </trkpt>
      <trkpt lat="43.34528" lon="2.51563">
        <ele>516.599975586</ele>
        <time>2022-03-24T14:59:40Z</time>
      </trkpt>
      <trkpt lat="43.34507" lon="2.51597">
        <ele>516</ele>
        <time>2022-03-24T15:00:02Z</time>
      </trkpt>
      <trkpt lat="43.34473" lon="2.51618">
        <ele>510.799987793</ele>
        <time>2022-03-24T15:00:28Z</time>
      </trkpt>
      <trkpt lat="43.34424" lon="2.51633">
        <ele>506.200012207</ele>
        <time>2022-03-24T15:01:05Z</time>
      </trkpt>
      <trkpt lat="43.34389" lon="2.51573">
        <ele>503.799987793</ele>
        <time>2022-03-24T15:01:46Z</time>
      </trkpt>
      <trkpt lat="43.34361" lon="2.51528">
        <ele>500.399993896</ele>
        <time>2022-03-24T15:02:17Z</time>
      </trkpt>
      <trkpt lat="43.34338" lon="2.51468">
        <ele>498.399993896</ele>
        <time>2022-03-24T15:02:54Z</time>
      </trkpt>
      <trkpt lat="43.34311" lon="2.51414">
        <ele>495.200012207</ele>
        <time>2022-03-24T15:03:28Z</time>
      </trkpt>
      <trkpt lat="43.34294" lon="2.51425">
        <ele>491</ele>
        <time>2022-03-24T15:03:52Z</time>
      </trkpt>
      <trkpt lat="43.34294" lon="2.51493">
        <ele>487.399993896</ele>
        <time>2022-03-24T15:04:30Z</time>
      </trkpt>
      <trkpt lat="43.34288" lon="2.51527">
        <ele>484.399993896</ele>
        <time>2022-03-24T15:05:05Z</time>
      </trkpt>
      <trkpt lat="43.34286" lon="2.51527">
        <ele>484</ele>
        <time>2022-03-24T15:05:32Z</time>
      </trkpt>
      <trkpt lat="43.34286" lon="2.5153">
        <ele>483.799987793</ele>
        <time>2022-03-24T15:06:16Z</time>
      </trkpt>
      <trkpt lat="43.34288" lon="2.51529">
        <ele>484.399993896</ele>
        <time>2022-03-24T15:06:55Z</time>
      </trkpt>
      <trkpt lat="43.34285" lon="2.51526">
        <ele>483.799987793</ele>
        <time>2022-03-24T15:07:40Z</time>
      </trkpt>
      <trkpt lat="43.34297" lon="2.51558">
        <ele>485.200012207</ele>
        <time>2022-03-24T15:09:01Z</time>
      </trkpt>
      <trkpt lat="43.34308" lon="2.51605">
        <ele>485</ele>
        <time>2022-03-24T15:09:28Z</time>
      </trkpt>
      <trkpt lat="43.34314" lon="2.51628">
        <ele>484.799987793</ele>
        <time>2022-03-24T15:09:41Z</time>
      </trkpt>
      <trkpt lat="43.34321" lon="2.51666">
        <ele>482.399993896</ele>
        <time>2022-03-24T15:10:02Z</time>
      </trkpt>
      <trkpt lat="43.34326" lon="2.51708">
        <ele>479.399993896</ele>
        <time>2022-03-24T15:10:26Z</time>
      </trkpt>
      <trkpt lat="43.34338" lon="2.51744">
        <ele>478.799987793</ele>
        <time>2022-03-24T15:10:49Z</time>
      </trkpt>
      <trkpt lat="43.34369" lon="2.51783">
        <ele>472</ele>
        <time>2022-03-24T15:11:27Z</time>
      </trkpt>
      <trkpt lat="43.34374" lon="2.51787">
        <ele>470.600006104</ele>
        <time>2022-03-24T15:11:49Z</time>
      </trkpt>
      <trkpt lat="43.34383" lon="2.51777">
        <ele>472.600006104</ele>
        <time>2022-03-24T15:12:24Z</time>
      </trkpt>
      <trkpt lat="43.34409" lon="2.51762">
        <ele>480.600006104</ele>
        <time>2022-03-24T15:12:51Z</time>
      </trkpt>
      <trkpt lat="43.34439" lon="2.51757">
        <ele>484.600006104</ele>
        <time>2022-03-24T15:13:20Z</time>
      </trkpt>
      <trkpt lat="43.34473" lon="2.51795">
        <ele>471.399993896</ele>
        <time>2022-03-24T15:13:58Z</time>
      </trkpt>
      <trkpt lat="43.34495" lon="2.51829">
        <ele>458.600006104</ele>
        <time>2022-03-24T15:14:26Z</time>
      </trkpt>
      <trkpt lat="43.34523" lon="2.51857">
        <ele>449.600006104</ele>
        <time>2022-03-24T15:14:56Z</time>
      </trkpt>
      <trkpt lat="43.34526" lon="2.51861">
        <ele>448.399993896</ele>
        <time>2022-03-24T15:15:16Z</time>
      </trkpt>
      <trkpt lat="43.3454" lon="2.51869">
        <ele>446.200012207</ele>
        <time>2022-03-24T15:15:30Z</time>
      </trkpt>
      <trkpt lat="43.34557" lon="2.51874">
        <ele>445.200012207</ele>
        <time>2022-03-24T15:15:44Z</time>
      </trkpt>
      <trkpt lat="43.34579" lon="2.51852">
        <ele>449</ele>
        <time>2022-03-24T15:16:10Z</time>
      </trkpt>
      <trkpt lat="43.34587" lon="2.51832">
        <ele>453.200012207</ele>
        <time>2022-03-24T15:16:25Z</time>
      </trkpt>
      <trkpt lat="43.34603" lon="2.51805">
        <ele>454.600006104</ele>
        <time>2022-03-24T15:16:46Z</time>
      </trkpt>
      <trkpt lat="43.34613" lon="2.51781">
        <ele>453.399993896</ele>
        <time>2022-03-24T15:17:03Z</time>
      </trkpt>
      <trkpt lat="43.34632" lon="2.51754">
        <ele>447.200012207</ele>
        <time>2022-03-24T15:17:28Z</time>
      </trkpt>
      <trkpt lat="43.3465" lon="2.51731">
        <ele>440.200012207</ele>
        <time>2022-03-24T15:17:52Z</time>
      </trkpt>
      <trkpt lat="43.34667" lon="2.51707">
        <ele>436.600006104</ele>
        <time>2022-03-24T15:18:16Z</time>
      </trkpt>
      <trkpt lat="43.34695" lon="2.51681">
        <ele>431.200012207</ele>
        <time>2022-03-24T15:18:44Z</time>
      </trkpt>
      <trkpt lat="43.34719" lon="2.51662">
        <ele>427.799987793</ele>
        <time>2022-03-24T15:19:11Z</time>
      </trkpt>
      <trkpt lat="43.34745" lon="2.51637">
        <ele>424.600006104</ele>
        <time>2022-03-24T15:19:42Z</time>
      </trkpt>
      <trkpt lat="43.34755" lon="2.51651">
        <ele>417.799987793</ele>
        <time>2022-03-24T15:19:59Z</time>
      </trkpt>
      <trkpt lat="43.34758" lon="2.51696">
        <ele>405.200012207</ele>
        <time>2022-03-24T15:20:31Z</time>
      </trkpt>
      <trkpt lat="43.34761" lon="2.51737">
        <ele>392.799987793</ele>
        <time>2022-03-24T15:21:02Z</time>
      </trkpt>
      <trkpt lat="43.34765" lon="2.51766">
        <ele>383.799987793</ele>
        <time>2022-03-24T15:21:23Z</time>
      </trkpt>
      <trkpt lat="43.34767" lon="2.51788">
        <ele>378</ele>
        <time>2022-03-24T15:21:40Z</time>
      </trkpt>
      <trkpt lat="43.34771" lon="2.51818">
        <ele>370.399993896</ele>
        <time>2022-03-24T15:21:58Z</time>
      </trkpt>
      <trkpt lat="43.34778" lon="2.5184">
        <ele>364.399993896</ele>
        <time>2022-03-24T15:22:18Z</time>
      </trkpt>
      <trkpt lat="43.34789" lon="2.5187">
        <ele>354.799987793</ele>
        <time>2022-03-24T15:22:41Z</time>
      </trkpt>
      <trkpt lat="43.34795" lon="2.51889">
        <ele>349.200012207</ele>
        <time>2022-03-24T15:22:58Z</time>
      </trkpt>
      <trkpt lat="43.34791" lon="2.51892">
        <ele>348</ele>
        <time>2022-03-24T15:23:09Z</time>
      </trkpt>
      <trkpt lat="43.34767" lon="2.5187">
        <ele>353.799987793</ele>
        <time>2022-03-24T15:23:33Z</time>
      </trkpt>
      <trkpt lat="43.34771" lon="2.51897">
        <ele>345.399993896</ele>
        <time>2022-03-24T15:24:02Z</time>
      </trkpt>
      <trkpt lat="43.34786" lon="2.51939">
        <ele>331.399993896</ele>
        <time>2022-03-24T15:24:37Z</time>
      </trkpt>
      <trkpt lat="43.348" lon="2.51968">
        <ele>322.600006104</ele>
        <time>2022-03-24T15:25:08Z</time>
      </trkpt>
      <trkpt lat="43.34771" lon="2.51957">
        <ele>328</ele>
        <time>2022-03-24T15:25:41Z</time>
      </trkpt>
      <trkpt lat="43.34772" lon="2.51959">
        <ele>327.399993896</ele>
        <time>2022-03-24T15:25:52Z</time>
      </trkpt>
      <trkpt lat="43.34778" lon="2.51986">
        <ele>319.600006104</ele>
        <time>2022-03-24T15:26:21Z</time>
      </trkpt>
      <trkpt lat="43.34799" lon="2.52011">
        <ele>310</ele>
        <time>2022-03-24T15:27:02Z</time>
      </trkpt>
      <trkpt lat="43.34808" lon="2.52027">
        <ele>302.799987793</ele>
        <time>2022-03-24T15:27:32Z</time>
      </trkpt>
      <trkpt lat="43.34826" lon="2.52057">
        <ele>289.200012207</ele>
        <time>2022-03-24T15:28:01Z</time>
      </trkpt>
      <trkpt lat="43.3482" lon="2.52072">
        <ele>285.600006104</ele>
        <time>2022-03-24T15:28:16Z</time>
      </trkpt>
      <trkpt lat="43.34792" lon="2.52062">
        <ele>293.600006104</ele>
        <time>2022-03-24T15:28:43Z</time>
      </trkpt>
      <trkpt lat="43.34805" lon="2.52082">
        <ele>285.200012207</ele>
        <time>2022-03-24T15:29:06Z</time>
      </trkpt>
      <trkpt lat="43.34815" lon="2.52105">
        <ele>280.799987793</ele>
        <time>2022-03-24T15:29:26Z</time>
      </trkpt>
      <trkpt lat="43.34808" lon="2.52113">
        <ele>281.399993896</ele>
        <time>2022-03-24T15:29:40Z</time>
      </trkpt>
      <trkpt lat="43.34806" lon="2.52127">
        <ele>280.200012207</ele>
        <time>2022-03-24T15:30:03Z</time>
      </trkpt>
      <trkpt lat="43.34818" lon="2.52138">
        <ele>277.200012207</ele>
        <time>2022-03-24T15:30:17Z</time>
      </trkpt>
      <trkpt lat="43.34825" lon="2.52146">
        <ele>274.600006104</ele>
        <time>2022-03-24T15:30:47Z</time>
      </trkpt>
      <trkpt lat="43.34828" lon="2.52146">
        <ele>274.600006104</ele>
        <time>2022-03-24T15:31:08Z</time>
      </trkpt>
      <trkpt lat="43.34826" lon="2.52147">
        <ele>274.600006104</ele>
        <time>2022-03-24T15:31:27Z</time>
      </trkpt>
      <trkpt lat="43.34827" lon="2.5214">
        <ele>275.399993896</ele>
        <time>2022-03-24T15:33:01Z</time>
      </trkpt>
      <trkpt lat="43.34826" lon="2.52145">
        <ele>275</ele>
        <time>2022-03-24T15:33:33Z</time>
      </trkpt>
      <trkpt lat="43.34827" lon="2.52146">
        <ele>274.799987793</ele>
        <time>2022-03-24T15:33:46Z</time>
      </trkpt>
      <trkpt lat="43.34829" lon="2.52145">
        <ele>274.399993896</ele>
        <time>2022-03-24T15:34:06Z</time>
      </trkpt>
      <trkpt lat="43.34828" lon="2.52144">
        <ele>274.799987793</ele>
        <time>2022-03-24T15:35:43Z</time>
      </trkpt>
      <trkpt lat="43.34818" lon="2.52168">
        <ele>268.200012207</ele>
        <time>2022-03-24T15:36:09Z</time>
      </trkpt>
      <trkpt lat="43.34788" lon="2.52202">
        <ele>270</ele>
        <time>2022-03-24T15:36:37Z</time>
      </trkpt>
      <trkpt lat="43.34779" lon="2.52217">
        <ele>264.600006104</ele>
        <time>2022-03-24T15:36:48Z</time>
      </trkpt>
      <trkpt lat="43.34751" lon="2.52267">
        <ele>255.600006104</ele>
        <time>2022-03-24T15:37:22Z</time>
      </trkpt>
      <trkpt lat="43.34744" lon="2.52309">
        <ele>256.799987793</ele>
        <time>2022-03-24T15:37:47Z</time>
      </trkpt>
      <trkpt lat="43.34724" lon="2.52347">
        <ele>252.399993896</ele>
        <time>2022-03-24T15:38:14Z</time>
      </trkpt>
      <trkpt lat="43.34673" lon="2.52374">
        <ele>254.600006104</ele>
        <time>2022-03-24T15:40:08Z</time>
      </trkpt>
      <trkpt lat="43.34648" lon="2.52384">
        <ele>253.399993896</ele>
        <time>2022-03-24T15:40:28Z</time>
      </trkpt>
      <trkpt lat="43.34616" lon="2.52413">
        <ele>259</ele>
        <time>2022-03-24T15:40:58Z</time>
      </trkpt>
      <trkpt lat="43.34603" lon="2.52426">
        <ele>263.200012207</ele>
        <time>2022-03-24T15:41:11Z</time>
      </trkpt>
      <trkpt lat="43.34611" lon="2.5243">
        <ele>266</ele>
        <time>2022-03-24T15:41:26Z</time>
      </trkpt>
      <trkpt lat="43.34655" lon="2.52421">
        <ele>268.200012207</ele>
        <time>2022-03-24T15:42:03Z</time>
      </trkpt>
      <trkpt lat="43.34682" lon="2.52419">
        <ele>267</ele>
        <time>2022-03-24T15:42:30Z</time>
      </trkpt>
      <trkpt lat="43.34658" lon="2.52436">
        <ele>275.399993896</ele>
        <time>2022-03-24T15:42:53Z</time>
      </trkpt>
      <trkpt lat="43.34635" lon="2.52452">
        <ele>278.799987793</ele>
        <time>2022-03-24T15:43:14Z</time>
      </trkpt>
      <trkpt lat="43.3461" lon="2.52468">
        <ele>285.399993896</ele>
        <time>2022-03-24T15:43:37Z</time>
      </trkpt>
      <trkpt lat="43.34583" lon="2.52472">
        <ele>288</ele>
        <time>2022-03-24T15:44:00Z</time>
      </trkpt>
      <trkpt lat="43.34556" lon="2.52483">
        <ele>293</ele>
        <time>2022-03-24T15:44:26Z</time>
      </trkpt>
      <trkpt lat="43.34531" lon="2.52491">
        <ele>296.200012207</ele>
        <time>2022-03-24T15:44:50Z</time>
      </trkpt>
      <trkpt lat="43.34513" lon="2.52497">
        <ele>297.799987793</ele>
        <time>2022-03-24T15:45:08Z</time>
      </trkpt>
      <trkpt lat="43.34486" lon="2.52513">
        <ele>301.799987793</ele>
        <time>2022-03-24T15:45:37Z</time>
      </trkpt>
      <trkpt lat="43.34465" lon="2.52525">
        <ele>304</ele>
        <time>2022-03-24T15:46:03Z</time>
      </trkpt>
      <trkpt lat="43.34442" lon="2.5252">
        <ele>299</ele>
        <time>2022-03-24T15:46:28Z</time>
      </trkpt>
      <trkpt lat="43.34412" lon="2.52541">
        <ele>298.399993896</ele>
        <time>2022-03-24T15:46:58Z</time>
      </trkpt>
      <trkpt lat="43.344" lon="2.5258">
        <ele>306.200012207</ele>
        <time>2022-03-24T15:47:23Z</time>
      </trkpt>
      <trkpt lat="43.34385" lon="2.52601">
        <ele>308.399993896</ele>
        <time>2022-03-24T15:47:49Z</time>
      </trkpt>
      <trkpt lat="43.34371" lon="2.52617">
        <ele>308.600006104</ele>
        <time>2022-03-24T15:48:04Z</time>
      </trkpt>
      <trkpt lat="43.34356" lon="2.52644">
        <ele>313</ele>
        <time>2022-03-24T15:48:25Z</time>
      </trkpt>
      <trkpt lat="43.34346" lon="2.52667">
        <ele>318.600006104</ele>
        <time>2022-03-24T15:48:43Z</time>
      </trkpt>
      <trkpt lat="43.34332" lon="2.52689">
        <ele>322.799987793</ele>
        <time>2022-03-24T15:49:01Z</time>
      </trkpt>
      <trkpt lat="43.34312" lon="2.52705">
        <ele>324.399993896</ele>
        <time>2022-03-24T15:49:18Z</time>
      </trkpt>
      <trkpt lat="43.34279" lon="2.5272">
        <ele>322.600006104</ele>
        <time>2022-03-24T15:49:43Z</time>
      </trkpt>
      <trkpt lat="43.34253" lon="2.52725">
        <ele>320.799987793</ele>
        <time>2022-03-24T15:50:04Z</time>
      </trkpt>
      <trkpt lat="43.34227" lon="2.52737">
        <ele>323.799987793</ele>
        <time>2022-03-24T15:50:24Z</time>
      </trkpt>
      <trkpt lat="43.34195" lon="2.52747">
        <ele>327.399993896</ele>
        <time>2022-03-24T15:50:52Z</time>
      </trkpt>
      <trkpt lat="43.3417" lon="2.52751">
        <ele>328.399993896</ele>
        <time>2022-03-24T15:51:13Z</time>
      </trkpt>
      <trkpt lat="43.34152" lon="2.52754">
        <ele>329.799987793</ele>
        <time>2022-03-24T15:51:27Z</time>
      </trkpt>
      <trkpt lat="43.34131" lon="2.52759">
        <ele>333.200012207</ele>
        <time>2022-03-24T15:51:43Z</time>
      </trkpt>
      <trkpt lat="43.34109" lon="2.52759">
        <ele>337.399993896</ele>
        <time>2022-03-24T15:52:06Z</time>
      </trkpt>
      <trkpt lat="43.34079" lon="2.52744">
        <ele>334.799987793</ele>
        <time>2022-03-24T15:52:32Z</time>
      </trkpt>
      <trkpt lat="43.3406" lon="2.52732">
        <ele>332.399993896</ele>
        <time>2022-03-24T15:52:51Z</time>
      </trkpt>
      <trkpt lat="43.34036" lon="2.52712">
        <ele>329.200012207</ele>
        <time>2022-03-24T15:53:12Z</time>
      </trkpt>
      <trkpt lat="43.3401" lon="2.52701">
        <ele>326.399993896</ele>
        <time>2022-03-24T15:53:39Z</time>
      </trkpt>
      <trkpt lat="43.33992" lon="2.52728">
        <ele>330.200012207</ele>
        <time>2022-03-24T15:54:04Z</time>
      </trkpt>
      <trkpt lat="43.33974" lon="2.52761">
        <ele>336</ele>
        <time>2022-03-24T15:54:30Z</time>
      </trkpt>
      <trkpt lat="43.33952" lon="2.52782">
        <ele>337.600006104</ele>
        <time>2022-03-24T15:54:55Z</time>
      </trkpt>
      <trkpt lat="43.33928" lon="2.52786">
        <ele>334.600006104</ele>
        <time>2022-03-24T15:55:16Z</time>
      </trkpt>
      <trkpt lat="43.339" lon="2.52789">
        <ele>332.399993896</ele>
        <time>2022-03-24T15:55:44Z</time>
      </trkpt>
      <trkpt lat="43.33861" lon="2.52804">
        <ele>332</ele>
        <time>2022-03-24T15:56:18Z</time>
      </trkpt>
      <trkpt lat="43.33844" lon="2.52807">
        <ele>329.799987793</ele>
        <time>2022-03-24T15:56:34Z</time>
      </trkpt>
      <trkpt lat="43.33823" lon="2.5282">
        <ele>330.799987793</ele>
        <time>2022-03-24T15:56:52Z</time>
      </trkpt>
      <trkpt lat="43.33816" lon="2.52848">
        <ele>334.600006104</ele>
        <time>2022-03-24T15:57:13Z</time>
      </trkpt>
      <trkpt lat="43.33789" lon="2.52862">
        <ele>332.399993896</ele>
        <time>2022-03-24T15:57:40Z</time>
      </trkpt>
      <trkpt lat="43.33765" lon="2.52856">
        <ele>326.799987793</ele>
        <time>2022-03-24T15:58:01Z</time>
      </trkpt>
      <trkpt lat="43.33743" lon="2.52847">
        <ele>322.799987793</ele>
        <time>2022-03-24T15:58:22Z</time>
      </trkpt>
      <trkpt lat="43.33722" lon="2.52837">
        <ele>319.799987793</ele>
        <time>2022-03-24T15:58:44Z</time>
      </trkpt>
      <trkpt lat="43.33698" lon="2.52837">
        <ele>320.399993896</ele>
        <time>2022-03-24T15:59:04Z</time>
      </trkpt>
      <trkpt lat="43.33674" lon="2.52833">
        <ele>319.200012207</ele>
        <time>2022-03-24T15:59:29Z</time>
      </trkpt>
      <trkpt lat="43.33649" lon="2.52838">
        <ele>317.600006104</ele>
        <time>2022-03-24T16:00:10Z</time>
      </trkpt>
      <trkpt lat="43.33622" lon="2.52859">
        <ele>315.600006104</ele>
        <time>2022-03-24T16:00:33Z</time>
      </trkpt>
      <trkpt lat="43.3361" lon="2.52871">
        <ele>314.200012207</ele>
        <time>2022-03-24T16:00:59Z</time>
      </trkpt>
      <trkpt lat="43.33607" lon="2.5287">
        <ele>313.799987793</ele>
        <time>2022-03-24T16:01:28Z</time>
      </trkpt>
      <trkpt lat="43.33571" lon="2.52866">
        <ele>308.399993896</ele>
        <time>2022-03-24T16:02:00Z</time>
      </trkpt>
      <trkpt lat="43.33513" lon="2.52839">
        <ele>300</ele>
        <time>2022-03-24T16:02:52Z</time>
      </trkpt>
      <trkpt lat="43.33489" lon="2.52835">
        <ele>296.600006104</ele>
        <time>2022-03-24T16:03:12Z</time>
      </trkpt>
      <trkpt lat="43.33471" lon="2.52826">
        <ele>293.600006104</ele>
        <time>2022-03-24T16:03:29Z</time>
      </trkpt>
      <trkpt lat="43.33465" lon="2.52839">
        <ele>294.399993896</ele>
        <time>2022-03-24T16:03:51Z</time>
      </trkpt>
      <trkpt lat="43.33463" lon="2.52872">
        <ele>297.600006104</ele>
        <time>2022-03-24T16:04:14Z</time>
      </trkpt>
      <trkpt lat="43.33462" lon="2.5289">
        <ele>299.200012207</ele>
        <time>2022-03-24T16:04:28Z</time>
      </trkpt>
      <trkpt lat="43.33487" lon="2.5295">
        <ele>303.799987793</ele>
        <time>2022-03-24T16:05:12Z</time>
      </trkpt>
      <trkpt lat="43.33492" lon="2.53014">
        <ele>302.399993896</ele>
        <time>2022-03-24T16:05:47Z</time>
      </trkpt>
      <trkpt lat="43.33503" lon="2.53056">
        <ele>301.200012207</ele>
        <time>2022-03-24T16:06:11Z</time>
      </trkpt>
      <trkpt lat="43.33522" lon="2.53093">
        <ele>301.600006104</ele>
        <time>2022-03-24T16:06:35Z</time>
      </trkpt>
      <trkpt lat="43.33529" lon="2.53112">
        <ele>301.799987793</ele>
        <time>2022-03-24T16:06:49Z</time>
      </trkpt>
      <trkpt lat="43.33513" lon="2.53176">
        <ele>302.200012207</ele>
        <time>2022-03-24T16:07:30Z</time>
      </trkpt>
      <trkpt lat="43.33505" lon="2.5323">
        <ele>301.399993896</ele>
        <time>2022-03-24T16:08:07Z</time>
      </trkpt>
      <trkpt lat="43.33548" lon="2.53263">
        <ele>308</ele>
        <time>2022-03-24T16:08:48Z</time>
      </trkpt>
      <trkpt lat="43.33577" lon="2.53284">
        <ele>311.799987793</ele>
        <time>2022-03-24T16:09:16Z</time>
      </trkpt>
      <trkpt lat="43.33598" lon="2.53301">
        <ele>313.399993896</ele>
        <time>2022-03-24T16:09:38Z</time>
      </trkpt>
      <trkpt lat="43.33606" lon="2.53336">
        <ele>315</ele>
        <time>2022-03-24T16:10:01Z</time>
      </trkpt>
      <trkpt lat="43.33597" lon="2.53407">
        <ele>316.799987793</ele>
        <time>2022-03-24T16:10:44Z</time>
      </trkpt>
      <trkpt lat="43.33623" lon="2.53481">
        <ele>323.600006104</ele>
        <time>2022-03-24T16:11:34Z</time>
      </trkpt>
      <trkpt lat="43.33609" lon="2.53527">
        <ele>323.200012207</ele>
        <time>2022-03-24T16:12:17Z</time>
      </trkpt>
      <trkpt lat="43.3357" lon="2.53506">
        <ele>318.399993896</ele>
        <time>2022-03-24T16:12:49Z</time>
      </trkpt>
      <trkpt lat="43.33537" lon="2.5351">
        <ele>315.799987793</ele>
        <time>2022-03-24T16:13:15Z</time>
      </trkpt>
      <trkpt lat="43.33514" lon="2.53543">
        <ele>316</ele>
        <time>2022-03-24T16:13:40Z</time>
      </trkpt>
      <trkpt lat="43.33491" lon="2.53579">
        <ele>312.600006104</ele>
        <time>2022-03-24T16:14:06Z</time>
      </trkpt>
      <trkpt lat="43.33465" lon="2.53616">
        <ele>308.799987793</ele>
        <time>2022-03-24T16:14:35Z</time>
      </trkpt>
      <trkpt lat="43.33427" lon="2.5367">
        <ele>304.600006104</ele>
        <time>2022-03-24T16:15:15Z</time>
      </trkpt>
      <trkpt lat="43.33403" lon="2.5372">
        <ele>302</ele>
        <time>2022-03-24T16:15:47Z</time>
      </trkpt>
      <trkpt lat="43.33375" lon="2.53793">
        <ele>298.600006104</ele>
        <time>2022-03-24T16:16:34Z</time>
      </trkpt>
      <trkpt lat="43.33363" lon="2.53779">
        <ele>297</ele>
        <time>2022-03-24T16:16:48Z</time>
      </trkpt>
    </trkseg>
  </trk>
</gpx>